[[{"header":{"parameterUnit":"m.s-1","parameterCategory":1,"la1":30.6,"la2":28.766,"lo1":-90.7593,"lo2":-88.6598,"dx":0.0162,"dy":0.0183,"nx":116,"ny":114,"refTime":"2022-11-21T18:00:00:Z","depth":0,"parameterNumber":2,"parameterNumberName":"U-component_of_WINDS"},"data":[0.0,0.0,0.0,0.0,0.0,0.0,0.0,0.0,0.0,0.0,0.0,0.0,0.0,0.0,0.0,0.0,0.0,0.0,0.0,0.0,0.0,0.0,0.0,0.0,0.0,0.0,0.0,0.0,0.0,0.0,0.0,0.0,0.0,0.0,0.0,0.0,0.0,0.0,0.0,0.0,0.0,0.0,0.0,0.0,0.0,0.0,0.0,0.0,0.0,0.0,0.0,0.0,0.0,0.0,0.0,0.0,0.0,0.0,0.0,0.0,0.0,0.0,0.0,0.0,0.0,0.0,0.0,0.0,0.0,0.0,0.0,0.0,0.0,0.0,0.0,0.0,0.0,0.0,0.0,0.0,0.0,0.0,0.0,0.0,0.0,0.0,0.0,0.0,0.0,0.0,0.0,0.0,0.0,0.0,0.0,0.0,0.0,0.0,0.0,0.0,0.0,0.0,0.0,0.0,0.0,0.0,0.0,0.0,0.0,0.0,0.0,0.0,0.0,0.0,0.0,0.0,0.0,0.0,0.0,0.0,0.0,0.0,0.0,0.0,0.0,0.0,0.0,0.0,0.0,0.0,0.0,0.0,0.0,0.0,0.0,0.0,0.0,0.0,0.0,0.0,0.0,0.0,0.0,0.0,0.0,0.0,0.0,0.0,0.0,0.0,0.0,0.0,0.0,0.0,0.0,0.0,0.0,0.0,0.0,0.0,0.0,0.0,0.0,0.0,0.0,0.0,0.0,0.0,0.0,0.0,0.0,0.0,0.0,0.0,0.0,0.0,0.0,0.0,0.0,0.0,0.0,0.0,0.0,0.0,0.0,0.0,0.0,0.0,0.0,0.0,0.0,0.0,0.0,0.0,0.0,0.0,0.0,0.0,0.0,0.0,0.0,0.0,0.0,0.0,0.0,0.0,0.0,0.0,0.0,0.0,0.0,0.0,0.0,0.0,0.0,0.0,0.0,0.0,0.0,0.0,0.0,0.0,0.0,0.0,0.0,0.0,0.0,0.0,0.0,0.0,0.0,0.0,0.0,0.0,0.0,0.0,0.0,0.0,0.0,0.0,0.0,0.0,0.0,0.0,0.0,0.0,0.0,0.0,0.0,0.0,0.0,0.0,0.0,0.0,0.0,0.0,0.0,0.0,0.0,0.0,0.0,0.0,0.0,0.0,0.0,0.0,0.0,0.0,0.0,0.0,0.0,0.0,0.0,0.0,0.0,0.0,0.0,0.0,0.0,0.0,0.0,0.0,0.0,0.0,0.0,0.0,0.0,0.0,0.0,0.0,0.0,0.0,0.0,0.0,0.0,0.0,0.0,0.0,0.0,0.0,0.0,0.0,0.0,0.0,0.0,0.0,0.0,0.0,0.0,0.0,0.0,0.0,0.0,0.0,0.0,0.0,0.0,0.0,0.0,0.0,0.0,0.0,0.0,0.0,0.0,0.0,0.0,0.0,0.0,0.0,0.0,0.0,0.0,0.0,0.0,0.0,0.0,0.0,0.0,0.0,0.0,0.0,0.0,0.0,0.0,0.0,0.0,0.0,0.0,0.0,0.0,0.0,0.0,0.0,0.0,0.0,0.0,0.0,0.0,0.0,0.0,0.0,0.0,0.0,0.0,0.0,0.0,0.0,0.0,0.0,0.0,0.0,0.0,0.0,0.0,0.0,0.0,0.0,0.0,0.0,0.0,0.0,0.0,0.0,0.0,0.0,0.0,0.0,0.0,0.0,0.0,0.0,0.0,0.0,0.0,0.0,0.0,0.0,0.0,0.0,0.0,0.0,0.0,0.0,0.0,0.0,0.0,0.0,0.0,0.0,0.0,0.0,0.0,0.0,0.0,0.0,0.0,0.0,0.0,0.0,0.0,0.0,0.0,0.0,0.0,0.0,0.0,0.0,0.0,0.0,0.0,0.0,0.0,0.0,0.0,0.0,0.0,0.0,0.0,0.0,0.0,0.0,0.0,0.0,0.0,0.0,0.0,0.0,0.0,0.0,0.0,0.0,0.0,0.0,0.0,0.0,0.0,0.0,0.0,0.0,0.0,0.0,0.0,0.0,0.0,0.0,0.0,0.0,0.0,0.0,0.0,0.0,0.0,0.0,0.0,0.0,0.0,0.0,0.0,0.0,0.0,0.0,0.0,0.0,0.0,0.0,0.0,0.0,0.0,0.0,0.0,0.0,0.0,0.0,0.0,0.0,0.0,0.0,0.0,0.0,0.0,0.0,0.0,0.0,0.0,0.0,0.0,0.0,0.0,0.0,0.0,0.0,0.0,0.0,0.0,0.0,0.0,0.0,0.0,0.0,0.0,0.0,0.0,0.0,0.0,0.0,0.0,0.0,0.0,0.0,0.0,0.0,0.0,0.0,0.0,0.0,0.0,0.0,0.0,0.0,0.0,0.0,0.0,0.0,0.0,0.0,0.0,0.0,0.0,0.0,0.0,0.0,0.0,0.0,0.0,0.0,0.0,0.0,0.0,0.0,0.0,0.0,0.0,0.0,0.0,0.0,0.0,0.0,0.0,0.0,0.0,0.0,0.0,0.0,0.0,0.0,0.0,0.0,0.0,0.0,0.0,0.0,0.0,0.0,0.0,0.0,0.0,0.0,0.0,0.0,0.0,0.0,0.0,0.0,0.0,0.0,0.0,0.0,0.0,0.0,0.0,0.0,0.0,0.0,0.0,0.0,0.0,0.0,0.0,0.0,0.0,0.0,0.0,0.0,0.0,0.0,0.0,0.0,0.0,0.0,0.0,0.0,0.0,0.0,0.0,0.0,0.0,0.0,0.0,0.0,0.0,0.0,0.0,0.0,0.0,0.0,0.0,0.0,0.0,0.0,0.0,0.0,0.0,0.0,0.0,0.0,0.0,0.0,0.0,0.0,0.0,0.0,0.0,0.0,0.0,0.0,0.0,0.0,0.0,0.0,0.0,0.0,0.0,0.0,0.0,0.0,0.0,0.0,0.0,0.0,0.0,0.0,0.0,0.0,0.0,0.0,0.0,0.0,0.0,0.0,0.0,0.0,0.0,0.0,0.0,0.0,0.0,0.0,0.0,0.0,0.0,0.0,0.0,0.0,0.0,0.0,0.0,0.0,0.0,0.0,0.0,0.0,0.0,0.0,0.0,0.0,0.0,0.0,0.0,0.0,0.0,0.0,0.0,0.0,0.0,0.0,0.0,0.0,0.0,0.0,0.0,0.0,0.0,0.0,0.0,0.0,0.0,0.0,0.0,0.0,0.0,0.0,0.0,0.0,0.0,0.0,0.0,0.0,0.0,0.0,0.0,0.0,0.0,0.0,0.0,0.0,0.0,0.0,0.0,0.0,0.0,0.0,0.0,0.0,0.0,0.0,0.0,0.0,0.0,0.0,0.0,0.0,0.0,0.0,0.0,0.0,0.0,0.0,0.0,0.0,0.0,0.0,0.0,0.0,0.0,0.0,0.0,0.0,0.0,0.0,0.0,0.0,0.0,0.0,0.0,0.0,0.0,0.0,0.0,0.0,0.0,0.0,0.0,0.0,0.0,0.0,0.0,0.0,0.0,0.0,0.0,0.0,0.0,0.0,0.0,0.0,0.0,0.0,0.0,0.0,0.0,0.0,0.0,0.0,0.0,0.0,0.0,0.0,0.0,0.0,0.0,0.0,0.0,0.0,0.0,0.0,0.0,0.0,0.0,0.0,0.0,0.0,0.0,0.0,0.0,0.0,0.0,0.0,0.0,0.0,0.0,0.0,0.0,0.0,0.0,0.0,0.0,0.0,0.0,0.0,0.0,0.0,0.0,0.0,0.0,0.0,0.0,0.0,0.0,0.0,0.0,0.0,0.0,0.0,0.0,0.0,0.0,0.0,0.0,0.0,0.0,0.0,0.0,0.0,0.0,0.0,0.0,0.0,0.0,0.0,0.0,0.0,0.0,0.0,0.0,0.0,0.0,0.0,0.0,0.0,0.0,0.0,0.0,0.0,0.0,0.0,0.0,0.0,0.0,0.0,0.0,0.0,0.0,0.0,0.0,0.0,0.0,0.0,0.0,0.0,0.0,0.0,0.0,0.0,0.0,0.0,0.0,0.0,0.0,0.0,0.0,0.0,0.0,0.0,0.0,0.0,0.0,0.0,0.0,0.0,0.0,0.0,0.0,0.0,0.0,0.0,0.0,0.0,0.0,0.0,0.0,0.0,0.0,0.0,0.0,0.0,0.0,0.0,0.0,0.0,0.0,0.0,0.0,0.0,0.0,0.0,0.0,0.0,0.0,0.0,0.0,0.0,0.0,0.0,0.0,0.0,0.0,0.0,0.0,0.0,0.0,0.0,0.0,0.0,0.0,0.0,0.0,0.0,0.0,0.0,0.0,0.0,0.0,0.0,0.0,0.0,0.0,0.0,0.0,0.0,0.0,0.0,0.0,0.0,0.0,0.0,0.0,0.0,0.0,0.0,0.0,0.0,0.0,0.0,0.0,0.0,0.0,0.0,0.0,0.0,0.0,0.0,0.0,0.0,0.0,0.0,0.0,0.0,0.0,0.0,0.0,0.0,0.0,0.0,0.0,0.0,0.0,0.0,0.0,0.0,0.0,0.0,0.0,0.0,0.0,0.0,0.0,0.0,0.0,0.0,0.0,0.0,0.0,0.0,0.0,0.0,0.0,0.0,0.0,0.0,0.0,0.0,0.0,0.0,0.0,0.0,0.0,0.0,0.0,0.0,0.0,0.0,0.0,0.0,0.0,0.0,0.0,0.0,0.0,0.0,0.0,0.0,0.0,0.0,0.0,0.0,0.0,0.0,0.0,0.0,0.0,0.0,0.0,0.0,0.0,0.0,0.0,0.0,0.0,0.0,0.0,0.0,0.0,0.0,0.0,0.0,0.0,0.0,0.0,0.0,0.0,0.0,0.0,0.0,0.0,0.0,0.0,0.0,0.0,0.0,0.0,0.0,0.0,0.0,0.0,0.0,0.0,0.0,0.0,0.0,0.0,0.0,0.0,0.0,0.0,0.0,0.0,0.0,0.0,0.0,0.0,0.0,0.0,0.0,0.0,0.0,0.0,0.0,0.0,0.0,0.0,0.0,0.0,0.0,0.0,0.0,0.0,0.0,0.0,0.0,0.0,0.0,0.0,0.0,0.0,0.0,0.0,0.0,0.0,0.0,0.0,0.0,0.0,0.0,0.0,0.0,0.0,0.0,0.0,0.0,0.0,0.0,0.0,0.0,0.0,0.0,0.0,0.0,0.0,0.0,0.0,0.0,0.0,0.0,0.0,0.0,0.0,0.0,0.0,0.0,0.0,0.0,0.0,0.0,0.0,0.0,0.0,0.0,0.0,0.0,0.0,0.0,0.0,0.0,0.0,0.0,0.0,0.0,0.0,0.0,0.0,0.0,0.0,0.0,0.0,0.0,0.0,0.0,0.0,0.0,0.0,0.0,0.0,0.0,0.0,0.0,0.0,0.0,0.0,0.0,0.0,0.0,0.0,0.0,0.0,0.0,0.0,0.0,0.0,0.0,0.0,0.0,0.0,0.0,0.0,0.0,0.0,0.0,0.0,0.0,0.0,0.0,0.0,0.0,0.0,0.0,0.0,0.0,0.0,0.0,0.0,0.0,0.0,0.0,0.0,0.0,0.0,0.0,0.0,0.0,0.0,0.0,0.0,0.0,0.0,0.0,0.0,0.0,0.0,0.0,0.0,0.0,0.0,0.0,0.0,0.0,0.0,0.0,0.0,0.0,0.0,0.0,0.0,0.0,0.0,0.0,0.0,0.0,0.0,0.0,0.0,0.0,0.0,0.0,0.0,0.0,0.0,0.0,0.0,0.0,0.0,0.0,0.0,0.0,0.0,0.0,0.0,0.0,0.0,0.0,0.0,0.0,0.0,0.0,0.0,0.0,0.0,0.0,0.0,0.0,0.0,0.0,0.0,0.0,0.0,0.0,0.0,0.0,0.0,0.0,0.0,0.0,0.0,0.0,0.0,0.0,0.0,0.0,0.0,0.0,0.0,0.0,0.0,0.0,0.0,0.0,0.0,0.0,0.0,0.0,0.0,0.0,0.0,0.0,0.0,0.0,0.0,0.0,0.0,0.0,0.0,0.0,0.0,0.0,0.0,0.0,0.0,0.0,0.0,0.0,3.0523,0.0,0.0,0.0,0.0,0.0,0.0,0.0,0.0,0.0,0.0,0.0,0.0,0.0,0.0,0.0,0.0,0.0,0.0,0.0,0.0,0.0,0.0,0.0,0.0,2.2877,2.3074,2.3033,2.3849,0.0,0.0,0.0,0.0,0.0,0.0,0.0,0.0,0.0,2.1523,2.2068,2.2259,2.3118,2.4486,2.442,2.3442,2.1726,0.0,0.0,0.0,0.0,0.0,0.0,0.0,0.0,0.0,0.0,0.0,0.0,0.0,0.0,0.0,0.0,0.0,0.0,0.0,0.0,0.0,0.0,0.0,0.0,0.0,0.0,0.0,0.0,0.0,0.0,0.0,0.0,0.0,0.0,0.0,0.0,0.0,0.0,0.0,0.0,0.0,0.0,0.0,0.0,0.0,0.0,0.0,0.0,0.0,0.0,0.0,0.0,0.0,0.0,0.0,0.0,0.0,0.0,0.0,0.0,0.0,0.0,0.0,0.0,0.0,0.0,0.0,0.0,0.0,0.0,0.0,3.1961,0.0,0.0,0.0,0.0,0.0,0.0,0.0,0.0,0.0,0.0,0.0,0.0,0.0,0.0,0.0,0.0,0.0,0.0,0.0,0.0,0.0,2.1588,2.2536,2.3466,2.3857,2.3424,2.4422,2.4633,2.3485,2.3466,0.0,0.0,0.0,0.0,2.2046,2.1756,2.2126,2.3306,2.3685,2.4608,2.6008,2.657,2.5342,2.266,2.2052,0.0,0.0,0.0,0.0,0.0,0.0,0.0,0.0,0.0,0.0,0.0,0.0,0.0,0.0,0.0,0.0,0.0,0.0,0.0,0.0,0.0,0.0,0.0,0.0,0.0,0.0,0.0,0.0,0.0,0.0,0.0,0.0,0.0,0.0,0.0,0.0,0.0,0.0,0.0,0.0,0.0,0.0,0.0,0.0,0.0,0.0,0.0,0.0,0.0,0.0,0.0,0.0,0.0,0.0,0.0,0.0,0.0,0.0,0.0,0.0,0.0,0.0,0.0,3.5376,3.5767,3.6032,3.6372,3.6866,3.7422,3.6998,3.6048,3.4752,3.3099,0.0,0.0,0.0,0.0,0.0,0.0,0.0,0.0,0.0,0.0,0.0,0.0,0.0,0.0,0.0,0.0,0.0,0.0,0.0,2.1532,2.2364,2.2318,2.2427,2.2952,2.3551,2.3654,2.3032,2.3559,0.0,0.0,0.0,0.0,2.1085,2.1077,2.1942,2.3626,2.6168,2.7333,2.717,2.7342,2.6966,2.6212,2.5822,2.4909,2.3498,0.0,0.0,0.0,0.0,0.0,0.0,0.0,0.0,0.0,0.0,0.0,0.0,0.0,0.0,0.0,0.0,0.0,0.0,0.0,0.0,0.0,0.0,0.0,0.0,0.0,0.0,0.0,0.0,0.0,0.0,0.0,0.0,0.0,0.0,0.0,0.0,0.0,0.0,0.0,0.0,0.0,2.806,2.6354,0.0,0.0,0.0,0.0,0.0,0.0,0.0,0.0,0.0,0.0,0.0,0.0,0.0,3.2934,3.3845,3.4499,3.4912,3.5148,3.7157,3.8272,3.8555,3.9974,4.099,4.1614,4.1542,0.0,3.6202,3.4467,0.0,0.0,0.0,0.0,0.0,0.0,0.0,0.0,0.0,0.0,0.0,0.0,0.0,0.0,0.0,0.0,0.0,0.0,0.0,0.0,0.0,2.3107,2.3599,2.4357,2.5093,2.4916,2.3537,2.3253,0.0,0.0,0.0,2.026,1.9786,2.1745,2.3914,2.6162,2.8297,2.9255,2.9135,2.9555,2.9645,2.9489,2.9346,2.771,2.5009,2.3383,0.0,0.0,0.0,0.0,0.0,0.0,0.0,0.0,0.0,0.0,0.0,0.0,0.0,0.0,0.0,0.0,0.0,0.0,0.0,0.0,0.0,0.0,0.0,0.0,0.0,0.0,0.0,0.0,0.0,0.0,0.0,0.0,0.0,0.0,0.0,0.0,0.0,0.0,0.0,2.6849,2.7509,2.5949,2.6626,2.6565,0.0,0.0,0.0,0.0,0.0,0.0,0.0,0.0,0.0,3.3506,3.4858,3.611,3.7276,3.8512,3.9356,3.9775,4.0745,4.1297,4.1439,4.214,4.2641,4.2881,4.2226,4.0979,3.9277,3.7761,3.6104,3.4354,0.0,0.0,0.0,0.0,3.1876,3.2417,0.0,0.0,0.0,0.0,0.0,0.0,0.0,0.0,0.0,0.0,0.0,0.0,2.3039,2.3972,2.4824,2.5497,2.6151,2.5712,2.3907,2.2823,2.1459,1.9736,1.9456,1.9049,1.8436,2.2213,2.5555,2.8369,2.9879,3.0657,3.0784,3.1271,3.1503,3.1503,3.1503,2.9782,2.676,2.5334,2.4001,2.267,0.0,0.0,0.0,0.0,0.0,0.0,0.0,0.0,0.0,0.0,0.0,0.0,0.0,0.0,0.0,0.0,0.0,0.0,0.0,0.0,0.0,0.0,0.0,0.0,0.0,0.0,0.0,0.0,0.0,0.0,0.0,0.0,0.0,0.0,0.0,0.0,0.0,2.7289,2.806,2.6137,2.7387,2.7832,0.0,0.0,0.0,0.0,0.0,0.0,3.1879,3.405,3.5687,3.6465,3.8047,3.9454,4.0544,4.192,4.2851,4.33,4.33,4.33,4.33,4.33,4.315,4.283,4.1978,4.1431,4.1061,3.9537,3.8075,3.6679,3.5413,3.5018,3.5108,3.5,3.5338,3.5876,0.0,0.0,0.0,0.0,0.0,0.0,0.0,0.0,0.0,0.0,0.0,2.3426,2.3289,2.4253,2.5032,2.5466,2.5442,2.4864,2.36,2.239,2.0937,1.9113,1.7873,1.7245,1.7176,2.1792,2.5815,2.9129,3.0691,3.1442,3.1444,3.1473,3.1503,3.1503,3.1503,3.0717,2.9338,2.8304,2.6817,2.4911,2.2321,0.0,0.0,0.0,0.0,0.0,0.0,0.0,0.0,0.0,0.0,0.0,0.0,0.0,0.0,0.0,0.0,0.0,0.0,0.0,0.0,0.0,0.0,0.0,0.0,0.0,0.0,0.0,0.0,0.0,0.0,0.0,0.0,0.0,0.0,0.0,0.0,0.0,0.0,2.8356,2.9955,0.0,0.0,0.0,0.0,3.4183,3.4966,3.5391,3.5541,3.7709,3.9237,3.9913,4.1926,4.303,4.31,4.321,4.327,4.33,4.33,4.33,4.33,4.33,4.27,4.167,4.1618,4.099,3.9823,3.7848,3.6608,3.5778,3.3859,3.3414,3.3793,3.3785,3.5007,3.6622,0.0,0.0,0.0,2.1801,2.1234,2.0951,2.1473,2.1119,2.0906,2.1168,2.2386,2.3326,2.3592,2.4796,2.5859,2.6531,2.6717,2.6238,2.494,2.2457,2.0779,2.0189,1.8319,1.91,2.2948,2.5695,2.8489,3.1324,3.2301,3.2579,3.2146,3.2146,3.1899,3.1503,3.1503,3.1249,3.0726,2.9374,2.8095,2.682,2.5121,2.3103,0.0,0.0,0.0,0.0,0.0,0.0,0.0,0.0,0.0,0.0,0.0,0.0,0.0,0.0,0.0,0.0,0.0,0.0,0.0,0.0,0.0,0.0,0.0,0.0,0.0,0.0,0.0,0.0,0.0,0.0,0.0,0.0,0.0,0.0,0.0,0.0,0.0,3.1964,3.4019,0.0,3.2815,3.3541,3.439,3.4946,3.7348,3.8656,3.8331,4.0545,4.1946,4.2175,4.3339,4.3938,4.3938,4.4366,4.4576,4.4576,4.4576,4.4576,4.4555,4.3742,4.3156,4.2668,4.1135,4.0197,3.9711,3.8225,3.794,3.8479,3.8514,3.8639,3.8928,4.0099,4.0694,4.0992,0.0,0.0,0.0,2.1541,2.0882,2.0519,2.1086,2.0622,2.044,2.1044,2.2175,2.3326,2.4394,2.5709,2.6915,2.7929,2.8176,2.7487,2.5622,2.2929,2.0984,2.0062,1.9099,2.1262,2.6943,2.8352,3.0255,3.2849,3.3275,3.3275,3.2849,3.2849,3.2482,3.1839,3.1839,3.172,3.1436,3.0399,2.9502,2.866,2.7274,2.5011,2.2397,0.0,0.0,0.0,0.0,0.0,0.0,0.0,0.0,0.0,0.0,0.0,0.0,0.0,0.0,0.0,0.0,0.0,0.0,0.0,0.0,0.0,0.0,0.0,0.0,0.0,0.0,0.0,0.0,0.0,0.0,0.0,0.0,0.0,0.0,0.0,3.5354,3.426,3.6353,3.734,3.5898,3.6525,3.7267,3.7841,4.0135,4.143,4.1252,4.2753,4.3758,4.3967,4.4187,4.4426,4.4636,4.4855,4.5065,4.5315,4.5315,4.5315,4.5273,4.3973,4.3186,4.2713,4.0684,3.9554,3.9136,3.8334,3.8505,3.9362,4.0564,4.115,4.149,4.3136,4.3545,4.333,0.0,0.0,2.1163,2.1111,2.0928,2.0724,2.0523,2.0395,2.0531,2.1198,2.2186,2.3589,2.5662,2.6861,2.8078,2.9494,2.9615,2.8402,2.5538,2.3734,2.1535,1.8722,2.0285,2.3549,2.857,2.9368,3.0985,3.3522,3.3552,3.3552,3.3522,3.3522,3.3185,3.2512,3.2512,3.2146,3.154,3.154,3.1115,3.0362,2.8658,2.6708,2.4623,0.0,0.0,0.0,0.0,0.0,0.0,0.0,0.0,0.0,0.0,0.0,0.0,0.0,0.0,0.0,0.0,0.0,0.0,0.0,0.0,0.0,0.0,0.0,0.0,0.0,0.0,0.0,0.0,0.0,0.0,0.0,0.0,0.0,3.1493,3.5488,3.7599,3.5306,3.6953,3.8448,3.8898,3.9127,4.0383,4.312,4.3359,4.3658,4.4307,4.4337,4.4606,4.5244,4.4666,4.4666,4.5274,4.4725,4.4766,4.5394,4.5394,4.5373,4.533,4.4036,4.2798,4.1682,4.0408,3.9179,3.8103,3.8103,3.8103,3.8214,3.9422,4.0199,4.0841,4.2127,4.2887,4.3179,2.1043,2.0966,2.0897,2.0904,2.0716,2.0532,2.037,2.0198,2.0253,2.0723,2.2167,2.3785,2.5426,2.7085,2.8497,2.9517,2.9615,2.8823,2.6939,2.4117,2.1981,2.0797,2.5423,2.8657,3.0102,3.2122,3.3507,3.4226,3.4711,3.4711,3.4226,3.4226,3.3859,3.3215,3.3215,3.2849,3.2243,3.2243,3.1508,3.0308,2.9842,2.824,2.6052,0.0,0.0,0.0,0.0,0.0,0.0,0.0,0.0,0.0,0.0,0.0,0.0,0.0,0.0,0.0,0.0,0.0,0.0,0.0,0.0,0.0,0.0,0.0,0.0,0.0,0.0,0.0,0.0,0.0,0.0,0.0,0.0,3.547,3.5073,3.7641,3.974,4.0246,4.123,4.1921,4.2048,4.2545,4.3199,4.3957,4.4486,4.4825,4.5005,4.5035,4.4885,4.4576,4.5343,4.5623,4.5315,4.6561,4.729,4.747,4.747,4.7196,4.6632,4.4867,4.359,4.2708,4.1454,4.0688,4.0399,4.0399,4.0399,4.0354,3.9965,3.9924,4.0251,4.1906,4.2609,4.2565,2.0552,2.0774,2.09,2.0765,2.0649,2.0481,2.0229,1.9988,2.0197,2.1114,2.2076,2.3542,2.5848,2.7382,2.8705,2.9808,2.9602,2.865,2.6861,2.431,2.3383,2.4554,2.8667,3.1346,3.2279,3.4032,3.4929,3.4929,3.531,3.531,3.4929,3.4929,3.457,3.3911,3.3911,3.3552,3.2886,3.2499,3.1689,3.062,2.9854,2.8377,2.6531,2.5713,2.4031,2.2233,2.3009,2.3239,2.3299,2.3972,0.0,0.0,0.0,0.0,0.0,0.0,0.0,0.0,0.0,0.0,0.0,0.0,0.0,0.0,0.0,0.0,0.0,0.0,0.0,0.0,0.0,0.0,0.0,0.0,3.488,3.7786,3.8478,3.9791,4.1029,4.196,4.2132,4.2407,4.296,4.355,4.414,4.4695,4.4589,4.4707,4.5245,4.4767,4.4654,4.5073,4.5305,4.5403,4.5347,4.6175,4.6593,4.6645,4.6859,4.6739,4.6264,4.4595,4.3613,4.3126,4.1852,4.1289,4.1289,4.1076,4.0976,0.0,0.0,0.0,0.0,0.0,4.225,4.1947,1.9637,2.0349,2.0822,2.0498,2.0574,2.0477,1.9928,1.9796,2.0301,2.1858,2.2017,2.3282,2.6669,2.7803,2.8838,3.0181,2.9716,2.8419,2.6203,2.498,2.5793,2.9021,3.0865,3.2742,3.4787,3.54,3.5721,3.5721,3.5639,3.5601,3.5601,3.5541,3.5198,3.4615,3.4615,3.4193,3.3411,3.2581,3.1754,3.0854,2.925,2.7805,2.6536,2.58,2.4532,2.3226,2.3981,2.4159,2.4283,2.5703,0.0,0.0,0.0,0.0,0.0,0.0,0.0,0.0,0.0,0.0,0.0,0.0,0.0,0.0,0.0,0.0,0.0,0.0,0.0,0.0,0.0,0.0,0.0,0.0,3.6596,3.913,4.1211,4.1571,4.1613,4.1681,4.1161,4.1284,4.256,4.3106,4.3918,4.5191,4.4226,4.4069,4.5121,0.0,0.0,0.0,0.0,4.4518,4.5161,4.4554,4.4242,4.433,4.4875,4.5066,4.4961,4.3824,4.3257,4.3127,4.1976,4.1503,4.1439,4.0989,4.0789,4.0908,4.2281,4.2133,4.1276,4.1815,4.1729,4.1401,1.8581,1.9331,1.9593,1.8956,1.9687,2.0048,1.9088,1.9505,2.0392,2.1682,2.2578,2.4326,2.7594,2.8486,2.9224,3.0202,3.0277,2.9516,2.778,2.88,3.0073,3.1393,3.4024,3.5897,3.6836,3.6985,3.7037,3.7037,3.6545,3.6306,3.6306,3.5759,3.5421,3.531,3.531,3.4497,3.316,3.298,3.1693,2.9725,2.9354,2.8528,2.7385,2.6591,2.6071,2.586,2.6669,2.6924,2.6998,2.756,2.7552,2.7165,2.6413,2.5142,0.0,0.0,0.0,0.0,0.0,0.0,0.0,0.0,0.0,0.0,0.0,0.0,0.0,0.0,0.0,0.0,0.0,0.0,0.0,3.5724,3.8769,4.0894,4.0877,4.1341,4.1824,4.2191,4.1701,4.1859,4.3124,4.3307,4.3851,4.512,4.4931,4.4862,4.5123,4.4891,4.4701,4.4596,4.4375,4.4111,4.3724,4.4204,4.4436,4.4476,0.0,0.0,4.4345,4.4071,4.3606,4.3022,4.2785,4.2674,4.2674,4.2548,4.2523,4.2375,4.0941,4.0222,4.0045,4.016,4.0682,4.131,1.7251,1.8251,1.8839,1.8284,1.9374,1.9954,1.8898,1.9774,2.1035,2.2382,2.305,2.4412,2.7122,2.7395,2.7583,2.8004,2.7932,2.7973,2.834,3.0141,3.2197,3.4464,3.6077,3.7255,3.7883,3.7575,3.7396,3.7396,3.7105,3.6784,3.6493,3.6156,3.5818,3.5465,3.4963,3.4301,3.3497,3.2554,3.1296,2.9847,2.9361,2.8638,2.7858,2.7445,2.7311,2.7401,2.8248,2.8564,2.8648,2.9206,2.9592,2.9638,2.8652,2.7669,2.6538,0.0,0.0,0.0,0.0,0.0,0.0,0.0,0.0,0.0,0.0,0.0,0.0,0.0,0.0,3.1469,0.0,0.0,3.4913,3.7136,3.9039,4.0526,4.1379,4.1517,4.1543,4.1485,4.0971,4.1225,4.2759,4.3127,4.3666,4.4659,4.4369,4.4163,4.4163,4.3843,4.3817,4.4137,4.383,4.3526,4.3235,4.3589,4.3597,4.3358,4.39,4.3964,4.3618,4.3564,4.3361,4.3014,4.3014,4.3014,4.2989,4.2713,4.2423,4.2044,4.0939,4.0676,4.0979,4.1242,4.1518,4.1781,1.6844,1.7755,1.8385,1.8047,1.9295,2.0044,1.9286,2.0253,2.1596,2.3037,2.3259,2.4096,2.6314,2.5936,2.5593,2.5653,2.5575,2.6624,2.9151,3.1156,3.3871,3.7503,3.7736,3.8084,3.876,3.8123,3.7785,3.7785,3.7665,3.7353,3.6844,3.6613,3.6124,3.5344,3.4413,3.3799,3.3368,3.1856,3.0846,3.0205,2.9396,2.8816,2.8423,2.8423,2.8288,2.8188,2.8894,2.9056,2.9092,3.0049,3.0807,3.1228,3.0379,2.9939,2.9165,2.6402,2.6009,0.0,0.0,0.0,0.0,0.0,0.0,0.0,0.0,0.0,2.9363,3.1388,3.2053,3.2712,3.4169,3.4667,3.571,3.8354,3.9131,4.0074,4.2025,4.1979,4.15,4.0833,4.03,4.0681,4.2391,4.2722,4.3226,4.4184,4.3497,4.3062,4.3166,4.2644,4.283,4.3844,4.3216,4.2907,4.2997,4.278,4.2448,4.2034,4.2587,4.2838,4.2838,4.2964,4.3014,4.3014,4.3014,4.3014,4.2964,4.2537,4.2071,4.1628,4.1628,4.1932,4.2375,4.2573,4.2537,4.24,1.9007,1.8843,1.8403,1.8051,1.9292,2.0348,2.0465,2.0725,2.1419,2.2762,2.2864,2.3703,2.6063,2.5329,2.4798,2.5138,2.6125,2.8177,3.1661,3.383,3.6486,3.9876,3.9495,3.949,4.0157,3.952,3.9182,3.9182,3.8571,3.8251,3.8161,3.7024,3.5984,3.503,3.4315,3.3061,3.1499,3.1287,3.0689,2.9852,2.9752,2.9654,2.9603,2.9603,2.8976,2.8106,2.8206,2.7824,2.7492,2.9031,2.9169,2.8945,3.0147,2.9685,2.8258,2.6129,2.5128,2.423,2.2063,2.334,2.5473,2.6282,2.7691,2.9459,0.0,0.0,3.2145,3.3929,3.4293,3.4618,3.5757,3.6223,3.7179,3.946,4.0605,4.147,4.2188,4.2688,4.2554,4.1372,4.1157,4.1659,4.2982,4.2133,4.2231,4.4005,4.2998,4.2519,4.301,4.2947,4.2983,4.3111,4.2569,4.2292,4.2316,4.1774,4.1453,4.1403,4.1996,4.2299,4.2299,4.2788,4.3014,4.3014,4.3014,4.3014,4.2989,4.2939,4.2875,4.2799,4.2799,4.285,4.2813,4.1843,4.2094,4.2838,1.8811,1.9217,1.9572,1.9612,2.0162,2.0524,2.0332,2.0929,2.1851,2.303,2.3141,2.3864,2.5834,2.5049,2.4292,2.4057,2.6054,2.8825,3.2395,3.4418,3.6842,3.9915,3.9388,3.9135,3.9446,3.9407,3.9391,3.9391,3.9131,3.8457,3.7457,3.6921,3.5929,3.4536,3.3358,3.2415,3.1621,3.0757,3.0158,2.9814,2.9814,2.9814,2.9814,2.9814,2.9503,2.8991,2.8246,2.77,0.0,2.8259,2.8615,2.897,3.0486,2.9812,2.8297,2.7208,2.6244,2.5622,2.6104,2.6377,2.6836,2.8278,2.957,3.0963,3.2746,3.3149,3.3716,3.5746,3.5588,3.5454,3.6576,3.6909,3.7605,0.0,4.0437,4.1229,4.2133,4.2143,4.2134,4.2276,4.2007,4.2037,4.2565,4.2423,4.248,4.2963,4.3095,4.2964,4.2551,4.2838,4.3014,4.3014,4.2788,4.2676,4.2676,4.2423,4.2283,4.2283,4.2562,4.2676,4.2663,4.2889,4.3014,4.3014,4.3014,4.3014,4.3014,4.3014,4.3014,4.3014,4.3014,4.3014,4.2975,4.2836,4.2861,4.3,1.937,2.0068,2.079,2.1194,2.1104,2.095,2.0926,2.1411,2.2139,2.3156,2.3096,2.3511,2.4856,2.4398,2.3777,2.3354,2.5621,2.8683,3.2426,3.4326,3.6589,3.9436,3.8734,3.8316,3.8365,3.8454,3.8527,3.8527,3.8527,3.7864,3.6618,3.6466,3.5601,3.4112,3.2809,3.2073,3.1763,3.0681,3.0241,3.0241,3.008,3.003,3.0005,2.9864,2.9436,2.8796,2.7933,2.7414,2.7062,2.6899,2.7116,2.7692,2.876,2.8354,2.7404,2.688,2.62,2.6022,2.7977,2.8199,2.8288,2.9869,3.1532,3.2987,3.3797,3.4412,3.5296,3.7068,3.6772,3.6535,3.7675,3.7902,3.8366,3.9898,4.0601,4.1317,4.2286,4.2183,4.2194,4.2713,4.245,4.2199,4.2199,4.2537,4.2688,4.245,4.3014,4.3076,4.2436,4.2788,4.3014,4.3014,4.3014,4.3014,4.3014,4.3014,4.3014,4.3014,4.3014,4.3014,4.3014,4.3014,4.3014,4.3014,4.3014,4.3014,4.3014,4.3014,4.3014,4.3014,4.3014,4.3014,4.3065,4.3452,4.3327,4.3065,2.1836,2.1776,2.1758,2.2329,2.1874,2.1818,2.3111,2.24,2.2021,2.289,2.2389,2.2169,2.2744,2.3007,2.3186,2.3285,2.4881,2.7645,3.1842,3.3807,3.608,3.8892,3.7879,3.7252,3.7252,3.6615,3.631,3.631,3.631,3.6263,3.6206,3.5623,3.4804,3.378,3.3107,3.2277,3.1422,3.1356,3.1346,3.1321,3.0799,3.0573,3.0522,3.0005,2.8521,2.6719,2.6865,2.6473,2.5681,2.4505,2.3949,2.3758,2.3733,2.4316,2.4848,2.3986,2.3796,2.4067,2.4997,2.7063,2.9225,3.0383,3.3484,3.6099,3.5548,3.6287,3.7275,3.7852,3.7952,3.8266,3.9396,3.9622,3.9973,4.1063,4.177,4.235,4.2889,4.3402,4.3352,4.235,4.2199,4.2199,0.0,4.2199,4.2425,4.2939,4.2512,4.2475,4.2964,4.2989,4.3014,4.3014,4.3014,4.3014,4.3014,4.3014,4.3014,4.3014,4.3014,4.3014,4.3014,4.3014,4.3014,4.3014,4.3014,4.3014,4.3014,4.3014,4.3014,4.3014,4.3014,4.3014,4.3014,4.3014,4.3,4.3014,2.1265,2.1346,2.1575,2.1854,2.1809,2.1872,2.2352,2.1813,2.1755,2.287,2.3026,0.0,0.0,0.0,0.0,0.0,2.632,2.8663,3.1322,3.3075,3.4833,3.6665,3.6647,3.6432,3.6078,3.6172,3.6212,3.6212,3.6212,3.5864,3.5197,3.4989,3.4329,3.3298,3.2694,3.2223,3.1913,3.1537,3.1396,3.1346,3.0834,3.0588,3.0477,2.9453,2.8037,2.6393,0.0,2.3598,2.2964,2.2647,2.2536,2.2655,2.3299,2.3119,2.2672,2.2877,2.4199,2.6156,2.8651,3.0448,3.2037,3.4007,3.5715,3.7073,3.7638,3.8052,3.858,3.9458,3.887,3.8574,3.9734,3.9892,4.0323,4.1848,4.2746,4.3327,4.3503,4.3689,4.3539,4.2813,4.2738,0.0,0.0,0.0,0.0,4.2989,4.3151,4.3176,4.3014,4.3014,4.3014,4.3014,4.3014,4.3014,4.3014,4.3014,4.3014,4.3014,4.3014,4.3014,4.3014,4.3014,4.3014,4.3014,4.3014,4.3014,4.3014,4.3014,4.3201,4.3528,4.3528,4.374,4.4052,4.4052,4.4052,4.4016,2.1951,2.1987,2.2062,2.2285,2.2083,0.0,0.0,0.0,0.0,0.0,0.0,0.0,0.0,0.0,0.0,0.0,0.0,2.8251,3.0351,3.1169,3.2339,3.4129,3.3869,3.3657,3.36,3.3631,3.3726,3.3943,3.4239,3.4133,3.3647,3.3965,3.3753,3.309,3.2692,3.2516,3.2491,3.1913,3.1572,3.1311,3.0233,2.968,2.9299,2.7838,2.6166,0.0,2.2606,2.1144,2.012,2.0382,2.059,2.0833,2.1475,2.1745,2.2067,2.3362,2.5437,2.8041,3.1388,3.3022,3.431,3.6425,3.7675,3.8529,3.9057,3.9484,3.9948,4.0625,3.9958,3.9514,4.0483,4.0515,4.0835,4.215,4.2985,4.3515,4.3605,4.3658,4.3501,4.3051,4.3014,4.3014,0.0,0.0,0.0,4.3014,4.3327,4.3352,4.3014,4.3014,4.3014,4.3014,4.3014,4.3014,4.3014,4.3014,4.3014,4.3014,4.3014,4.3014,4.3014,4.3201,4.3277,4.3302,4.3503,4.3578,4.3578,4.3578,4.3765,4.4077,4.4077,4.4303,4.4589,4.4589,4.4589,4.4539,2.3727,2.3473,2.3183,0.0,0.0,0.0,0.0,0.0,0.0,0.0,0.0,0.0,0.0,0.0,0.0,0.0,0.0,0.0,2.8897,2.8352,2.9012,3.1462,2.9963,2.9419,3.0193,2.9446,2.9339,2.9913,3.0663,3.123,3.1594,3.2462,3.2871,3.2871,3.2849,3.2839,3.2803,3.2208,3.1631,3.0959,2.9024,2.7839,2.7072,2.526,2.3142,2.107,2.0826,1.9248,1.7376,1.7969,1.837,1.8644,1.876,2.0554,2.3081,2.5315,2.7455,2.975,3.3001,3.472,3.602,3.773,3.9358,4.0412,3.9948,4.0613,4.1339,4.13,4.1058,4.099,0.0,0.0,4.1464,4.2033,4.2616,4.3076,4.3325,4.3422,4.3341,0.0,0.0,0.0,0.0,0.0,0.0,4.3014,0.0,4.3014,4.3014,4.3014,4.3014,4.3014,4.3014,4.3014,4.3014,4.3039,4.3039,4.3039,4.3076,4.3076,4.3115,4.3614,4.384,4.3865,4.4378,4.4589,4.4589,4.4589,4.4629,4.4654,4.4654,4.4665,4.4704,4.4704,4.4704,4.4704,0.0,0.0,0.0,0.0,0.0,0.0,0.0,0.0,0.0,0.0,0.0,0.0,0.0,0.0,0.0,0.0,0.0,0.0,2.7068,2.7983,2.8841,2.9662,2.9962,3.0208,3.042,3.0024,2.9854,2.9909,3.0006,3.0054,3.0056,2.9942,2.9899,2.989,2.9539,2.932,2.9215,2.8912,2.8207,2.7218,2.6429,2.5755,2.5081,2.3559,2.2252,2.1125,2.0184,1.8674,1.7374,1.8681,2.0348,2.2063,2.3478,2.4836,2.6226,2.7909,3.0338,3.3007,3.5601,3.7432,3.8906,4.0157,4.0787,4.1177,4.1507,4.1783,4.1791,4.1187,4.059,4.0029,3.9625,4.0264,4.12,4.2232,4.3379,0.0,4.4259,4.4273,0.0,4.3101,0.0,4.3452,4.3039,4.3014,0.0,0.0,4.3014,4.3014,4.3014,4.3014,4.3014,4.3014,4.3014,4.3014,4.3014,4.3402,4.3589,4.3589,4.4016,4.4177,4.4202,4.4328,4.4403,4.4403,4.4539,4.4589,4.4589,4.4589,4.4855,4.5271,4.5271,4.5522,4.5859,4.5859,4.5859,4.5859,0.0,0.0,0.0,0.0,0.0,0.0,0.0,0.0,0.0,0.0,0.0,0.0,0.0,0.0,0.0,0.0,0.0,0.0,0.0,2.6977,2.7661,2.8264,2.837,2.86,2.9051,2.8263,2.8033,2.842,2.801,2.7967,2.8209,2.7962,2.7776,2.7643,2.7038,2.6735,2.6647,2.6214,2.547,0.0,0.0,2.3261,2.2545,2.1493,2.064,1.998,1.9492,1.962,2.0337,2.2645,2.3878,2.4764,2.6429,2.7578,2.8845,3.1459,3.3661,3.5789,3.83,3.9882,4.0941,4.153,4.1868,4.1966,4.1734,4.1588,4.1201,4.0124,3.9159,3.8511,3.8497,3.9414,4.0531,0.0,0.0,0.0,4.4022,4.3826,4.3508,0.0,4.3277,0.0,4.3025,4.3014,4.3115,0.0,4.3126,4.3014,4.3014,4.3014,4.3115,4.3352,4.3352,4.3463,4.3689,4.4016,4.4152,4.4152,4.4453,4.4589,4.4614,4.488,4.498,4.5006,0.0,4.5357,4.5357,4.5357,4.5533,4.5849,4.5849,4.605,4.6336,4.6562,4.6662,4.6662,0.0,0.0,0.0,0.0,0.0,0.0,0.0,0.0,0.0,0.0,2.3553,0.0,0.0,0.0,0.0,0.0,0.0,0.0,0.0,0.0,2.6187,2.7177,2.6302,2.6228,2.7132,2.5838,2.5533,2.6378,2.5599,2.5541,2.6075,2.5992,2.5802,2.5461,2.4707,2.4329,2.4271,2.3555,2.287,2.2161,2.1362,2.0611,1.9901,0.0,1.8888,1.8543,1.9108,2.1298,2.4402,2.7506,2.7966,2.7469,2.8998,3.015,3.1703,3.5324,3.6985,3.8181,4.0729,4.1806,4.2224,4.2299,4.2663,4.2616,4.1171,4.064,4.0011,3.8326,3.7296,3.6902,3.7552,3.869,3.9821,4.0765,0.0,4.3006,4.3418,4.2953,4.2667,4.2972,4.3014,4.3039,4.3115,4.3115,4.3327,4.3865,4.3478,4.3201,4.3201,4.3201,4.3427,4.389,4.3915,4.4127,4.4604,4.4679,4.4729,4.4729,4.4805,4.483,4.484,4.5372,4.5612,4.5638,4.616,0.0,4.6311,4.6436,4.6461,4.6411,4.6486,4.6512,4.6562,4.7023,4.7199,4.7199,0.0,0.0,0.0,0.0,0.0,0.0,0.0,0.0,0.0,0.0,2.4819,2.4083,0.0,0.0,0.0,0.0,0.0,0.0,0.0,0.0,0.0,2.6319,2.6337,2.6547,2.6931,2.6206,2.5798,2.5748,2.4816,2.4026,2.3443,2.2891,2.233,2.1772,2.0865,2.0365,2.0193,1.966,1.8969,1.8202,1.8199,1.8184,1.8147,1.8021,0.0,0.0,1.9982,2.2352,2.5461,2.8349,3.0286,3.1918,3.4282,3.5745,3.6812,3.8025,3.9131,4.0237,4.1648,4.2118,4.2299,4.2738,4.2939,4.2463,4.0413,3.9884,3.896,3.5845,3.6031,3.65,3.5557,3.7689,4.0012,4.1329,4.2181,4.3052,4.4198,4.3529,4.2919,0.0,4.3014,4.3176,4.3614,4.3664,0.0,0.0,4.4378,4.4328,4.4328,4.4328,4.4378,4.4453,4.4464,4.4503,4.4589,4.5095,4.5347,4.5361,4.5784,4.601,4.601,4.611,4.616,4.62,4.6722,0.0,4.6361,4.7265,4.7365,4.6998,4.744,4.7616,4.7616,4.7716,4.7767,4.7767,0.0,0.0,0.0,0.0,0.0,0.0,0.0,2.7106,2.7491,2.8721,2.8254,2.74,2.6365,2.596,2.5904,0.0,0.0,0.0,0.0,0.0,0.0,0.0,0.0,0.0,2.6841,2.5864,0.0,0.0,0.0,2.2585,2.1798,2.1021,2.016,1.9251,1.8308,1.7841,1.7736,1.7738,1.739,1.6934,1.7555,1.7815,1.7857,1.8313,0.0,0.0,2.1599,2.3718,2.6294,2.9031,3.1863,3.4579,3.6581,3.779,3.8691,3.9815,4.0737,4.1727,4.3244,4.3651,4.3722,4.398,4.4044,4.32,4.0014,3.8844,3.7776,3.5364,3.4985,3.5245,3.574,3.7787,3.9771,4.0891,4.2067,4.3022,4.3675,4.3327,4.3014,4.3014,4.3251,4.3528,4.379,4.4052,4.4453,4.502,4.507,4.493,4.4629,4.4905,4.507,4.507,4.5332,4.5482,4.5482,4.5773,4.5924,4.5924,4.6175,4.6286,4.6311,4.6587,4.6737,4.6763,4.729,0.0,4.7164,4.7707,4.7741,4.7541,4.7792,4.7908,4.7933,4.8234,4.8375,4.8375,0.0,0.0,0.0,0.0,0.0,0.0,2.9013,2.9087,2.9631,3.1504,3.1754,3.0958,2.8931,2.7807,2.7113,0.0,0.0,0.0,0.0,0.0,0.0,0.0,0.0,0.0,0.0,0.0,0.0,0.0,2.2682,0.0,0.0,0.0,0.0,0.0,1.7026,1.6627,1.664,1.6899,1.6929,0.0,0.0,1.8205,0.0,0.0,0.0,0.0,0.0,2.497,2.6888,2.9496,3.2488,3.5328,3.6739,3.8041,3.9359,4.0886,4.1849,4.2822,4.4534,4.4997,4.4928,4.4623,4.4567,4.3493,3.9336,3.7857,3.6822,3.4754,3.4083,3.4407,3.6226,3.7893,3.9403,4.0575,4.1875,4.283,4.3126,4.3176,4.3176,4.3176,4.3539,0.0,4.4141,4.4554,0.0,4.5638,4.5688,4.5472,4.5006,4.5422,4.5688,4.5688,4.6075,4.6286,4.6286,4.6411,4.6461,4.6486,4.6587,4.6637,4.6677,4.7089,4.7274,4.7299,4.7842,0.0,0.0,4.8159,4.8209,4.8109,4.8234,4.8243,4.8335,4.8802,4.8969,4.8969,0.0,0.0,0.0,0.0,0.0,0.0,2.9976,3.035,3.1533,3.4713,3.3808,3.2734,3.2365,3.0382,2.8175,0.0,0.0,0.0,0.0,0.0,0.0,0.0,0.0,0.0,0.0,0.0,0.0,0.0,0.0,0.0,0.0,0.0,0.0,0.0,0.0,1.7412,1.7297,1.7156,0.0,0.0,0.0,0.0,0.0,0.0,0.0,0.0,0.0,2.5669,2.7196,2.9524,3.1592,3.331,3.4171,3.6841,3.986,4.1025,4.2291,4.354,4.4702,4.5009,4.4716,4.3491,4.3165,4.2055,3.7719,3.7217,3.6506,3.2419,3.3421,3.5191,3.5641,3.7218,3.9149,4.1258,4.1718,4.2279,4.3561,4.374,4.374,4.374,0.0,0.0,4.5236,4.5386,4.5648,4.62,4.6225,4.6185,4.6135,4.62,4.6225,4.6225,4.6261,4.6286,4.6286,4.6772,4.7023,4.7023,4.7516,4.7741,4.7741,4.7792,4.7817,4.7857,4.8451,0.0,0.0,4.9012,4.9154,4.8768,4.9238,4.9439,4.9439,4.9515,4.9531,4.9531,0.0,0.0,0.0,0.0,0.0,0.0,3.0668,3.1139,3.2172,3.4736,3.5038,3.4459,3.2965,3.1715,3.011,2.7939,0.0,0.0,0.0,0.0,0.0,0.0,0.0,0.0,0.0,0.0,0.0,0.0,0.0,0.0,0.0,0.0,0.0,0.0,0.0,0.0,1.7191,1.743,0.0,0.0,0.0,0.0,0.0,0.0,0.0,0.0,0.0,0.0,2.7763,2.9496,3.1261,3.2684,3.2203,3.397,3.6849,4.0137,4.1368,4.2328,4.5424,4.5644,4.4875,4.4333,4.334,4.1589,3.8035,3.6613,3.5512,3.3726,3.4223,3.5388,3.6798,3.7516,3.8469,4.0122,4.0242,4.0567,4.1826,4.2283,4.268,4.3256,4.389,4.4604,0.0,0.0,4.6075,4.6286,4.6286,4.6436,4.6747,4.6486,4.6436,4.6772,4.6772,4.6938,4.7265,4.7465,4.7591,4.7591,4.7792,4.7908,4.7908,4.8275,4.8451,4.8476,4.9028,0.0,0.0,4.9414,4.9464,4.9305,4.9515,4.959,4.959,4.959,4.959,4.959,0.0,0.0,0.0,0.0,0.0,2.9136,3.1684,3.2177,3.3127,3.5643,3.5846,3.5197,3.3701,3.2251,3.0888,2.9653,2.8893,0.0,0.0,0.0,0.0,0.0,0.0,0.0,0.0,0.0,0.0,2.2594,2.2245,0.0,0.0,0.0,0.0,0.0,0.0,0.0,0.0,0.0,0.0,0.0,0.0,0.0,0.0,0.0,0.0,0.0,0.0,0.0,0.0,0.0,0.0,3.1629,3.0311,3.1357,3.3934,3.8302,3.9948,4.1152,4.4798,4.5407,4.49,4.4522,4.3115,4.1127,3.8337,3.6635,3.5418,3.4712,3.495,3.5759,3.734,3.7765,3.8197,3.9366,3.9453,3.9802,4.1044,4.1308,4.1826,4.3075,4.3601,4.4261,4.5392,4.5999,4.6286,4.6286,4.6436,4.6712,4.7074,4.6888,4.6938,4.7324,4.7324,4.7516,4.7908,4.8083,4.8159,4.8159,4.8335,4.841,4.8435,4.8853,4.9028,4.9053,4.943,0.0,0.0,4.959,4.959,4.959,4.959,4.959,4.959,4.959,4.959,4.959,0.0,0.0,0.0,0.0,0.0,0.0,3.3229,3.3588,3.4807,3.8472,3.6176,3.4499,3.5194,3.1959,2.9953,3.0527,2.944,0.0,0.0,0.0,0.0,0.0,0.0,0.0,0.0,0.0,2.29,2.2097,2.1426,2.1097,2.1048,2.0331,0.0,0.0,0.0,0.0,0.0,0.0,0.0,0.0,0.0,0.0,2.3963,0.0,0.0,0.0,0.0,0.0,0.0,0.0,0.0,0.0,0.0,2.9497,3.1921,3.5405,3.819,4.0478,4.2177,4.3792,4.4671,4.3365,4.2007,4.0423,3.8214,3.7479,3.665,3.4452,3.5269,3.6456,3.6762,3.7668,3.8676,3.957,3.9859,4.049,4.1975,4.1393,4.1547,4.3544,4.2752,4.2944,4.5268,4.5999,4.6286,4.6286,4.6772,0.0,4.7099,4.7591,4.7883,4.7892,4.7892,4.7892,4.7908,4.8501,4.8793,4.8793,4.933,4.9565,4.9565,4.959,4.959,4.959,0.0,0.0,0.0,4.959,4.959,4.959,4.959,4.959,4.959,4.959,4.959,4.959,0.0,0.0,0.0,0.0,0.0,0.0,0.0,3.2694,3.3564,3.4502,3.4529,3.416,3.3338,3.2149,3.13,3.1025,2.9541,0.0,0.0,0.0,0.0,0.0,0.0,0.0,0.0,0.0,2.3459,2.2508,2.2717,2.2312,2.1385,2.1042,2.0421,1.9579,1.9484,0.0,0.0,0.0,0.0,0.0,0.0,2.3231,2.3415,0.0,0.0,0.0,0.0,0.0,0.0,0.0,0.0,0.0,0.0,0.0,0.0,3.1668,3.4219,3.7051,3.9976,4.0617,4.0414,4.0122,3.8816,3.7445,3.6932,3.6049,3.5134,3.442,3.526,3.6376,3.7208,3.7173,3.7717,3.9768,3.9698,3.9811,4.1013,4.19,4.2618,4.3142,4.4234,4.5216,4.5955,4.6537,4.6863,4.6863,4.734,4.7817,4.825,4.8426,4.8526,4.8526,4.8526,4.8702,4.9063,4.9238,4.9355,4.9355,4.9515,4.959,4.959,4.959,4.959,0.0,0.0,0.0,0.0,4.959,4.959,4.959,4.959,4.959,4.959,4.959,4.959,4.959,0.0,0.0,0.0,0.0,0.0,0.0,0.0,3.2823,3.3567,3.3401,3.3762,3.3778,3.3132,3.2221,3.1575,3.1378,3.0072,0.0,0.0,0.0,0.0,0.0,0.0,0.0,0.0,2.4293,2.4248,2.3261,2.383,2.3568,2.2546,2.2376,2.1579,2.0294,2.0185,0.0,0.0,0.0,0.0,0.0,2.3374,2.366,2.3704,0.0,0.0,0.0,0.0,0.0,0.0,0.0,0.0,0.0,0.0,0.0,0.0,0.0,3.1892,3.4093,3.7321,3.8359,3.857,3.8823,3.7815,3.6776,3.6832,3.5891,3.492,3.4605,3.5247,3.6055,3.6726,3.661,3.711,3.9256,3.9165,3.9388,4.1039,4.1856,4.2428,4.2808,4.4719,4.5985,4.5959,4.6657,4.7191,4.7397,4.7912,4.8412,4.8781,4.8982,4.9104,4.9104,4.9104,4.9254,4.959,4.959,4.959,4.959,4.959,4.959,4.959,4.959,4.959,0.0,0.0,0.0,0.0,4.959,4.959,4.959,4.959,4.959,4.959,4.959,4.959,4.959,0.0,0.0,0.0,0.0,0.0,0.0,0.0,3.3578,3.436,3.4486,3.3686,3.3367,3.4036,3.2242,3.1165,3.1599,0.0,0.0,0.0,0.0,0.0,0.0,0.0,0.0,0.0,2.5001,2.5201,2.4332,2.4752,2.4747,2.4395,2.41,2.324,2.1952,2.1868,2.1895,0.0,0.0,0.0,0.0,2.4502,2.4698,0.0,0.0,0.0,0.0,0.0,0.0,0.0,0.0,0.0,0.0,0.0,0.0,0.0,0.0,0.0,0.0,0.0,3.6641,3.8374,3.8725,3.825,3.7653,3.7493,3.6674,0.0,3.5054,3.5356,3.5728,3.5752,3.6099,3.6868,3.8339,3.8527,3.9357,4.1902,4.1568,4.1585,4.2938,4.4581,4.5615,4.5578,4.6566,4.7425,4.7925,4.8514,4.887,4.887,4.9313,4.959,4.959,4.959,4.959,4.959,4.959,4.959,4.959,4.959,4.959,4.959,4.959,4.959,0.0,0.0,0.0,0.0,4.959,4.959,4.959,4.959,4.959,4.959,4.959,4.959,4.959,0.0,0.0,0.0,0.0,0.0,0.0,0.0,0.0,0.0,0.0,3.2868,3.2852,3.2412,3.2584,3.2489,0.0,0.0,0.0,0.0,0.0,0.0,0.0,0.0,0.0,0.0,2.5443,2.583,2.5651,2.539,2.5318,2.5349,2.4843,2.381,2.2438,2.2901,2.3004,0.0,0.0,0.0,0.0,2.4789,2.4953,0.0,0.0,0.0,0.0,2.8042,2.85,0.0,0.0,0.0,0.0,0.0,0.0,0.0,0.0,2.9486,3.0056,3.1438,0.0,3.4368,3.4875,3.4888,3.4996,0.0,3.5803,3.5683,3.5977,3.6405,3.6861,3.7292,3.6667,3.7022,3.9853,3.9803,4.0169,4.2407,4.3247,4.4248,4.5902,4.6455,4.6877,4.728,4.797,4.8444,4.8589,4.9096,4.9417,4.9417,4.9538,4.959,4.959,4.959,4.959,4.959,4.959,4.959,4.959,4.959,4.959,4.959,4.959,4.959,0.0,0.0,0.0,4.959,4.959,4.959,4.959,4.959,4.959,4.959,4.959,4.959,4.959,0.0,0.0,0.0,0.0,0.0,0.0,0.0,0.0,0.0,0.0,0.0,3.2815,3.2376,3.2844,0.0,0.0,0.0,0.0,0.0,0.0,0.0,0.0,0.0,0.0,2.4947,2.5214,2.5618,2.6189,2.6357,2.6309,2.6023,2.587,2.4758,2.2867,2.2935,2.3015,0.0,0.0,0.0,2.421,2.512,0.0,0.0,0.0,0.0,0.0,2.8091,2.8457,0.0,2.8452,2.8549,2.8682,0.0,0.0,0.0,0.0,2.9308,2.9802,3.0475,3.2188,3.3851,3.4209,3.4792,3.5481,3.6237,3.6119,3.592,3.6117,3.6471,3.6851,3.73,3.6812,3.7142,3.9679,4.0243,4.1156,4.3335,4.4168,4.5061,4.6476,4.6504,4.6926,4.819,4.862,4.8904,4.9149,4.9437,4.959,4.959,4.959,4.959,4.959,4.8764,4.8731,4.959,4.959,4.959,4.959,4.8746,4.842,4.8599,4.7554,4.7782,0.0,0.0,0.0,5.036,5.0092,4.9967,4.9967,4.9967,4.9816,4.959,4.959,4.959,4.959,0.0,0.0,0.0,0.0,0.0,0.0,0.0,0.0,0.0,0.0,0.0,0.0,0.0,0.0,0.0,0.0,0.0,0.0,0.0,0.0,0.0,0.0,0.0,2.5248,2.5093,2.4832,2.5212,2.626,2.718,2.7243,2.6462,2.6871,2.5785,2.3465,2.2943,2.2839,0.0,0.0,2.4739,2.4929,2.5439,0.0,0.0,0.0,0.0,0.0,0.0,0.0,0.0,2.8332,2.862,2.8945,2.8741,0.0,0.0,0.0,0.0,0.0,3.0463,3.2737,3.4912,3.4585,3.5539,3.6601,3.6899,3.645,3.5984,3.6051,3.6249,3.6535,3.694,3.6887,3.7333,3.8898,4.0445,4.2267,4.445,4.4889,4.5353,4.6374,4.6249,4.6846,4.8724,4.8916,4.9103,4.9572,4.959,4.959,4.959,4.959,4.9461,4.9178,4.7634,4.7427,4.8746,4.8746,4.8746,4.873,4.7217,4.6685,4.6996,4.5153,4.5604,4.7821,0.0,0.0,5.0352,4.985,4.9635,4.9635,4.9635,4.9356,4.8993,4.9197,4.9269,4.9318,0.0,0.0,0.0,0.0,0.0,0.0,0.0,0.0,0.0,0.0,0.0,0.0,0.0,0.0,0.0,0.0,0.0,0.0,0.0,0.0,0.0,0.0,0.0,2.5388,2.5006,2.5086,2.5449,2.6129,2.6952,2.7151,2.675,2.7207,2.651,2.4895,2.4681,2.4105,2.3403,2.4534,2.492,2.479,2.5613,0.0,0.0,0.0,0.0,0.0,0.0,0.0,0.0,2.734,2.7534,2.8035,2.773,0.0,0.0,0.0,0.0,0.0,3.0328,3.3191,3.5243,3.2878,3.3339,3.4382,3.4445,3.4501,3.4954,3.6504,3.6819,3.7051,3.7829,3.7596,3.7728,3.9049,4.1253,4.3572,4.5726,4.6421,4.7138,4.8243,4.8337,4.8633,4.9412,4.9478,4.9504,4.9606,4.959,4.959,4.959,4.959,4.8878,4.7292,4.6947,4.6196,4.4954,4.4954,4.4954,4.4937,4.5003,4.5056,4.5129,4.5191,4.5456,4.5833,0.0,4.5897,4.6297,4.6206,4.6166,4.6166,4.6166,4.612,4.6199,4.739,4.7822,4.7985,0.0,0.0,0.0,0.0,0.0,0.0,0.0,0.0,0.0,0.0,0.0,0.0,0.0,0.0,0.0,0.0,0.0,0.0,0.0,0.0,0.0,0.0,0.0,0.0,2.6446,2.6104,2.6619,2.8088,2.8721,2.8777,2.8275,2.667,2.5505,2.4696,2.4353,2.3928,2.3548,2.4929,2.5377,2.5222,0.0,0.0,0.0,0.0,0.0,0.0,0.0,0.0,0.0,0.0,2.7289,2.7732,2.741,0.0,0.0,0.0,0.0,0.0,2.965,3.2147,3.4251,3.3508,3.571,3.8131,3.8432,3.8244,3.8064,3.8355,3.858,3.8579,3.8065,3.8647,3.9826,4.1792,4.3261,4.4646,4.6018,4.6427,4.7027,4.814,4.8101,4.8423,4.9508,4.959,4.959,4.959,4.959,4.959,4.959,4.8633,4.7701,4.6829,4.4857,4.3555,4.2959,4.1953,4.2451,4.441,4.3844,4.3695,4.3918,4.2899,4.3262,4.466,0.0,4.4786,4.6226,4.594,4.5832,4.5832,4.5832,4.5654,4.5479,4.6134,4.638,4.6456,0.0,0.0,0.0,0.0,0.0,0.0,0.0,0.0,0.0,0.0,0.0,0.0,0.0,0.0,0.0,0.0,0.0,0.0,0.0,0.0,0.0,0.0,0.0,0.0,2.7846,2.6935,2.7563,2.9759,3.019,3.0228,2.9833,2.6916,2.5375,2.5042,2.4596,2.4222,2.4052,2.544,2.5808,2.5549,0.0,0.0,0.0,0.0,0.0,0.0,0.0,0.0,0.0,0.0,0.0,0.0,0.0,0.0,0.0,2.7656,2.7906,2.8478,2.9451,3.1379,3.3414,3.4713,3.7451,4.0142,4.1442,4.0825,4.0003,4.0048,4.0292,4.0073,3.8625,3.9656,4.1585,4.4168,4.4939,4.5558,4.6584,4.6776,4.7172,4.8104,4.7992,4.8286,4.95,4.959,4.959,4.959,4.959,4.959,4.959,4.7904,4.6748,4.6321,4.325,4.1561,4.1521,4.0176,4.0874,4.3546,4.2575,4.2311,4.2585,4.0936,4.1385,4.3375,4.2598,4.3557,4.5608,4.5202,4.5031,4.5031,4.5031,4.4983,4.4928,4.4928,4.5109,4.5395,0.0,0.0,0.0,0.0,0.0,0.0,0.0,0.0,0.0,0.0,0.0,0.0,0.0,0.0,0.0,0.0,0.0,0.0,0.0,0.0,0.0,0.0,0.0,0.0,2.8316,2.707,2.7449,2.9604,2.9973,3.0326,3.0672,2.9128,2.8043,2.735,2.7116,2.6406,0.0,0.0,2.6043,2.5502,2.5564,0.0,0.0,0.0,0.0,0.0,0.0,0.0,0.0,0.0,0.0,0.0,0.0,0.0,2.7822,2.7797,2.7805,2.8291,3.0316,3.2019,3.3711,3.5826,3.5399,3.5407,3.8996,3.8028,3.7318,4.0686,4.1229,4.0902,4.0166,4.045,4.1682,4.4447,4.5251,4.6278,4.8311,4.8618,4.8831,4.9418,4.9459,4.9484,4.959,4.959,4.959,4.959,4.959,4.959,4.959,4.8245,4.6658,4.4915,4.3332,4.1733,4.0088,4.0291,4.0367,4.0237,4.052,4.0679,4.0719,4.0976,4.123,4.1405,4.1326,4.1423,4.1618,4.1578,4.1578,4.1578,4.1578,4.2331,4.3433,4.3433,4.4296,4.5395,0.0,0.0,0.0,0.0,0.0,0.0,0.0,0.0,0.0,0.0,0.0,0.0,0.0,0.0,0.0,0.0,0.0,0.0,0.0,0.0,2.766,0.0,0.0,2.8675,2.9673,2.9998,3.0622,3.1659,3.1398,3.1285,3.1184,2.912,2.7887,2.7416,0.0,0.0,0.0,0.0,0.0,2.6263,2.5888,2.5743,0.0,0.0,0.0,0.0,0.0,0.0,0.0,0.0,2.6379,2.6966,2.6984,2.7383,2.7789,2.7648,2.7706,2.8015,2.9087,3.1556,3.4194,3.5801,3.6065,3.6903,4.0563,4.0995,4.1038,4.2612,4.3106,4.3018,4.2262,4.2796,4.3815,4.5218,4.6655,4.7855,4.8691,4.91,4.9361,4.959,4.959,4.959,4.959,4.959,4.959,4.959,4.959,4.9741,5.0076,4.7342,4.561,4.5286,4.2447,4.0715,4.0273,4.043,4.0586,4.0703,4.0859,4.0937,4.0937,4.1113,4.1191,4.1191,4.1191,4.1191,4.1191,4.1191,4.1191,4.1191,4.1191,4.1538,4.1994,4.1994,4.2349,4.2789,0.0,0.0,0.0,0.0,0.0,0.0,0.0,0.0,0.0,0.0,0.0,0.0,0.0,0.0,0.0,0.0,0.0,0.0,0.0,2.7556,2.751,2.8148,2.8436,2.9242,3.0636,3.1972,3.2878,3.3328,3.263,3.1915,3.1124,2.8997,2.8128,0.0,0.0,0.0,0.0,0.0,0.0,0.0,2.6434,2.6246,0.0,0.0,0.0,0.0,0.0,0.0,0.0,0.0,2.6458,2.6938,2.7133,2.7428,2.7706,2.7681,2.8017,2.8507,2.9223,3.1264,3.37,3.5777,3.6464,3.7667,4.1609,4.2421,4.2718,4.4065,4.4411,4.4422,4.4146,4.4627,4.5337,4.62,4.7719,4.8859,4.9017,4.9361,4.959,4.959,4.959,4.959,4.959,4.959,4.959,4.959,4.9766,4.9731,4.9487,4.675,4.5088,4.4882,4.1907,4.043,4.0723,4.0723,4.0879,4.1191,4.1191,4.1191,4.1191,4.1191,4.1191,4.1191,4.1191,4.1191,4.1191,4.1191,4.1191,4.1191,4.1191,4.1191,4.1191,4.1191,4.1191,4.1191,0.0,0.0,0.0,0.0,0.0,0.0,0.0,0.0,0.0,0.0,0.0,0.0,0.0,0.0,0.0,0.0,0.0,0.0,2.7591,2.6868,2.6983,2.8235,2.8238,2.908,3.094,3.2434,3.3574,3.4301,3.3342,3.2078,3.0483,2.905,0.0,0.0,0.0,0.0,0.0,0.0,0.0,0.0,2.7057,2.7003,2.7189,0.0,0.0,0.0,0.0,0.0,0.0,0.0,2.7081,2.7797,2.7803,2.7686,2.7591,2.798,2.8821,2.9895,3.1226,3.1314,3.2008,3.5926,3.6194,3.6697,4.1435,4.1271,4.1155,4.4753,4.4982,4.4777,4.5638,4.5595,4.5899,4.7259,4.8237,4.8978,4.9531,4.959,4.959,4.959,4.959,4.959,4.959,4.959,4.959,4.9574,5.006,4.9512,4.7587,4.6643,4.5296,4.3366,4.1937,4.1191,4.1191,4.1191,4.1191,4.1191,4.1191,4.1191,4.1191,4.1191,4.1191,4.1191,4.1191,4.1191,4.1191,4.1191,4.1191,4.1191,4.1191,4.1191,4.1191,4.1191,4.1191,4.1191,0.0,0.0,0.0,0.0,0.0,0.0,0.0,0.0,0.0,0.0,0.0,0.0,0.0,0.0,0.0,0.0,0.0,0.0,2.7529,2.7782,2.7846,2.769,2.8829,2.9726,3.0295,3.1945,3.3113,3.3794,3.2691,3.1636,3.0612,0.0,0.0,0.0,0.0,0.0,0.0,0.0,0.0,0.0,2.7179,2.6684,2.6295,0.0,0.0,0.0,0.0,0.0,0.0,0.0,0.0,0.0,2.7746,2.8586,2.9331,2.8212,2.9039,3.0185,2.9759,3.251,3.5644,3.6268,3.8892,4.1674,4.3022,4.2868,4.3115,4.5574,4.62,4.6218,4.5863,4.6891,4.7727,4.7536,4.8546,4.943,4.9581,4.959,4.959,4.959,4.959,4.959,4.959,4.959,4.918,4.8205,4.8274,4.7844,4.6659,4.5052,4.4071,4.3886,4.2136,4.1191,4.1191,4.1191,4.1191,4.1191,4.1191,4.1191,4.1191,4.1191,4.1191,4.1191,4.1191,4.1191,4.1191,4.1191,4.1191,4.1191,4.1191,4.1191,4.1191,4.1191,4.1191,4.1191,0.0,0.0,0.0,0.0,0.0,0.0,0.0,0.0,3.3443,3.3358,3.2801,3.2337,0.0,0.0,0.0,2.9739,2.9672,0.0,2.7799,2.8619,2.899,2.8593,3.0206,3.1265,3.1618,3.2621,3.2884,3.2405,3.1473,3.0598,2.9842,0.0,0.0,0.0,0.0,0.0,0.0,0.0,0.0,0.0,2.748,2.6978,2.6406,0.0,0.0,0.0,0.0,0.0,0.0,0.0,0.0,0.0,2.7866,2.8636,2.9398,2.9029,2.9876,3.1174,3.2185,3.4729,3.7456,3.909,4.1376,4.353,4.4763,4.463,4.468,4.6281,4.6873,4.7078,4.6999,4.7974,4.8705,4.8373,4.9051,4.959,4.959,4.959,4.959,4.959,4.959,4.959,4.959,4.9099,4.8415,4.7563,4.7188,4.6411,4.5107,4.4148,4.341,4.2961,4.1811,4.1191,4.1191,4.1191,4.1191,4.1191,4.1191,4.1191,4.1191,4.1191,4.1191,4.1191,4.1191,4.1191,4.1191,4.1191,4.1191,4.1191,4.1191,4.1191,4.1191,4.1191,4.1191,4.1191,0.0,0.0,0.0,0.0,0.0,0.0,0.0,3.3636,3.3177,3.3435,3.2719,3.21,0.0,0.0,0.0,2.9776,2.9827,2.9462,2.8406,2.9387,3.0184,3.0571,3.2075,3.3327,3.429,3.4018,3.2881,3.0804,3.0175,2.945,0.0,0.0,0.0,0.0,0.0,0.0,0.0,0.0,0.0,0.0,0.0,2.7631,2.7194,2.6342,0.0,0.0,0.0,0.0,0.0,0.0,0.0,0.0,2.7969,2.8089,2.8515,2.9954,3.1073,3.2708,3.6638,3.7419,3.8318,4.3141,4.3525,4.3499,4.6431,4.6386,4.5999,4.6973,4.7224,4.7566,4.8601,4.8843,4.9028,4.9515,4.959,4.959,4.959,4.959,4.959,4.959,4.9461,4.9348,4.9398,4.8114,4.7219,4.7102,4.6383,4.5117,4.3206,4.3565,4.3037,4.1269,4.1191,4.1191,4.1191,4.1191,4.1191,4.1191,4.1191,4.1191,4.1191,4.1191,4.1191,4.1191,4.1191,4.1191,4.1191,4.1191,4.1191,4.1191,4.1191,4.1191,4.1191,4.1191,4.1191,4.1191,0.0,0.0,0.0,0.0,0.0,0.0,3.3187,3.3051,3.2703,3.1856,3.1824,3.1636,3.1037,3.0793,0.0,2.9267,3.0135,3.0345,2.9348,2.9752,3.0575,3.1848,3.3461,3.4814,3.5791,3.4454,3.3257,3.2235,3.0955,2.9917,0.0,0.0,0.0,0.0,0.0,0.0,0.0,0.0,0.0,0.0,0.0,2.7833,2.7133,2.7031,2.6568,0.0,0.0,0.0,0.0,0.0,0.0,0.0,2.7012,2.8042,2.9352,2.8856,3.145,3.4606,3.5178,3.8301,4.1661,4.2752,4.4548,4.625,4.6943,4.7239,4.7456,4.7666,4.8109,4.8501,4.8752,4.9129,4.948,4.9565,4.959,4.959,4.959,4.959,4.959,4.959,4.8289,4.7562,4.7911,4.6344,4.4988,4.4253,4.4035,4.3254,4.1729,4.1771,4.1637,4.1211,4.1191,4.1191,4.1191,4.1191,4.1191,4.1191,4.1191,4.1191,4.1191,4.1191,4.1191,4.1191,4.1191,4.1191,4.1191,4.1191,4.1191,4.1191,4.1191,4.1191,4.1191,4.1191,4.1191,4.1191,0.0,0.0,0.0,0.0,0.0,0.0,0.0,0.0,3.22,3.1644,3.1693,3.1604,3.1273,3.1199,0.0,0.0,3.1147,3.1453,3.0534,3.1074,3.218,3.3822,3.5094,3.5898,3.6183,3.4371,3.2962,3.209,3.1006,0.0,0.0,0.0,0.0,0.0,0.0,0.0,0.0,0.0,0.0,0.0,0.0,0.0,0.0,2.6847,2.6469,2.6196,2.6769,0.0,0.0,0.0,0.0,0.0,0.0,0.0,2.917,2.9627,3.1905,3.4829,3.7416,4.0258,4.2831,4.4377,4.593,4.7174,4.7425,4.7933,4.8385,4.8661,4.8752,4.8894,4.9129,4.9405,4.959,4.959,4.959,4.959,4.959,4.959,4.959,4.959,4.8969,4.8249,4.7556,4.6223,4.4838,4.3399,4.2679,4.1974,4.123,4.1191,4.1191,4.1191,4.1191,4.1191,4.1191,4.1191,4.1191,4.1191,4.1191,4.1191,4.1191,4.1191,4.1191,4.1191,4.1191,4.1191,4.1191,4.1191,4.1191,4.1191,4.1191,4.1191,4.1191,4.1191,4.1191,4.1191,0.0,0.0,0.0,0.0,0.0,0.0,0.0,0.0,0.0,3.1796,3.1764,3.1752,3.1732,3.1707,3.1587,0.0,0.0,0.0,3.1806,3.2883,3.4026,3.5049,3.614,3.6493,3.5961,3.4186,3.2732,3.1641,3.1048,0.0,0.0,0.0,0.0,0.0,0.0,0.0,0.0,0.0,0.0,0.0,0.0,0.0,0.0,0.0,0.0,2.6475,2.6459,2.7101,2.7933,2.7557,0.0,0.0,0.0,0.0,2.8799,3.0794,3.2431,3.4667,3.9712,4.1729,4.3171,4.6426,4.7249,4.7375,4.7933,4.8526,4.9053,4.9515,4.9254,4.9079,4.9515,4.959,4.959,4.959,4.959,4.9615,4.9715,4.9741,4.9766,4.9866,4.9702,4.8976,4.7414,4.6037,4.4589,4.3044,4.1861,4.1191,4.1191,4.1191,4.1366,4.1695,4.1715,4.1715,4.1715,4.1715,4.1521,4.1191,4.1191,4.1191,4.1191,4.1191,4.1191,4.1191,4.1191,4.1191,4.1191,4.1191,4.1191,4.1191,4.1191,4.1191,4.1191,4.1191,4.1191,4.1191,0.0,0.0,0.0,0.0,0.0,0.0,0.0,0.0,0.0,0.0,3.152,3.1824,3.1474,3.1637,3.1679,3.1387,3.225,3.2904,3.3202,0.0,0.0,3.3073,3.5279,3.616,3.5342,3.4435,3.3508,3.2608,3.2077,0.0,0.0,0.0,0.0,0.0,0.0,0.0,0.0,0.0,0.0,0.0,0.0,0.0,0.0,0.0,0.0,0.0,0.0,0.0,2.7077,2.6581,2.6924,0.0,0.0,0.0,2.9095,3.0489,3.3096,3.5801,3.7077,4.0235,4.3894,4.7024,4.7792,4.7958,4.8551,4.9104,4.9515,4.9606,4.954,4.9531,4.9606,4.959,4.959,4.959,4.959,4.9766,5.0226,5.0302,5.0494,5.1013,4.8204,4.6282,4.6352,4.3266,4.1315,4.148,4.1307,4.1191,4.1191,4.1191,4.1985,4.3663,4.3699,4.3699,4.3699,4.3699,4.2865,4.1191,4.1191,4.1191,4.1191,4.1191,4.1191,4.1191,4.1191,4.1191,4.1191,4.1191,4.1191,4.1191,4.1191,4.1191,4.1191,4.1191,4.1191,4.1191,0.0,0.0,0.0,0.0,0.0,0.0,0.0,0.0,0.0,0.0,0.0,3.2369,3.2188,3.2654,3.2806,3.2351,3.3261,3.3757,3.3472,3.4969,3.5076,3.3284,3.4807,3.5304,3.4478,3.3588,3.2837,3.2168,0.0,0.0,0.0,3.1634,3.1708,0.0,0.0,0.0,0.0,0.0,0.0,0.0,0.0,0.0,0.0,0.0,0.0,0.0,0.0,0.0,0.0,0.0,2.7144,2.7814,2.7437,0.0,0.0,0.0,3.2646,3.5487,3.8766,4.1923,4.4908,4.7693,4.8159,4.8058,4.8652,4.9204,4.959,4.959,4.9841,4.9967,4.9665,4.9843,5.0052,5.0051,5.0318,5.0636,5.087,4.9923,4.9317,4.9577,4.7428,4.558,4.4653,4.3337,4.2148,4.1269,4.1191,4.1191,4.1191,4.2234,4.3228,4.4077,4.4115,4.4115,4.4115,4.3018,4.2062,4.1191,4.1191,4.1191,4.1191,4.1191,4.1191,4.1191,4.1191,4.1191,4.1191,4.1191,4.1191,4.1191,4.1191,4.1191,4.1191,4.1191,4.1191,4.1191,0.0,0.0,0.0,0.0,0.0,0.0,0.0,0.0,0.0,0.0,0.0,3.2848,3.2888,0.0,0.0,0.0,3.4068,3.4167,3.311,3.4203,3.438,3.3346,3.3919,3.4064,3.3523,3.2673,3.2037,3.1603,0.0,0.0,3.1503,3.1482,3.1564,0.0,3.0484,0.0,0.0,0.0,0.0,0.0,0.0,3.0857,0.0,0.0,0.0,0.0,0.0,0.0,0.0,0.0,0.0,0.0,0.0,0.0,0.0,0.0,0.0,3.5142,3.987,4.2319,4.4303,4.7288,4.7815,4.785,4.8793,4.9305,4.959,4.959,5.0026,5.0269,4.9891,5.0253,5.0571,5.0411,5.0896,5.1172,5.0802,4.9455,4.8387,4.8018,4.6604,4.5087,4.3627,4.3418,4.2771,4.1308,4.1657,4.1946,4.1946,4.3796,4.4846,4.4846,4.4846,4.4602,4.4115,4.2157,4.1443,4.1927,4.1424,4.1191,4.1191,4.1191,4.1191,4.1191,4.1191,4.1191,4.1191,4.1191,4.1191,4.1191,4.1191,4.1191,4.1191,4.1191,4.1191,4.1269,0.0,0.0,0.0,0.0,0.0,0.0,0.0,0.0,0.0,0.0,0.0,3.304,3.3173,3.3949,3.4295,3.3796,3.4107,3.3677,3.2161,3.2547,3.2648,3.2213,3.2301,0.0,3.2492,3.1987,3.1603,0.0,0.0,0.0,3.1503,3.1358,3.1737,3.2422,3.172,3.0875,2.9981,0.0,0.0,0.0,0.0,0.0,0.0,0.0,0.0,0.0,0.0,0.0,0.0,0.0,0.0,0.0,0.0,0.0,0.0,0.0,0.0,0.0,3.804,3.9213,4.069,4.4906,4.6357,4.7263,4.9126,4.9581,4.959,4.959,5.0036,5.0388,5.0361,5.0845,5.1071,5.0503,5.0896,5.0819,4.9405,4.9105,4.8574,4.7222,4.5379,4.4167,4.4073,4.2426,4.1308,4.1211,4.2903,4.3945,4.3945,4.5775,4.6845,4.6845,4.6845,4.5961,4.4134,4.2157,4.2119,4.3926,4.208,4.1191,4.1191,4.1191,4.1191,4.1191,4.1191,4.1191,4.1191,4.1191,4.1191,4.1191,4.1191,4.1191,4.1191,4.1191,4.1191,4.1463,0.0,0.0,0.0,0.0,0.0,0.0,0.0,0.0,0.0,0.0,0.0,0.0,0.0,0.0,0.0,0.0,3.3745,3.3091,3.2054,3.2713,3.2828,3.2133,3.2494,3.2551,3.2206,3.1858,0.0,0.0,0.0,3.0991,3.1358,3.1424,3.1492,3.1553,3.0677,3.045,3.0608,2.8641,0.0,0.0,0.0,0.0,0.0,0.0,0.0,0.0,0.0,0.0,0.0,0.0,0.0,0.0,0.0,0.0,0.0,0.0,3.4583,3.596,3.7981,3.8974,4.0311,4.4082,4.5875,4.6969,4.8011,4.9215,5.0101,5.0101,5.0561,5.0988,5.0971,5.1431,5.1721,5.154,5.1958,5.2121,5.1617,4.9357,4.7554,4.7061,4.5295,4.3625,4.2369,4.2751,4.3056,4.3056,4.3699,4.464,4.5886,4.6606,4.7577,4.8884,4.6459,4.4209,4.2254,4.154,4.154,4.2234,4.1521,4.1191,4.1191,4.1191,4.1191,4.1191,4.1191,4.1191,4.1191,4.1191,4.1191,4.1191,4.1191,4.1191,4.1366,4.2598,4.3056,4.3321,0.0,0.0,0.0,0.0,0.0,0.0,0.0,0.0,0.0,0.0,0.0,0.0,0.0,0.0,0.0,0.0,3.351,3.2799,3.2261,3.2754,3.284,3.2296,3.2399,3.237,3.2153,3.1752,0.0,0.0,0.0,0.0,0.0,0.0,3.1136,3.1116,3.0066,0.0,0.0,0.0,0.0,2.8062,0.0,0.0,3.6802,0.0,0.0,0.0,0.0,0.0,0.0,0.0,0.0,0.0,0.0,0.0,0.0,0.0,0.0,0.0,3.7588,3.8524,3.9888,4.3088,4.4525,4.5657,4.7623,4.8699,4.9499,5.0252,5.087,5.1289,5.1289,5.1906,5.2304,5.2142,5.2561,5.2456,5.111,4.865,4.6514,4.5201,4.3928,4.2617,4.1327,4.2961,4.4115,4.4115,4.5332,0.0,4.7922,4.8632,4.8974,4.8992,4.5812,4.3775,4.3151,4.2503,4.2847,4.4136,4.2809,4.2157,4.2138,4.1502,4.1191,4.125,4.1888,4.2157,4.2157,4.2157,4.256,4.3096,4.2427,4.256,4.3151,4.3132,4.3549,4.4264,0.0,0.0,0.0,0.0,0.0,0.0,0.0,0.0,0.0,0.0,0.0,0.0,0.0,0.0,0.0,0.0,3.3495,3.2896,3.274,3.2537,3.2473,3.2594,3.19,3.1746,3.2191,0.0,0.0,0.0,0.0,0.0,0.0,0.0,3.0624,0.0,3.0085,2.9779,2.9951,0.0,2.7998,2.8295,0.0,3.662,3.6107,0.0,0.0,0.0,3.9414,3.8577,0.0,0.0,0.0,0.0,0.0,0.0,0.0,0.0,0.0,0.0,0.0,0.0,0.0,4.1749,4.2237,4.33,4.7912,4.7958,4.7651,4.99,5.082,5.1239,5.1339,5.2201,5.2737,5.2209,5.2561,5.1572,4.7704,4.7065,4.5593,4.1811,4.1327,4.1288,4.1288,4.3037,4.4207,4.4264,4.7831,5.0014,5.0068,5.1869,5.1075,4.7029,4.5201,4.5127,4.69,4.5052,4.6035,4.9783,4.5868,4.4021,4.3945,4.2062,4.123,4.1385,4.3283,4.4172,4.4264,4.4207,4.5313,4.6809,4.4921,4.5351,4.6533,4.2751,4.258,4.423,0.0,0.0,0.0,0.0,0.0,3.4844,3.5651,3.5045,0.0,0.0,0.0,0.0,0.0,0.0,0.0,0.0,3.4835,3.4111,3.3529,3.3249,3.2982,3.2632,3.2396,3.2187,0.0,0.0,0.0,0.0,0.0,0.0,0.0,0.0,0.0,0.0,2.9689,2.928,2.868,2.7932,0.0,0.0,3.3759,3.6237,0.0,0.0,0.0,0.0,0.0,4.3454,0.0,0.0,4.133,3.8474,0.0,0.0,0.0,0.0,0.0,0.0,3.605,0.0,0.0,0.0,0.0,0.0,4.342,4.4554,4.6035,4.8702,4.938,5.0108,5.2084,5.2711,5.2845,5.2711,5.2795,5.2525,5.1408,4.8794,4.6588,4.5518,4.4153,4.3302,4.3302,4.5052,4.679,0.0,4.9391,5.0604,5.2032,5.2611,5.0428,4.5071,4.7157,4.7248,4.4921,4.4358,4.464,4.5701,4.3209,4.2004,4.1985,4.1443,4.1985,4.3321,4.3869,4.572,4.8248,4.679,4.6514,4.6937,4.6404,4.6514,4.6864,4.5797,4.594,4.6916,0.0,0.0,3.4087,3.45,3.5072,3.5695,3.6408,3.6087,0.0,0.0,0.0,0.0,0.0,0.0,0.0,0.0,3.5943,3.5323,3.4604,3.416,3.3557,3.271,3.2513,3.2202,3.1753,0.0,0.0,0.0,0.0,0.0,0.0,0.0,0.0,0.0,0.0,0.0,0.0,0.0,0.0,0.0,3.4188,0.0,0.0,4.2671,4.5044,0.0,0.0,0.0,4.464,4.6472,4.4198,0.0,0.0,0.0,0.0,0.0,0.0,0.0,0.0,0.0,0.0,0.0,0.0,0.0,4.3192,4.4025,4.5321,4.9079,4.9631,4.9967,5.1557,5.2059,5.2234,5.2234,5.2217,5.2101,5.175,4.9712,4.7631,4.5979,4.5518,4.4996,4.4191,4.6606,4.874,4.9908,5.0752,5.1712,5.2843,5.2895,5.0945,4.6698,4.8794,4.8884,4.6588,4.6551,4.6974,4.774,4.5797,4.4867,4.4849,4.4004,4.4228,4.5369,4.6201,4.8004,5.0312,4.993,4.9669,4.9325,4.7863,4.7784,4.8337,4.6934,4.7106,4.8213,0.0,0.0,3.4562,3.561,3.6229,3.6744,3.7278,3.749,3.7565,0.0,0.0,0.0,0.0,0.0,0.0,0.0,0.0,3.6372,3.5774,3.5039,3.4088,3.2853,3.2495,3.2064,3.1518,3.1563,0.0,0.0,0.0,0.0,0.0,0.0,0.0,0.0,2.8372,2.8212,2.8303,2.8076,0.0,2.8606,3.5365,3.7783,0.0,0.0,4.5402,0.0,4.6489,4.6031,4.517,4.8844,4.7395,0.0,0.0,0.0,0.0,0.0,3.6267,0.0,0.0,0.0,0.0,0.0,0.0,0.0,0.0,4.4381,4.4612,4.9229,4.9816,4.9516,4.967,5.0229,5.0647,5.0547,5.0805,5.0845,5.0317,5.0037,4.8619,4.5168,4.6085,4.6418,4.4896,4.7927,5.0092,5.0304,5.1921,5.2895,5.2895,5.2895,5.2008,5.0074,5.0216,5.0233,4.9997,4.9997,5.0875,5.256,5.0587,4.9677,4.9605,4.7836,4.7165,4.7521,4.9318,5.0526,5.1327,5.2819,5.3176,5.2429,4.9322,4.9172,5.0284,4.6852,4.699,4.8918,3.381,3.3886,3.4296,3.5573,3.6503,3.7641,3.9393,3.883,0.0,0.0,0.0,0.0,0.0,0.0,0.0,0.0,0.0,0.0,3.6515,3.5158,3.3912,3.2846,3.2927,3.2527,3.1511,3.2026,3.1676,0.0,0.0,0.0,0.0,0.0,0.0,0.0,0.0,2.7917,2.793,0.0,0.0,3.2855,3.5661,0.0,3.9893,4.4941,4.753,4.8548,4.8913,4.9096,4.9005,0.0,4.6952,4.5086,0.0,0.0,0.0,0.0,0.0,0.0,0.0,0.0,0.0,0.0,0.0,0.0,0.0,3.9335,4.0764,4.2838,4.3539,4.413,4.521,4.6175,4.6552,4.5859,4.7837,4.9955,5.1468,5.0293,4.9177,4.8867,4.7745,4.7487,4.8734,4.9557,5.0651,5.2221,5.268,5.2895,5.2895,5.2895,5.2008,5.0074,5.1513,5.1565,5.0014,4.9997,5.0198,5.0534,4.8542,4.7577,4.7558,4.7175,4.8114,5.0075,5.0453,5.1872,5.3758,5.2387,5.1789,5.1645,5.0951,5.0901,5.0778,4.6867,4.8033,5.133,3.4046,3.4363,3.5111,3.6646,3.7544,3.8667,4.0405,4.007,0.0,0.0,0.0,0.0,0.0,0.0,0.0,0.0,0.0,0.0,0.0,3.5323,3.399,3.3031,3.2916,3.2539,3.1864,3.2206,3.1879,3.081,0.0,0.0,0.0,0.0,0.0,0.0,0.0,0.0,0.0,0.0,3.1422,3.4089,3.7298,0.0,4.2682,4.6774,4.8879,4.9602,4.9595,4.9938,5.015,4.8632,4.7415,0.0,0.0,4.3672,4.254,0.0,3.8327,3.9182,0.0,0.0,0.0,3.8002,0.0,0.0,0.0,0.0,4.0411,4.2877,4.2853,4.2706,4.3651,4.4085,4.4144,4.3686,4.6206,4.8289,4.8534,4.9981,5.0754,5.0073,4.9979,4.9963,5.0,5.0884,5.1852,5.2834,5.2895,5.2895,5.2895,5.2895,5.2456,5.1478,5.2379,5.2439,5.1443,5.1443,5.1443,5.1425,5.041,5.0086,5.0342,5.0342,5.1207,5.2695,5.2695,5.3575,5.491,5.3828,5.2949,5.21,5.0792,5.0245,5.0043,4.8331,4.9175,5.101,3.4178,3.4856,3.6014,3.749,3.8567,3.9619,4.0877,4.1033,0.0,0.0,0.0,0.0,0.0,0.0,0.0,0.0,0.0,0.0,0.0,0.0,3.4615,3.3606,3.3012,3.2609,3.2406,3.2332,3.1938,3.1183,0.0,0.0,0.0,0.0,0.0,0.0,0.0,0.0,0.0,0.0,0.0,3.5797,0.0,4.2151,4.4221,4.7773,4.9173,4.9303,4.9647,4.9965,5.0092,4.9067,0.0,4.7235,4.7018,4.5834,0.0,0.0,0.0,0.0,0.0,0.0,0.0,0.0,0.0,3.8994,0.0,0.0,0.0,0.0,0.0,0.0,0.0,4.1805,4.1475,4.1351,4.3976,0.0,0.0,4.8287,0.0,4.938,5.1378,5.2093,5.0004,5.0998,5.2088,5.2836,5.2301,5.2224,5.2853,5.2895,5.2895,5.2895,5.2895,5.2895,5.2895,5.2895,5.2895,5.2895,5.2995,5.3289,5.3708,5.3808,5.4202,5.4748,5.4748,5.5056,5.5487,5.4675,5.362,5.2329,5.0555,4.9631,4.9272,4.9365,4.9635,4.9928,3.3242,3.458,3.5933,3.6716,3.8536,4.0208,4.1124,4.1351,0.0,0.0,0.0,0.0,0.0,0.0,0.0,0.0,0.0,0.0,3.8715,0.0,0.0,3.495,3.3902,3.3326,3.3164,3.2585,3.1759,3.0672,3.0776,0.0,0.0,0.0,0.0,0.0,3.2414,0.0,0.0,0.0,3.7923,0.0,4.1848,4.1542,0.0,4.5772,4.7676,4.8293,4.9778,5.0033,4.9563,0.0,4.8348,4.7744,0.0,4.6356,0.0,0.0,0.0,0.0,0.0,0.0,0.0,0.0,3.9969,0.0,0.0,0.0,0.0,0.0,0.0,0.0,0.0,0.0,0.0,0.0,0.0,0.0,4.1104,4.3616,4.5666,4.6285,5.0232,5.1891,4.9292,4.8191,4.9126,5.264,5.0149,4.9762,5.2734,5.2895,5.2895,5.2895,5.2895,5.2895,5.2895,5.2895,5.2895,5.2895,5.3364,5.3632,5.3708,5.4253,5.478,5.5308,5.5308,5.5616,5.5819,5.213,5.0504,5.0491,5.2039,5.152,4.9685,4.7842,4.8379,4.9713,3.2572,3.4062,0.0,3.6439,3.8052,3.9694,4.1103,4.2388,0.0,0.0,0.0,0.0,0.0,0.0,0.0,0.0,0.0,4.1088,0.0,0.0,0.0,0.0,3.4163,3.3608,3.2971,3.2707,3.2097,3.1119,3.0704,0.0,0.0,0.0,0.0,0.0,3.4256,0.0,3.6943,0.0,0.0,0.0,0.0,0.0,0.0,4.6968,4.8957,4.9035,5.004,5.0256,5.0083,0.0,4.9223,0.0,0.0,0.0,0.0,0.0,0.0,0.0,0.0,0.0,0.0,0.0,0.0,0.0,0.0,0.0,3.8677,0.0,0.0,0.0,0.0,0.0,0.0,0.0,0.0,0.0,0.0,0.0,4.4063,0.0,0.0,0.0,4.8572,4.7953,4.9142,5.3057,4.9972,4.9511,5.3169,5.3063,5.2895,5.2895,5.2895,5.2895,5.2895,5.2895,5.3063,5.3364,5.3607,5.4059,5.4705,5.4956,5.5358,5.5867,5.5867,5.5993,5.6047,5.433,5.3613,5.3688,5.4553,5.2892,4.9892,4.8991,4.9224,4.9674,3.2374,0.0,0.0,3.6057,3.7679,3.9459,4.1017,4.2454,0.0,0.0,0.0,0.0,4.6087,4.4908,0.0,0.0,0.0,4.2289,0.0,0.0,3.7679,0.0,0.0,0.0,0.0,3.3171,3.2359,3.1638,3.1036,3.0893,0.0,0.0,0.0,0.0,0.0,3.8178,4.0351,0.0,0.0,4.246,4.2629,4.3216,4.4421,4.8245,4.9866,5.0134,5.0519,5.0645,5.0686,5.0869,4.9881,0.0,5.1099,0.0,0.0,0.0,0.0,0.0,4.0346,0.0,0.0,0.0,0.0,0.0,0.0,0.0,0.0,0.0,0.0,0.0,0.0,0.0,0.0,0.0,0.0,0.0,0.0,0.0,0.0,0.0,0.0,0.0,0.0,4.5961,4.7079,5.19,0.0,4.8687,5.3244,5.3239,5.3063,5.2895,5.2895,5.297,5.3113,5.3113,5.3389,5.3934,5.4084,5.4587,5.539,5.5541,5.5842,5.62,5.62,5.62,5.6164,5.5582,5.5004,5.4497,5.4497,5.23,4.9185,4.9772,4.9263,4.8062,3.2894,3.4791,0.0,3.5365,3.7605,3.9844,4.094,0.0,0.0,0.0,0.0,0.0,0.0,0.0,0.0,0.0,0.0,4.5189,4.3003,0.0,4.0801,0.0,0.0,0.0,0.0,0.0,3.2352,3.1972,3.1907,3.2398,3.3472,0.0,0.0,0.0,0.0,4.0003,4.0715,4.2629,4.536,4.8324,4.7168,4.8452,5.0854,0.0,4.9339,5.1239,5.1264,0.0,0.0,5.0332,4.9998,0.0,0.0,0.0,0.0,0.0,0.0,0.0,0.0,0.0,0.0,4.0433,0.0,0.0,0.0,0.0,3.924,0.0,0.0,0.0,0.0,0.0,0.0,0.0,0.0,0.0,0.0,0.0,0.0,0.0,0.0,0.0,0.0,0.0,0.0,0.0,4.5598,0.0,5.2607,5.3389,5.3457,5.2937,5.2895,5.3163,5.3683,5.3683,5.3976,5.4572,5.5107,5.534,5.5433,5.5942,5.6175,5.62,5.62,5.62,5.6029,5.4025,5.2014,5.0181,5.0181,4.8831,4.7146,4.9224,4.7406,4.3877,0.0,0.0,0.0,3.5972,3.7181,3.8714,4.0554,4.1386,0.0,0.0,0.0,0.0,0.0,0.0,4.6982,0.0,0.0,4.6502,4.5609,4.3657,0.0,0.0,0.0,3.7351,0.0,0.0,3.4452,3.3271,3.3245,3.3433,3.379,3.3691,3.4723,0.0,0.0,4.1882,0.0,0.0,0.0,0.0,0.0,4.8214,4.9879,0.0,0.0,5.0847,5.1573,5.1825,0.0,5.19,5.1328,5.0767,5.1757,5.0477,4.8781,4.9443,4.8648,0.0,0.0,0.0,4.6821,4.2688,0.0,0.0,0.0,0.0,0.0,0.0,0.0,0.0,0.0,0.0,0.0,0.0,0.0,0.0,0.0,0.0,0.0,0.0,0.0,0.0,0.0,0.0,0.0,0.0,0.0,0.0,0.0,5.3482,5.3239,5.3414,5.3088,5.3163,5.3683,5.3708,5.4185,5.5132,5.5308,5.5609,5.5942,5.61,5.62,5.62,5.62,5.62,5.6164,5.5435,5.4745,5.41,5.41,5.1976,4.9008,4.9733,4.8201,4.5555,3.4402,0.0,0.0,3.6299,3.742,3.8845,0.0,0.0,0.0,0.0,4.5732,0.0,4.676,0.0,4.7478,0.0,4.7909,4.7119,4.6386,4.4894,0.0,4.3023,4.0973,0.0,0.0,0.0,0.0,0.0,0.0,3.5302,3.5436,3.5422,3.6302,3.7965,0.0,4.2697,4.5378,0.0,4.8103,0.0,0.0,4.9148,0.0,0.0,5.0312,5.0502,0.0,5.2385,5.2435,5.2787,5.232,5.1825,5.3028,5.1565,4.9654,5.0879,4.9932,4.833,4.7545,4.8281,0.0,4.4851,4.4591,0.0,4.0292,0.0,0.0,0.0,0.0,0.0,0.0,0.0,0.0,0.0,0.0,0.0,0.0,0.0,0.0,0.0,0.0,0.0,0.0,0.0,0.0,0.0,0.0,0.0,0.0,0.0,5.3339,5.3683,5.3188,5.3264,5.4009,5.4027,5.4561,5.5691,5.5691,5.5867,5.62,5.62,5.62,5.62,5.62,5.62,5.62,5.62,5.5772,5.517,5.5919,5.3194,4.8949,4.9713,4.8181,4.5495,0.0,0.0,0.0,0.0,3.8298,0.0,0.0,0.0,4.2994,0.0,4.5513,4.6128,4.7632,4.7664,4.7729,4.8201,4.808,0.0,4.5574,4.5376,0.0,0.0,4.3597,4.3367,4.5121,0.0,0.0,0.0,0.0,3.7908,3.8283,3.7842,3.8155,3.9184,4.0679,0.0,4.4829,4.6722,4.9006,5.1262,5.087,5.133,5.2227,5.1742,5.0903,5.0231,5.2194,5.2895,5.2895,5.2895,5.2895,5.2895,5.2895,5.2895,5.2895,5.2895,5.2895,5.2419,5.0249,4.9435,4.8724,4.6812,4.6084,0.0,0.0,0.0,4.3041,0.0,0.0,0.0,0.0,0.0,0.0,0.0,0.0,0.0,0.0,0.0,0.0,0.0,0.0,0.0,0.0,0.0,0.0,0.0,0.0,0.0,0.0,0.0,5.358,5.3733,5.3213,5.3482,5.4597,5.4597,5.5132,5.62,5.62,5.62,5.62,5.62,5.62,5.62,5.62,5.62,5.62,5.62,5.5041,5.3439,5.5435,5.2414,4.7166,4.9008,4.7146,4.3711,3.6313,3.7642,3.8852,0.0,3.9492,4.0368,0.0,0.0,0.0,0.0,4.6276,4.6784,4.7752,4.8227,4.8507,4.8628,4.8967,0.0,0.0,0.0,0.0,4.8663,4.6688,4.6176,4.7501,4.4811,0.0,4.2093,0.0,0.0,3.9526,3.8501,3.8572,3.9618,4.1235,4.304,4.4996,4.7026,4.9276,5.1471,5.1804,5.1465,0.0,0.0,5.117,5.0231,5.2194,5.2895,5.2895,5.2895,5.2895,5.2895,5.2895,5.2895,5.2895,5.2895,5.2895,5.2776,5.2182,5.197,5.1319,4.8875,4.796,4.6939,0.0,0.0,0.0,0.0,0.0,0.0,0.0,0.0,0.0,0.0,0.0,0.0,0.0,0.0,0.0,0.0,0.0,0.0,0.0,0.0,0.0,0.0,0.0,0.0,0.0,0.0,0.0,5.4285,5.3808,5.3858,5.4597,5.4597,5.5132,5.62,5.62,5.62,5.62,5.62,5.62,5.62,5.62,5.62,5.62,5.62,5.5882,5.5453,5.5992,5.3326,4.8851,4.6263,4.4638,4.3711,3.7883,0.0,0.0,4.0785,0.0,0.0,4.3121,0.0,0.0,4.6377,4.7148,0.0,4.8414,4.9324,4.9882,4.9882,5.0184,0.0,0.0,0.0,0.0,4.9679,4.9076,4.9015,4.9651,4.7815,0.0,4.464,0.0,0.0,4.0382,3.9335,3.9173,3.9777,4.1712,4.3264,4.4569,4.776,5.0161,5.1909,5.2738,0.0,0.0,5.3023,5.275,5.2169,5.3257,5.3482,5.3213,5.2988,5.3239,5.36,5.3344,5.3431,5.3628,5.3628,5.3628,5.3628,5.3628,5.3628,5.3227,5.1496,5.0872,4.9938,4.7251,4.7477,4.799,0.0,0.0,0.0,0.0,0.0,0.0,0.0,0.0,0.0,0.0,0.0,0.0,0.0,0.0,0.0,0.0,0.0,0.0,0.0,0.0,0.0,0.0,0.0,0.0,5.3098,5.2826,5.3377,5.4931,5.3992,5.454,5.6552,5.6301,5.62,5.62,5.62,5.62,5.62,5.62,5.62,5.62,5.62,5.62,5.6011,5.4218,5.1505,4.8208,4.4905,4.3711,4.3711,0.0,0.0,0.0,0.0,0.0,0.0,0.0,4.5143,0.0,4.7199,0.0,4.9038,4.9434,5.057,5.1289,5.1289,0.0,5.0836,4.9734,5.0696,5.0852,4.9801,5.0816,5.144,5.1515,5.0576,0.0,0.0,0.0,0.0,4.0889,4.0045,3.9716,3.9958,4.2117,4.3521,0.0,4.8751,5.1222,5.2392,5.3549,5.4296,5.4688,5.4678,5.4635,5.4597,5.4597,5.4253,5.3758,5.3289,5.3783,5.4507,5.3987,5.418,5.4617,5.459,5.4598,5.4598,5.4598,5.4598,5.4461,5.386,5.3693,5.3031,5.0518,5.0055,4.9996,4.9344,4.8616,4.8676,0.0,0.0,0.0,0.0,0.0,0.0,0.0,0.0,0.0,0.0,0.0,0.0,0.0,0.0,0.0,0.0,0.0,0.0,0.0,0.0,0.0,5.1803,5.1918,5.2946,5.5049,0.0,5.3957,5.6556,5.6303,5.62,5.62,5.62,5.62,5.62,5.62,5.62,5.62,5.62,5.6029,5.538,5.1228,4.8466,4.6553,4.4456,4.3711,4.3711,0.0,0.0,0.0,0.0,0.0,4.5791,4.6684,4.6986,4.7546,4.8672,4.9702,5.0474,5.0888,5.1153,5.1289,5.1289,5.1289,0.0,0.0,0.0,0.0,5.1623,5.185,5.2176,5.2611,5.1335,4.9559,0.0,0.0,0.0,4.0969,3.9886,3.983,4.0741,4.2208,4.4489,4.7406,4.9693,0.0,5.2418,5.396,5.4628,5.4687,5.4657,5.4628,5.4597,5.4597,5.4522,5.4446,5.4328,5.4429,5.4561,5.4487,5.4511,5.46,5.4615,5.4602,5.4602,5.4602,5.4602,5.4462,5.3853,5.3682,5.3449,5.2521,5.3031,5.366,5.355,5.4071,5.3808,5.1273,0.0,0.0,0.0,0.0,0.0,0.0,0.0,0.0,0.0,0.0,0.0,0.0,0.0,0.0,0.0,0.0,0.0,0.0,0.0,0.0,0.0,5.512,0.0,0.0,0.0,5.508,5.4292,5.558,5.62,5.62,5.62,5.62,5.62,5.62,5.62,5.62,5.62,5.517,5.3232,4.9069,4.7206,4.6624,4.4494,4.3711,4.3711,0.0,0.0,0.0,0.0,0.0,0.0,0.0,4.9337,4.9864,4.9628,5.0277,5.0819,5.1026,5.1687,5.2126,5.2126,5.2377,5.2528,5.2528,5.2846,5.2997,5.2929,5.2929,0.0,5.2895,5.2515,5.0723,4.7497,0.0,0.0,4.0978,4.0012,4.0051,4.1023,4.3609,4.6133,0.0,0.0,0.0,5.3195,5.4514,5.5234,5.5459,5.544,5.5433,5.5433,5.5433,5.5433,5.5358,5.4798,5.4956,5.539,5.5085,5.5204,5.5436,5.5428,5.5419,5.5419,5.5419,5.5419,5.5296,5.4725,5.4581,5.4371,5.3515,5.398,5.4598,5.4606,5.5234,5.4764,5.1407,4.6984,0.0,0.0,0.0,0.0,0.0,0.0,0.0,0.0,0.0,0.0,0.0,0.0,0.0,0.0,0.0,0.0,0.0,0.0,0.0,0.0,0.0,0.0,0.0,0.0,0.0,5.5893,5.6112,5.62,5.62,5.62,5.62,5.62,5.62,5.62,5.6127,5.5041,5.2698,4.9635,4.7625,4.6183,4.5128,4.4083,4.3711,4.3711,0.0,4.4924,0.0,0.0,4.7783,0.0,4.9558,5.108,5.1679,5.0437,5.0836,5.1195,5.108,5.2156,5.2895,5.2895,5.3289,5.3532,5.3532,5.3976,5.4027,5.3557,5.3532,5.3339,5.2895,5.3314,5.1765,0.0,0.0,0.0,4.1806,4.0517,4.0634,4.2039,4.5095,0.0,0.0,0.0,5.3377,5.4216,5.5185,5.5817,5.62,5.62,5.62,5.62,5.62,5.62,5.6068,5.5232,5.5491,5.6118,5.5706,5.5846,5.62,5.62,5.62,5.62,5.62,5.62,5.6077,5.5541,5.54,5.513,5.4117,5.4449,5.4895,5.4791,5.5191,5.4582,5.1385,4.8707,0.0,0.0,0.0,0.0,0.0,0.0,0.0,0.0,0.0,0.0,0.0,0.0,0.0,0.0,0.0,0.0,0.0,0.0,0.0,0.0,0.0,5.4353,5.5447,0.0,5.5448,5.7012,5.6441,5.62,5.62,5.62,5.62,5.62,5.62,5.5937,5.5343,5.2817,4.9811,4.6766,4.6304,4.5149,4.3711,4.3711,4.3711,4.3711,0.0,0.0,0.0,0.0,0.0,0.0,4.9621,5.108,5.1875,5.1245,5.2077,5.2514,5.2026,5.2521,5.2895,5.2895,5.2962,5.297,5.297,5.3038,5.3038,5.2988,5.297,5.2945,5.2895,5.2945,5.2042,0.0,0.0,0.0,0.0,4.1601,4.203,4.5272,0.0,0.0,0.0,5.2666,5.3825,5.5304,5.5885,5.6168,5.62,5.62,5.62,5.62,5.62,5.62,5.6175,5.6075,5.61,5.6175,5.6143,5.6168,5.62,5.62,5.62,5.62,5.62,5.62,5.6077,5.5541,5.5405,5.5244,5.4655,5.5317,5.5908,5.5437,5.5744,5.5027,5.1462,5.1568,5.0888,0.0,0.0,0.0,0.0,0.0,0.0,0.0,0.0,0.0,0.0,0.0,0.0,0.0,3.9223,0.0,0.0,0.0,0.0,5.2862,0.0,5.2774,5.0419,5.514,5.6352,5.4114,5.5543,5.62,5.62,5.62,5.62,5.62,5.62,5.5115,5.3081,4.9047,4.7187,4.6687,4.476,4.3856,4.3711,4.3711,4.3711,4.3711,0.0,0.0,0.0,0.0,0.0,0.0,0.0,5.2178,5.2385,5.185,5.2435,5.2837,5.2611,5.2787,5.2895,5.2895,5.3188,5.3364,5.3364,5.3708,5.3758,5.3389,5.3364,5.3239,5.2895,5.3213,5.241,0.0,0.0,0.0,0.0,4.3727,4.4805,4.799,0.0,5.1294,5.3036,5.4324,5.5278,5.5892,5.61,5.62,5.62,5.62,5.62,5.62,5.62,5.62,5.62,5.62,5.62,5.62,5.62,5.62,5.62,5.62,5.62,5.62,5.62,5.62,5.6157,5.5929,5.5867,5.5744,5.5191,5.5664,5.6141,5.5904,5.6319,5.6241,5.4789,5.2939,5.1782,5.2213,0.0,0.0,0.0,0.0,0.0,0.0,0.0,0.0,0.0,0.0,0.0,0.0,0.0,0.0,0.0,0.0,0.0,4.9375,0.0,5.4469,5.1772,5.5478,5.6781,5.5682,5.6024,5.62,5.62,5.62,5.5527,5.4348,5.4348,5.2452,4.9246,4.7506,4.6082,4.4883,4.4021,4.3711,4.3711,4.3711,4.3711,4.3711,5.0281,0.0,5.0028,0.0,5.1256,5.1175,5.2471,5.2644,5.2536,5.2151,5.2561,5.2837,5.2686,5.2812,5.2895,5.2895,5.3239,5.3464,5.3464,5.4027,5.4152,5.3708,5.3858,0.0,5.3163,5.3683,5.3206,5.1624,4.9791,0.0,0.0,4.6511,4.7604,0.0,5.2179,5.3393,5.4235,5.5616,5.62,5.62,5.62,5.62,5.62,5.62,5.62,5.62,5.62,5.62,5.62,5.62,5.62,5.62,5.62,5.62,5.62,5.62,5.62,5.62,5.62,5.62,5.62,5.62,5.62,5.6095,5.5726,5.6054,5.6503,5.6663,5.7,5.7255,5.7255,5.4853,5.3388,5.4929,0.0,0.0,0.0,0.0,0.0,0.0,0.0,0.0,0.0,0.0,0.0,0.0,0.0,0.0,0.0,0.0,0.0,0.0,0.0,0.0,5.285,5.5606,5.691,5.6778,5.6376,5.62,5.62,5.62,5.506,5.3081,5.2452,5.0161,4.6827,4.6163,4.5026,4.3711,4.3711,4.3711,4.3711,4.3711,4.3711,4.3711,5.1756,5.1595,5.1606,5.2683,5.2009,5.1462,5.2035,5.2126,5.2126,5.2101,5.2561,5.2711,5.2176,5.2586,5.2895,5.2895,5.2895,5.2895,5.2895,5.3414,5.3708,0.0,0.0,5.4321,5.3708,5.4278,5.4572,5.4547,0.0,0.0,5.2746,4.9963,5.0168,5.2841,5.2346,5.3607,5.6168,5.6194,5.62,5.62,5.62,5.62,5.62,5.62,5.62,5.62,5.62,5.62,5.62,5.62,5.62,5.62,5.62,5.62,5.62,5.62,5.62,5.62,5.62,5.62,5.62,5.62,5.62,5.62,5.62,5.6602,5.7161,5.7775,5.7876,5.7901,5.7901,5.7851,5.6707,5.3296,0.0,0.0,0.0,0.0,0.0,0.0,0.0,4.2797,5.0678,0.0,0.0,0.0,0.0,0.0,0.0,0.0,0.0,5.2936,5.3613,0.0,5.2228,5.5407,5.6734,5.62,5.62,5.62,5.62,5.62,5.506,5.2987,5.0916,4.8792,4.6646,4.4576,4.3712,4.3711,4.3711,4.3711,4.3711,4.3711,4.3711,4.3711,5.2632,5.2486,5.2504,5.2822,5.2615,5.2447,5.2612,5.298,5.3206,5.3206,5.3683,5.4002,5.3826,5.3582,5.3457,0.0,5.3808,5.4077,0.0,5.4228,5.4303,5.4303,5.4496,5.4522,5.4303,5.4496,5.4773,5.5157,0.0,0.0,0.0,5.2394,5.325,5.5137,5.4959,5.5372,5.62,5.62,5.62,5.62,5.62,5.62,5.62,5.62,5.62,5.62,5.62,5.62,5.62,5.62,5.62,5.62,5.62,5.62,5.62,5.62,5.62,5.62,5.62,5.62,5.62,5.62,5.62,5.62,5.62,5.6928,5.7675,5.7851,5.8202,5.8434,5.8434,5.8152,5.7537,5.6421,5.7181,0.0,0.0,0.0,0.0,0.0,0.0,4.4808,0.0,4.4488,0.0,0.0,0.0,0.0,0.0,0.0,0.0,0.0,5.3746,0.0,5.2228,5.5034,5.6376,5.62,5.62,5.62,5.62,5.62,5.4292,5.0958,5.03,4.7983,4.4638,4.3959,4.3711,4.3711,4.3711,4.3711,4.3711,4.3711,4.3711,4.3711,5.3314,5.3383,5.3478,5.3243,5.3389,5.3525,5.3525,5.3803,5.4027,5.4039,5.4355,5.4591,5.4604,5.4454,0.0,5.4077,5.4378,5.4597,5.4597,5.4798,5.4906,5.4906,5.5082,5.5107,5.4906,5.5107,0.0,5.5408,5.421,5.3791,5.4142,5.4528,5.5244,5.62,5.62,5.62,5.62,5.62,5.62,5.62,5.62,5.62,5.62,5.62,5.62,5.62,5.62,5.62,5.62,5.62,5.62,5.62,5.62,5.62,5.62,5.62,5.62,5.62,5.62,5.62,5.62,5.62,5.62,5.62,5.62,5.7097,5.7895,5.7888,5.8485,5.8987,5.8987,5.873,5.8504,5.8504,5.8504,5.7957,5.6421,0.0,0.0,0.0,0.0,0.0,0.0,4.7706,4.8034,0.0,0.0,0.0,0.0,0.0,0.0,5.1318,5.5014,0.0,5.3708,5.534,5.62,5.62,5.62,5.5791,5.5041,5.5041,5.2736,4.8814,4.8814,4.6867,4.3711,4.3711,4.3711,4.3711,4.3711,4.3711,4.3711,4.3711,4.3711,4.3711,5.3878,5.4212,5.442,5.3855,5.4225,5.461,5.461,5.4627,5.4656,5.467,5.4695,5.4699,5.4712,5.5157,5.5257,5.4748,0.0,0.0,5.4723,5.5182,5.5458,5.5458,5.5942,5.5968,5.5483,5.5942,5.5968,5.5458,5.5968,5.62,5.62,5.62,5.62,5.62,5.62,5.62,5.62,5.62,5.62,5.62,5.62,5.62,5.62,5.62,5.62,5.62,5.62,5.62,5.62,5.62,5.62,5.62,5.62,5.62,5.62,5.62,5.62,5.62,5.62,5.62,5.62,5.62,5.62,5.62,5.62,5.7047,5.7857,5.7905,5.8681,5.9408,5.9483,5.9433,5.9408,5.9483,5.9299,5.782,5.3984,5.365,0.0,0.0,0.0,0.0,0.0,5.217,5.4108,0.0,0.0,0.0,0.0,0.0,5.1715,5.6829,5.6985,5.6734,5.62,5.62,5.62,5.62,5.6047,5.4967,5.31,5.2949,5.0665,4.6806,4.6806,4.5616,4.3711,4.3711,4.3711,4.3711,4.3711,4.3711,4.3711,4.3711,4.3711,4.3711,0.0,0.0,5.4546,5.4421,5.4522,5.4582,5.4582,5.4945,5.5193,5.5201,5.5581,5.5838,5.5817,5.5942,5.5968,5.5842,5.5817,5.5817,5.5817,5.5942,5.6018,5.6018,5.6125,5.6125,5.6,5.6143,5.6143,5.6018,5.6143,5.62,5.62,5.62,5.62,5.62,5.62,5.62,5.62,5.62,5.62,5.62,5.62,5.62,5.62,5.62,5.62,5.62,5.62,5.62,5.62,5.62,5.62,5.62,5.62,5.62,5.62,5.62,5.62,5.62,5.62,5.62,5.62,5.62,5.62,5.62,5.62,5.6728,5.7349,5.7825,5.8089,5.8529,5.9332,5.883,5.8554,5.9357,5.7389,5.5364,5.4182,5.2591,5.0694,0.0,4.8842,5.025,5.2573,5.3262,5.3519,0.0,0.0,0.0,0.0,5.2525,5.3526,5.6898,5.6985,5.6734,5.62,5.62,5.62,5.6182,5.459,5.3595,5.3043,5.1459,4.9283,4.6806,4.6806,4.5616,4.3711,4.3711,4.3711,4.3711,4.3711,4.3711,4.3711,4.3711,4.3711,4.3711,5.4643,5.4797,5.4987,5.4972,5.5165,5.5333,5.5333,5.5577,5.5761,5.5761,5.6026,5.62,5.62,5.62,5.62,5.62,5.62,5.62,5.62,5.62,5.62,5.62,5.62,5.62,5.62,5.62,5.62,5.62,5.62,5.62,5.62,5.62,5.62,5.62,5.62,5.62,5.62,5.62,5.62,5.62,5.62,5.62,5.62,5.62,5.62,5.62,5.62,5.62,5.62,5.62,5.62,5.62,5.62,5.62,5.62,5.62,5.62,5.62,5.62,5.62,5.62,5.62,5.62,5.62,5.62,5.6627,5.7072,5.7434,5.7693,5.8089,5.8662,5.8504,5.8453,5.9056,5.6789,5.4796,5.4266,5.1993,5.0498,5.0806,5.1248,5.2543,5.5095,5.5576,5.5398,5.464,5.5022,0.0,5.4221,5.4337,5.5216,5.6941,5.6778,5.6502,5.62,5.62,5.62,5.6182,5.4082,5.2584,5.1612,4.9498,4.7386,4.5373,4.5373,4.474,4.3711,4.3711,4.3711,4.3711,4.3711,4.3711,4.3711,4.3711,4.3711,4.3711,5.4909,5.5207,5.5519,5.5519,5.5903,5.62,5.62,5.62,5.62,5.62,5.62,5.62,5.62,5.62,5.62,5.62,5.62,5.62,5.62,5.62,5.62,5.62,5.62,5.62,5.62,5.62,5.62,5.62,5.62,5.62,5.62,5.62,5.62,5.62,5.62,5.62,5.62,5.62,5.62,5.62,5.62,5.62,5.62,5.62,5.62,5.62,5.62,5.62,5.62,5.62,5.62,5.62,5.62,5.62,5.62,5.62,5.62,5.62,5.62,5.62,5.62,5.62,5.62,5.62,5.62,5.6552,5.6883,5.6976,5.734,5.7706,5.7987,5.824,5.8327,5.7962,5.6081,5.4315,5.3297,5.1337,5.0775,5.2889,5.3521,5.4788,5.7387,5.7725,5.7725,5.765,5.7255,5.696,5.6885,5.6451,5.6401,5.686,5.6451,5.62,5.62,5.5882,5.5711,5.5692,5.3307,5.1224,4.944,4.7306,4.5373,4.3711,4.3711,4.3711,4.3711,4.3711,4.3711,4.3711,4.3711,4.3711,4.3711,4.3711,4.3711,4.3711,5.5879,5.6026,5.6085,5.6085,5.6134,5.62,5.62,5.62,5.62,5.62,5.62,5.62,5.62,5.62,5.62,5.62,5.62,5.62,5.62,5.62,5.62,5.62,5.62,5.62,5.62,5.62,5.62,5.62,5.62,5.62,5.62,5.62,5.62,5.62,5.62,5.62,5.62,5.62,5.62,5.62,5.62,5.62,5.62,5.62,5.62,5.62,5.62,5.62,5.62,5.62,5.62,5.62,5.62,5.62,5.62,5.62,5.62,5.62,5.62,5.62,5.62,5.62,5.62,5.62,5.62,5.6251,5.647,5.6908,5.6714,5.6897,5.8297,5.7851,5.6601,5.4616,5.2596,5.0577,4.8638,4.955,5.0781,5.1847,5.4608,5.6412,5.6458,5.6878,5.6953,5.652,5.6803,5.6784,5.6351,5.6251,5.6226,5.6326,5.6226,5.62,5.62,5.446,5.3595,5.3514,4.9696,4.7666,4.7226,4.5128,4.4,4.3711,4.3711,4.3711,4.3711,4.3711,4.3711,4.3711,4.3711,4.3711,4.3711,4.3711,4.3711,4.3711,5.6141,5.62,5.62,5.62,5.62,5.62,5.62,5.62,5.62,5.62,5.62,5.62,5.62,5.62,5.62,5.62,5.62,5.62,5.62,5.62,5.62,5.62,5.62,5.62,5.62,5.62,5.62,5.62,5.62,5.62,5.62,5.62,5.62,5.62,5.62,5.62,5.62,5.62,5.62,5.62,5.62,5.62,5.62,5.62,5.62,5.62,5.62,5.62,5.62,5.62,5.62,5.62,5.62,5.62,5.62,5.62,5.62,5.62,5.62,5.62,5.62,5.62,5.62,5.62,5.62,5.62,5.6276,5.6527,5.6376,5.6445,5.7204,5.743,5.6813,5.476,5.3456,5.2545,5.2046,5.1871,5.2484,5.4328,5.5754,5.6477,5.6226,5.6426,5.6477,5.62,5.6426,5.6451,5.62,5.62,5.62,5.62,5.62,5.62,5.62,5.4138,5.31,5.3043,4.8831,4.6827,4.6726,4.4658,4.3711,4.3711,4.3711,4.3711,4.3711,4.3711,4.3711,4.3711,4.3711,4.3711,4.3711,4.3711,4.3711,4.3711,5.62,5.62,5.62,5.62,5.62,5.62,5.62,5.62,5.62,5.62,5.62,5.62,5.62,5.62,5.62,5.62,5.62,5.62,5.62,5.62,5.62,5.62,5.62,5.62,5.62,5.62,5.62,5.62,5.62,5.62,5.62,5.62,5.62,5.62,5.62,5.62,5.62,5.62,5.62,5.62,5.62,5.62,5.62,5.62,5.62,5.62,5.62,5.62,5.62,5.62,5.62,5.62,5.62,5.62,5.62,5.62,5.62,5.62,5.62,5.62,5.62,5.62,5.62,5.62,5.62,5.62,5.62,5.62,5.62,5.6226,5.6351,5.7104,5.6981,5.476,5.4393,5.452,5.4799,5.371,5.3885,5.6514,5.6436,5.62,5.62,5.62,5.62,5.62,5.62,5.62,5.62,5.62,5.5974,5.549,5.5472,5.5472,5.5472,5.2949,5.167,5.1589,4.7842,4.6082,4.6042,4.4433,4.3711,4.3711,4.3711,4.3711,4.3711,4.3711,4.3711,4.3711,4.3711,4.3711,4.3711,4.3711,4.3711,4.3711,5.62,5.62,5.62,5.62,5.62,5.62,5.62,5.62,5.62,5.62,5.62,5.62,5.62,5.62,5.62,5.62,5.62,5.62,5.62,5.62,5.62,5.62,5.62,5.62,5.62,5.62,5.62,5.62,5.62,5.62,5.62,5.62,5.62,5.62,5.62,5.62,5.62,5.62,5.62,5.62,5.62,5.62,5.62,5.62,5.62,5.62,5.62,5.62,5.62,5.62,5.62,5.62,5.62,5.62,5.62,5.62,5.62,5.62,5.62,5.62,5.62,5.62,5.62,5.62,5.62,5.62,5.62,5.62,5.62,5.6351,5.6835,5.701,5.5972,5.2615,5.3072,5.329,5.16,5.2247,5.3739,5.5997,5.6207,5.62,5.62,5.62,5.62,5.62,5.62,5.62,5.62,5.62,5.5324,5.3383,5.3326,5.3326,5.3326,4.9364,4.7327,4.7226,4.5006,4.3918,4.3918,4.3753,4.3711,4.3711,4.3711,4.3711,4.3711,4.3711,4.3711,4.3711,4.3711,4.3711,4.3711,4.3711,4.3711,4.3711,5.62,5.62,5.62,5.62,5.62,5.62,5.62,5.62,5.62,5.62,5.62,5.62,5.62,5.62,5.62,5.62,5.62,5.62,5.62,5.62,5.62,5.62,5.62,5.62,5.62,5.62,5.62,5.62,5.62,5.62,5.62,5.62,5.62,5.62,5.62,5.62,5.62,5.62,5.6385,5.6651,5.6342,5.6404,5.6651,5.6342,5.62,5.62,5.62,5.62,5.62,5.62,5.62,5.62,5.62,5.62,5.62,5.62,5.62,5.62,5.62,5.62,5.62,5.62,5.62,5.62,5.62,5.62,5.62,5.62,5.62,5.6251,5.6477,5.6778,5.6196,5.3815,5.4758,5.5164,5.3356,5.4168,5.5383,5.6567,5.6701,5.6842,5.7212,5.7249,5.7248,5.7248,5.6903,5.6702,5.6702,5.5158,5.3307,5.1247,4.9928,4.9869,5.1148,4.83,4.6827,4.6766,4.4699,4.3711,4.3711,4.3711,4.3711,4.3711,4.3711,4.3711,4.3711,4.3711,4.3711,4.3711,4.3711,4.3711,4.3711,4.3711,4.3711,4.3711,5.62,5.62,5.62,5.62,5.62,5.62,5.62,5.62,5.62,5.62,5.62,5.62,5.62,5.62,5.62,5.62,5.62,5.62,5.62,5.6351,5.6376,5.62,5.62,5.6276,5.6451,5.6451,5.6552,5.6728,5.6728,5.6728,5.6728,5.6728,5.6728,5.6728,5.6728,5.6733,5.6712,5.6712,5.6955,5.7249,5.6892,5.6941,5.7217,5.6653,5.6571,5.6694,5.6342,5.6324,5.6422,5.6262,5.62,5.62,5.62,5.62,5.62,5.62,5.62,5.62,5.62,5.62,5.62,5.62,5.62,5.62,5.62,5.62,5.62,5.62,5.62,5.62,5.62,5.6502,5.64,5.538,5.6222,5.6645,5.5645,5.6222,5.6869,5.7243,5.7266,5.7444,5.7869,5.7901,5.7612,5.6924,5.6497,5.5949,5.5261,5.3498,5.1521,4.9289,4.782,4.7395,4.8023,4.6565,4.5839,4.5819,4.4371,4.3711,4.3711,4.3711,4.3711,4.3711,4.3711,4.3711,4.3711,4.3711,4.3711,4.3711,4.3711,4.3711,4.3711,4.3711,4.3711,4.3711,5.62,5.62,5.62,5.62,5.62,5.62,5.62,5.62,5.62,5.62,5.62,5.62,5.62,5.62,5.62,5.62,5.62,5.62,5.62,5.6728,5.6778,5.6244,5.62,5.6451,5.6985,5.701,5.7305,5.7901,5.7901,5.7901,5.7901,5.7901,5.7901,5.7901,5.7901,5.7907,5.7885,5.7885,5.7906,5.792,5.7891,5.7901,5.7838,5.7229,5.7382,5.7747,5.6614,5.6552,5.6941,5.6385,5.6219,5.6219,5.6219,5.6219,5.6219,5.62,5.62,5.62,5.62,5.62,5.62,5.62,5.62,5.62,5.62,5.62,5.62,5.62,5.62,5.62,5.62,5.62,5.6376,5.691,5.7011,5.7217,5.7823,5.79,5.7901,5.7912,5.7899,5.7919,5.7907,5.7901,5.7,5.479,5.4592,5.3611,5.1405,5.1284,5.0117,4.756,4.7499,4.627,4.3731,4.3711,4.3711,4.3711,4.3711,4.3711,4.3711,4.3711,4.3711,4.3711,4.3711,4.3711,4.3711,4.3711,4.3711,4.3711,4.3711,4.3711,4.3711,4.3711,4.3711,4.3711,5.62,5.62,5.62,5.62,5.62,5.62,5.62,5.62,5.62,5.62,5.62,5.62,5.62,5.62,5.62,5.62,5.62,5.6351,5.6753,5.7305,5.7575,5.7399,5.7399,5.7474,5.7631,5.7631,5.7725,5.7901,5.7901,5.7901,5.7901,5.7901,5.7901,5.7901,5.7901,5.7888,5.7907,5.7907,5.8113,5.8441,5.8062,5.8139,5.8385,5.7828,5.7737,5.787,5.7512,5.7506,5.7604,5.7437,5.7375,5.7375,5.7375,5.7375,5.7396,5.7406,5.7389,5.7402,5.7386,5.7385,5.7201,5.6406,5.62,5.62,5.62,5.62,5.6301,5.6677,5.6778,5.6903,5.7305,5.7399,5.7449,5.7625,5.7637,5.7675,5.7882,5.7914,5.8058,5.8422,5.845,5.8603,5.8981,5.9006,5.8108,5.5898,5.3955,5.1743,4.9197,4.9053,4.8044,4.5818,4.5734,4.5241,4.4199,4.3867,4.3711,4.3711,4.3711,4.3711,4.3711,4.3711,4.3711,4.3711,4.3711,4.3711,4.3711,4.3711,4.3711,4.3711,4.3711,4.3711,4.3711,4.3711,4.3711,4.3711,5.62,5.62,5.62,5.62,5.62,5.62,5.62,5.62,5.62,5.62,5.62,5.6276,5.6502,5.6527,5.6602,5.6853,5.6872,5.7022,5.733,5.7901,5.8227,5.8227,5.8428,5.8428,5.8227,5.8227,5.8328,5.8529,5.8529,5.8529,5.8529,5.8529,5.8529,5.8529,5.8529,5.8528,5.8533,5.8533,5.8719,5.8992,5.8674,5.8738,5.8973,5.842,5.8338,5.8497,5.8056,5.8036,5.8194,5.7962,5.79,5.79,5.79,5.79,5.7894,5.7901,5.7888,5.7907,5.7901,5.7888,5.7718,5.7059,5.6873,5.6861,5.6878,5.6872,5.6953,5.728,5.7355,5.7455,5.7826,5.7901,5.7976,5.8177,5.8227,5.829,5.8482,5.8528,5.8653,5.8981,5.9016,5.9137,5.9458,5.9483,5.8202,5.5124,5.1724,4.9112,4.7473,4.7389,4.6734,4.5336,4.5293,4.5078,4.4648,4.4199,4.3887,4.3711,4.3711,4.3711,4.3711,4.3711,4.3711,4.3711,4.3711,4.3711,4.3711,4.3711,4.3711,4.3711,4.3711,4.3711,4.3711,4.3711,4.3711,4.3711,5.62,5.62,5.62,5.62,5.62,5.62,5.62,5.62,5.62,5.6251,5.6276,5.6477,5.701,5.7085,5.7305,5.7851,5.7951,5.7976,5.7976,5.8459,5.8761,5.8761,5.9257,5.9282,5.8786,5.8761,5.9012,5.9483,5.9483,5.9483,5.9483,5.9483,5.9483,5.9483,5.9483,5.9483,5.9483,5.9483,5.9483,5.9483,5.9483,5.9483,5.9463,5.8973,5.9056,5.9355,5.8376,5.8357,5.8694,5.8205,5.8039,5.8039,5.8039,5.8039,5.8039,5.8039,5.8056,5.8037,5.8037,5.8045,5.8052,5.8052,5.8045,5.8,5.7914,5.7901,5.7901,5.7951,5.7976,5.8001,5.8027,5.8052,5.8202,5.8685,5.8761,5.8936,5.9433,5.9483,5.9483,5.9483,5.9483,5.9483,5.9483,5.9129,5.7154,5.2921,4.8677,4.6308,4.6308,4.6308,4.6133,4.5764,4.5744,4.5527,4.5076,4.4707,4.4258,4.3769,4.373,4.3711,4.3711,4.3711,4.3711,4.3711,4.3711,4.3711,4.3711,4.3711,4.3711,4.3711,4.3711,4.3711,4.3711,4.3711,4.3711,4.3711,5.62,5.62,5.62,5.62,5.62,5.62,5.62,5.62,5.6351,5.6778,5.6828,5.7054,5.765,5.77,5.775,5.7901,5.8284,5.8535,5.8535,5.9031,5.9332,5.9332,5.9433,5.9433,5.9332,5.9332,5.9382,5.9483,5.9483,5.9483,5.9483,5.9483,5.9483,5.9483,5.9483,5.9483,5.9483,5.9483,5.9483,5.9483,5.9483,5.9483,5.9483,5.9355,5.94,5.9463,5.9228,5.9228,5.9292,5.9183,5.9164,5.9164,5.9164,5.9164,5.9164,5.9164,5.9147,5.9149,5.9149,5.9162,5.9156,5.9156,5.9162,5.8923,5.8083,5.7901,5.8027,5.8434,5.8535,5.8635,5.9081,5.9156,5.9182,5.9307,5.9332,5.9357,5.9483,5.9483,5.9483,5.9483,5.9483,5.9483,5.9483,5.6375,5.3209,5.0526,4.7815,4.6308,4.6308,4.6308,4.6269,4.6172,4.6172,4.5957,4.5568,4.5471,4.5019,4.4238,4.3887,4.3711,4.3711,4.3711,4.3711,4.3711,4.3711,4.3711,4.3711,4.3711,4.3711,4.3711,4.3711,4.3711,4.3711,4.3711,4.3711,4.3711,5.6527,5.6577,5.6677,5.6972,5.7022,5.7022,5.7022,5.7022,5.7104,5.738,5.743,5.765,5.8221,5.8278,5.8378,5.8629,5.893,5.9062,5.9062,5.9332,5.9483,5.9483,5.9483,5.9483,5.9483,5.9483,5.9483,5.9483,5.9483,5.9483,5.9483,5.9483,5.9483,5.9483,5.9483,5.9483,5.9483,5.9483,5.9483,5.9483,5.9483,5.9483,5.9483,5.9483,5.9483,5.9483,5.9483,5.9483,5.9483,5.9483,5.9483,5.9483,5.9483,5.9483,5.9483,5.9483,5.9483,5.9483,5.9483,5.9483,5.9483,5.9483,5.9483,5.9357,5.878,5.8654,5.8755,5.9012,5.9062,5.9182,5.9433,5.9483,5.9483,5.9483,5.9483,5.9483,5.9483,5.9483,5.9483,5.9483,5.9483,5.9095,5.8031,5.3926,5.0862,4.968,4.7554,4.6308,4.6308,4.6308,4.6308,4.6308,4.6308,4.6191,4.5998,4.5803,4.5471,4.5,4.453,4.4219,4.4043,4.4043,4.3906,4.3711,4.3711,4.3711,4.3711,4.3711,4.3711,4.3711,4.3711,4.3711,4.3711,4.3711,4.3711,4.3711,5.7079,5.7136,5.7305,5.7801,5.7901,5.7901,5.7901,5.7901,5.7926,5.8027,5.8052,5.8227,5.8774,5.883,5.9012,5.9458,5.9483,5.9483,5.9483,5.9154,5.909,5.9463,5.9154,5.9115,5.9508,5.9483,5.9483,5.9483,5.9483,5.9483,5.9483,5.9483,5.9483,5.9483,5.9483,5.9483,5.9483,5.9483,5.9483,5.9483,5.9483,5.9483,5.9483,5.9483,5.9483,5.9483,5.9483,5.9483,5.9483,5.9483,5.9483,5.9483,5.9483,5.9483,5.9483,5.9483,5.9483,5.9483,5.9483,5.9483,5.9483,5.9483,5.9483,5.9483,5.9483,5.9483,5.9483,5.9483,5.9483,5.9483,5.9483,5.9483,5.9483,5.9483,5.9483,5.9483,5.9483,5.9483,5.9347,5.8973,5.8598,5.749,5.5289,5.174,4.9425,4.9062,4.7338,4.6308,4.6308,4.6308,4.6308,4.6308,4.6308,4.6308,4.6308,4.5979,4.5803,4.5803,4.541,4.4959,4.4492,4.4433,4.4219,4.3926,4.3848,4.3867,4.3926,4.3848,4.3828,4.3808,4.373,4.3711,4.3711,4.3711,4.3711,4.3711,5.7775,5.7775,5.7801,5.7876,5.7901,5.7901,5.7901,5.7901,5.8077,5.8535,5.8585,5.8805,5.9332,5.9382,5.9408,5.9483,5.9483,5.9483,5.9483,5.7706,5.751,5.9405,5.7672,5.7534,5.9444,5.9483,5.9483,5.9483,5.9483,5.9483,5.9483,5.9483,5.9483,5.9483,5.9483,5.9483,5.9483,5.9483,5.9483,5.9483,5.9483,5.9483,5.9483,5.9483,5.9483,5.9483,5.9483,5.9483,5.9483,5.9483,5.9483,5.9483,5.9483,5.9483,5.9483,5.9483,5.9483,5.9483,5.9483,5.9483,5.9483,5.9483,5.9483,5.9483,5.9483,5.9483,5.9483,5.9483,5.9483,5.9483,5.9483,5.9483,5.9483,5.9483,5.9483,5.9483,5.9483,5.9483,5.8779,5.6876,5.4965,5.2921,5.0715,4.9955,4.8806,4.688,4.6464,4.6308,4.6308,4.6308,4.6308,4.6308,4.6308,4.6308,4.6308,4.625,4.6211,4.6211,4.6152,4.5681,4.4901,4.457,4.457,4.4803,4.4453,4.4512,4.4803,4.4453,4.4316,4.4258,4.3867,4.3711,4.3711,4.3711,4.3711,4.3711,5.8284,5.8334,5.8453,5.873,5.878,5.878,5.878,5.878,5.888,5.9131,5.9156,5.9232,5.9458,5.9483,5.8993,5.7746,5.7667,5.713,5.5891,5.4902,5.5326,5.7569,5.6737,5.7237,5.9444,5.9483,5.9483,5.9483,5.9483,5.9483,5.9483,5.9483,5.9483,5.9483,5.9483,5.9483,5.9483,5.9483,5.9483,5.9483,5.9483,5.9483,5.9483,5.9483,5.9483,5.9483,5.9483,5.9483,5.9483,5.9483,5.9483,5.9483,5.9483,5.9483,5.9483,5.9483,5.9483,5.9483,5.9483,5.9483,5.9483,5.9483,5.9483,5.9483,5.9483,5.9483,5.9483,5.9483,5.9483,5.9483,5.9483,5.9483,5.9483,5.9483,5.9483,5.9483,5.9483,5.9483,5.8701,5.6475,5.3168,5.0673,4.9701,4.8483,4.7338,4.6355,4.6308,4.6308,4.6308,4.6308,4.6308,4.6308,4.6308,4.6308,4.6308,4.6308,4.6308,4.6308,4.6308,4.5976,4.5371,4.5217,4.5078,4.4998,4.4803,4.4842,4.4979,4.457,4.4394,4.4355,4.3887,4.3711,4.3711,4.3711,4.3711,4.3711]},{"header":{"parameterUnit":"m.s-1","parameterCategory":1,"la1":30.6,"la2":28.766,"lo1":-90.7593,"lo2":-88.6598,"dx":0.0162,"dy":0.0183,"nx":116,"ny":114,"refTime":"2022-11-21T18:00:00:Z","depth":0,"parameterNumber":3,"parameterNumberName":"V-component_of_WINDS"},"data":[0.0,0.0,0.0,0.0,0.0,0.0,0.0,0.0,0.0,0.0,0.0,0.0,0.0,0.0,0.0,0.0,0.0,0.0,0.0,0.0,0.0,0.0,0.0,0.0,0.0,0.0,0.0,0.0,0.0,0.0,0.0,0.0,0.0,0.0,0.0,0.0,0.0,0.0,0.0,0.0,0.0,0.0,0.0,0.0,0.0,0.0,0.0,0.0,0.0,0.0,0.0,0.0,0.0,0.0,0.0,0.0,0.0,0.0,0.0,0.0,0.0,0.0,0.0,0.0,0.0,0.0,0.0,0.0,0.0,0.0,0.0,0.0,0.0,0.0,0.0,0.0,0.0,0.0,0.0,0.0,0.0,0.0,0.0,0.0,0.0,0.0,0.0,0.0,0.0,0.0,0.0,0.0,0.0,0.0,0.0,0.0,0.0,0.0,0.0,0.0,0.0,0.0,0.0,0.0,0.0,0.0,0.0,0.0,0.0,0.0,0.0,0.0,0.0,0.0,0.0,0.0,0.0,0.0,0.0,0.0,0.0,0.0,0.0,0.0,0.0,0.0,0.0,0.0,0.0,0.0,0.0,0.0,0.0,0.0,0.0,0.0,0.0,0.0,0.0,0.0,0.0,0.0,0.0,0.0,0.0,0.0,0.0,0.0,0.0,0.0,0.0,0.0,0.0,0.0,0.0,0.0,0.0,0.0,0.0,0.0,0.0,0.0,0.0,0.0,0.0,0.0,0.0,0.0,0.0,0.0,0.0,0.0,0.0,0.0,0.0,0.0,0.0,0.0,0.0,0.0,0.0,0.0,0.0,0.0,0.0,0.0,0.0,0.0,0.0,0.0,0.0,0.0,0.0,0.0,0.0,0.0,0.0,0.0,0.0,0.0,0.0,0.0,0.0,0.0,0.0,0.0,0.0,0.0,0.0,0.0,0.0,0.0,0.0,0.0,0.0,0.0,0.0,0.0,0.0,0.0,0.0,0.0,0.0,0.0,0.0,0.0,0.0,0.0,0.0,0.0,0.0,0.0,0.0,0.0,0.0,0.0,0.0,0.0,0.0,0.0,0.0,0.0,0.0,0.0,0.0,0.0,0.0,0.0,0.0,0.0,0.0,0.0,0.0,0.0,0.0,0.0,0.0,0.0,0.0,0.0,0.0,0.0,0.0,0.0,0.0,0.0,0.0,0.0,0.0,0.0,0.0,0.0,0.0,0.0,0.0,0.0,0.0,0.0,0.0,0.0,0.0,0.0,0.0,0.0,0.0,0.0,0.0,0.0,0.0,0.0,0.0,0.0,0.0,0.0,0.0,0.0,0.0,0.0,0.0,0.0,0.0,0.0,0.0,0.0,0.0,0.0,0.0,0.0,0.0,0.0,0.0,0.0,0.0,0.0,0.0,0.0,0.0,0.0,0.0,0.0,0.0,0.0,0.0,0.0,0.0,0.0,0.0,0.0,0.0,0.0,0.0,0.0,0.0,0.0,0.0,0.0,0.0,0.0,0.0,0.0,0.0,0.0,0.0,0.0,0.0,0.0,0.0,0.0,0.0,0.0,0.0,0.0,0.0,0.0,0.0,0.0,0.0,0.0,0.0,0.0,0.0,0.0,0.0,0.0,0.0,0.0,0.0,0.0,0.0,0.0,0.0,0.0,0.0,0.0,0.0,0.0,0.0,0.0,0.0,0.0,0.0,0.0,0.0,0.0,0.0,0.0,0.0,0.0,0.0,0.0,0.0,0.0,0.0,0.0,0.0,0.0,0.0,0.0,0.0,0.0,0.0,0.0,0.0,0.0,0.0,0.0,0.0,0.0,0.0,0.0,0.0,0.0,0.0,0.0,0.0,0.0,0.0,0.0,0.0,0.0,0.0,0.0,0.0,0.0,0.0,0.0,0.0,0.0,0.0,0.0,0.0,0.0,0.0,0.0,0.0,0.0,0.0,0.0,0.0,0.0,0.0,0.0,0.0,0.0,0.0,0.0,0.0,0.0,0.0,0.0,0.0,0.0,0.0,0.0,0.0,0.0,0.0,0.0,0.0,0.0,0.0,0.0,0.0,0.0,0.0,0.0,0.0,0.0,0.0,0.0,0.0,0.0,0.0,0.0,0.0,0.0,0.0,0.0,0.0,0.0,0.0,0.0,0.0,0.0,0.0,0.0,0.0,0.0,0.0,0.0,0.0,0.0,0.0,0.0,0.0,0.0,0.0,0.0,0.0,0.0,0.0,0.0,0.0,0.0,0.0,0.0,0.0,0.0,0.0,0.0,0.0,0.0,0.0,0.0,0.0,0.0,0.0,0.0,0.0,0.0,0.0,0.0,0.0,0.0,0.0,0.0,0.0,0.0,0.0,0.0,0.0,0.0,0.0,0.0,0.0,0.0,0.0,0.0,0.0,0.0,0.0,0.0,0.0,0.0,0.0,0.0,0.0,0.0,0.0,0.0,0.0,0.0,0.0,0.0,0.0,0.0,0.0,0.0,0.0,0.0,0.0,0.0,0.0,0.0,0.0,0.0,0.0,0.0,0.0,0.0,0.0,0.0,0.0,0.0,0.0,0.0,0.0,0.0,0.0,0.0,0.0,0.0,0.0,0.0,0.0,0.0,0.0,0.0,0.0,0.0,0.0,0.0,0.0,0.0,0.0,0.0,0.0,0.0,0.0,0.0,0.0,0.0,0.0,0.0,0.0,0.0,0.0,0.0,0.0,0.0,0.0,0.0,0.0,0.0,0.0,0.0,0.0,0.0,0.0,0.0,0.0,0.0,0.0,0.0,0.0,0.0,0.0,0.0,0.0,0.0,0.0,0.0,0.0,0.0,0.0,0.0,0.0,0.0,0.0,0.0,0.0,0.0,0.0,0.0,0.0,0.0,0.0,0.0,0.0,0.0,0.0,0.0,0.0,0.0,0.0,0.0,0.0,0.0,0.0,0.0,0.0,0.0,0.0,0.0,0.0,0.0,0.0,0.0,0.0,0.0,0.0,0.0,0.0,0.0,0.0,0.0,0.0,0.0,0.0,0.0,0.0,0.0,0.0,0.0,0.0,0.0,0.0,0.0,0.0,0.0,0.0,0.0,0.0,0.0,0.0,0.0,0.0,0.0,0.0,0.0,0.0,0.0,0.0,0.0,0.0,0.0,0.0,0.0,0.0,0.0,0.0,0.0,0.0,0.0,0.0,0.0,0.0,0.0,0.0,0.0,0.0,0.0,0.0,0.0,0.0,0.0,0.0,0.0,0.0,0.0,0.0,0.0,0.0,0.0,0.0,0.0,0.0,0.0,0.0,0.0,0.0,0.0,0.0,0.0,0.0,0.0,0.0,0.0,0.0,0.0,0.0,0.0,0.0,0.0,0.0,0.0,0.0,0.0,0.0,0.0,0.0,0.0,0.0,0.0,0.0,0.0,0.0,0.0,0.0,0.0,0.0,0.0,0.0,0.0,0.0,0.0,0.0,0.0,0.0,0.0,0.0,0.0,0.0,0.0,0.0,0.0,0.0,0.0,0.0,0.0,0.0,0.0,0.0,0.0,0.0,0.0,0.0,0.0,0.0,0.0,0.0,0.0,0.0,0.0,0.0,0.0,0.0,0.0,0.0,0.0,0.0,0.0,0.0,0.0,0.0,0.0,0.0,0.0,0.0,0.0,0.0,0.0,0.0,0.0,0.0,0.0,0.0,0.0,0.0,0.0,0.0,0.0,0.0,0.0,0.0,0.0,0.0,0.0,0.0,0.0,0.0,0.0,0.0,0.0,0.0,0.0,0.0,0.0,0.0,0.0,0.0,0.0,0.0,0.0,0.0,0.0,0.0,0.0,0.0,0.0,0.0,0.0,0.0,0.0,0.0,0.0,0.0,0.0,0.0,0.0,0.0,0.0,0.0,0.0,0.0,0.0,0.0,0.0,0.0,0.0,0.0,0.0,0.0,0.0,0.0,0.0,0.0,0.0,0.0,0.0,0.0,0.0,0.0,0.0,0.0,0.0,0.0,0.0,0.0,0.0,0.0,0.0,0.0,0.0,0.0,0.0,0.0,0.0,0.0,0.0,0.0,0.0,0.0,0.0,0.0,0.0,0.0,0.0,0.0,0.0,0.0,0.0,0.0,0.0,0.0,0.0,0.0,0.0,0.0,0.0,0.0,0.0,0.0,0.0,0.0,0.0,0.0,0.0,0.0,0.0,0.0,0.0,0.0,0.0,0.0,0.0,0.0,0.0,0.0,0.0,0.0,0.0,0.0,0.0,0.0,0.0,0.0,0.0,0.0,0.0,0.0,0.0,0.0,0.0,0.0,0.0,0.0,0.0,0.0,0.0,0.0,0.0,0.0,0.0,0.0,0.0,0.0,0.0,0.0,0.0,0.0,0.0,0.0,0.0,0.0,0.0,0.0,0.0,0.0,0.0,0.0,0.0,0.0,0.0,0.0,0.0,0.0,0.0,0.0,0.0,0.0,0.0,0.0,0.0,0.0,0.0,0.0,0.0,0.0,0.0,0.0,0.0,0.0,0.0,0.0,0.0,0.0,0.0,0.0,0.0,0.0,0.0,0.0,0.0,0.0,0.0,0.0,0.0,0.0,0.0,0.0,0.0,0.0,0.0,0.0,0.0,0.0,0.0,0.0,0.0,0.0,0.0,0.0,0.0,0.0,0.0,0.0,0.0,0.0,0.0,0.0,0.0,0.0,0.0,0.0,0.0,0.0,0.0,0.0,0.0,0.0,0.0,0.0,0.0,0.0,0.0,0.0,0.0,0.0,0.0,0.0,0.0,0.0,0.0,0.0,0.0,0.0,0.0,0.0,0.0,0.0,0.0,0.0,0.0,0.0,0.0,0.0,0.0,0.0,0.0,0.0,0.0,0.0,0.0,0.0,0.0,0.0,0.0,0.0,0.0,0.0,0.0,0.0,0.0,0.0,0.0,0.0,0.0,0.0,0.0,0.0,0.0,0.0,0.0,0.0,0.0,0.0,0.0,0.0,0.0,0.0,0.0,0.0,0.0,0.0,0.0,0.0,0.0,0.0,0.0,0.0,0.0,0.0,0.0,0.0,0.0,0.0,0.0,0.0,0.0,0.0,0.0,0.0,0.0,0.0,0.0,0.0,0.0,0.0,0.0,0.0,0.0,0.0,0.0,0.0,0.0,0.0,0.0,0.0,0.0,0.0,0.0,0.0,0.0,0.0,0.0,0.0,0.0,0.0,0.0,0.0,0.0,0.0,0.0,0.0,0.0,0.0,0.0,0.0,0.0,0.0,0.0,0.0,0.0,0.0,0.0,0.0,0.0,0.0,0.0,0.0,0.0,0.0,0.0,0.0,0.0,0.0,0.0,0.0,0.0,0.0,0.0,0.0,0.0,0.0,0.0,0.0,0.0,0.0,0.0,0.0,0.0,0.0,0.0,0.0,0.0,0.0,0.0,0.0,0.0,0.0,0.0,0.0,0.0,0.0,0.0,0.0,0.0,0.0,0.0,0.0,0.0,0.0,0.0,0.0,0.0,0.0,0.0,0.0,0.0,0.0,0.0,0.0,0.0,0.0,0.0,0.0,0.0,0.0,0.0,0.0,0.0,0.0,0.0,0.0,0.0,0.0,0.0,0.0,0.0,0.0,0.0,0.0,0.0,0.0,0.0,0.0,0.0,0.0,0.0,0.0,0.0,0.0,0.0,0.0,0.0,0.0,0.0,0.0,0.0,0.0,0.0,0.0,0.0,0.0,0.0,0.0,0.0,0.0,0.0,0.0,0.0,0.0,0.0,0.0,0.0,0.0,0.0,0.0,0.0,0.0,0.0,0.0,0.0,0.0,0.0,0.0,0.0,0.0,0.0,0.0,0.0,0.0,0.0,0.0,0.0,0.0,0.0,0.0,0.0,0.0,0.0,0.0,0.0,0.0,0.0,0.0,0.0,0.0,0.0,0.0,0.0,0.0,0.0,0.0,0.0,0.0,0.0,0.0,0.0,0.0,0.0,0.0,0.0,0.0,0.0,0.0,0.0,0.0,0.0,0.0,0.0,0.0,0.0,0.0,0.0,0.0,0.0,0.0,0.0,0.0,0.0,0.0,0.0,0.0,0.0,0.0,0.0,0.0,0.0,0.0,0.0,0.0,0.0,0.0,0.0,0.0,0.0,0.0,0.0,1.7912,0.0,0.0,0.0,0.0,0.0,0.0,0.0,0.0,0.0,0.0,0.0,0.0,0.0,0.0,0.0,0.0,0.0,0.0,0.0,0.0,0.0,0.0,0.0,0.0,1.3266,1.3549,1.2833,1.3691,0.0,0.0,0.0,0.0,0.0,0.0,0.0,0.0,0.0,1.3173,1.3178,1.4352,1.5392,1.6226,1.6326,1.5821,1.4802,0.0,0.0,0.0,0.0,0.0,0.0,0.0,0.0,0.0,0.0,0.0,0.0,0.0,0.0,0.0,0.0,0.0,0.0,0.0,0.0,0.0,0.0,0.0,0.0,0.0,0.0,0.0,0.0,0.0,0.0,0.0,0.0,0.0,0.0,0.0,0.0,0.0,0.0,0.0,0.0,0.0,0.0,0.0,0.0,0.0,0.0,0.0,0.0,0.0,0.0,0.0,0.0,0.0,0.0,0.0,0.0,0.0,0.0,0.0,0.0,0.0,0.0,0.0,0.0,0.0,0.0,0.0,0.0,0.0,0.0,0.0,2.0497,0.0,0.0,0.0,0.0,0.0,0.0,0.0,0.0,0.0,0.0,0.0,0.0,0.0,0.0,0.0,0.0,0.0,0.0,0.0,0.0,0.0,1.2136,1.2196,1.326,1.3835,1.349,1.4493,1.4673,1.3542,1.3574,0.0,0.0,0.0,0.0,1.2752,1.3316,1.3759,1.4151,1.6089,1.79,1.9554,1.9977,1.901,1.6921,1.6299,0.0,0.0,0.0,0.0,0.0,0.0,0.0,0.0,0.0,0.0,0.0,0.0,0.0,0.0,0.0,0.0,0.0,0.0,0.0,0.0,0.0,0.0,0.0,0.0,0.0,0.0,0.0,0.0,0.0,0.0,0.0,0.0,0.0,0.0,0.0,0.0,0.0,0.0,0.0,0.0,0.0,0.0,0.0,0.0,0.0,0.0,0.0,0.0,0.0,0.0,0.0,0.0,0.0,0.0,0.0,0.0,0.0,0.0,0.0,0.0,0.0,0.0,0.0,2.6855,2.6724,2.6299,2.6563,2.7078,2.7707,2.7097,2.6145,2.5004,2.4089,0.0,0.0,0.0,0.0,0.0,0.0,0.0,0.0,0.0,0.0,0.0,0.0,0.0,0.0,0.0,0.0,0.0,0.0,0.0,1.2236,1.2589,1.3138,1.3642,1.4056,1.4868,1.4997,1.4149,1.4411,0.0,0.0,0.0,0.0,1.2614,1.2703,1.3537,1.5115,1.8132,2.0064,2.093,2.0898,2.0938,2.1073,2.0118,1.9384,1.8775,0.0,0.0,0.0,0.0,0.0,0.0,0.0,0.0,0.0,0.0,0.0,0.0,0.0,0.0,0.0,0.0,0.0,0.0,0.0,0.0,0.0,0.0,0.0,0.0,0.0,0.0,0.0,0.0,0.0,0.0,0.0,0.0,0.0,0.0,0.0,0.0,0.0,0.0,0.0,0.0,0.0,2.4165,2.4202,0.0,0.0,0.0,0.0,0.0,0.0,0.0,0.0,0.0,0.0,0.0,0.0,0.0,2.5862,2.6473,2.7473,2.7895,2.7786,3.0089,3.1009,3.072,3.2569,3.3733,3.4266,3.4169,0.0,2.7575,2.5723,0.0,0.0,0.0,0.0,0.0,0.0,0.0,0.0,0.0,0.0,0.0,0.0,0.0,0.0,0.0,0.0,0.0,0.0,0.0,0.0,0.0,1.4474,1.5371,1.5855,1.7075,1.7264,1.596,1.6028,0.0,0.0,0.0,1.3126,1.2995,1.4282,1.6378,1.9282,2.119,2.2639,2.3672,2.396,2.4221,2.4471,2.403,2.2514,2.0263,1.9534,0.0,0.0,0.0,0.0,0.0,0.0,0.0,0.0,0.0,0.0,0.0,0.0,0.0,0.0,0.0,0.0,0.0,0.0,0.0,0.0,0.0,0.0,0.0,0.0,0.0,0.0,0.0,0.0,0.0,0.0,0.0,0.0,0.0,0.0,0.0,0.0,0.0,0.0,0.0,2.5105,2.5485,2.6034,2.6351,2.6191,0.0,0.0,0.0,0.0,0.0,0.0,0.0,0.0,0.0,2.6399,2.8212,2.952,3.0253,3.1641,3.2461,3.2751,3.3906,3.4404,3.4293,3.5223,3.578,3.6041,3.6687,3.574,3.3527,3.0647,2.8718,2.7342,0.0,0.0,0.0,0.0,2.3709,2.4029,0.0,0.0,0.0,0.0,0.0,0.0,0.0,0.0,0.0,0.0,0.0,0.0,1.4361,1.5942,1.7191,1.7729,1.8967,1.9037,1.7469,1.7355,1.6438,1.4438,1.3958,1.3588,1.3303,1.5945,1.9051,2.2566,2.3806,2.4895,2.5845,2.6298,2.6508,2.6508,2.6508,2.4852,2.201,2.1341,2.0737,2.0123,0.0,0.0,0.0,0.0,0.0,0.0,0.0,0.0,0.0,0.0,0.0,0.0,0.0,0.0,0.0,0.0,0.0,0.0,0.0,0.0,0.0,0.0,0.0,0.0,0.0,0.0,0.0,0.0,0.0,0.0,0.0,0.0,0.0,0.0,0.0,0.0,0.0,2.6847,2.7231,2.7648,2.7854,2.7575,0.0,0.0,0.0,0.0,0.0,0.0,2.7092,2.8272,2.9173,2.9578,3.1591,3.3015,3.372,3.5059,3.5956,3.6393,3.6393,3.6393,3.6393,3.6393,3.657,3.6884,3.7735,3.8277,3.8331,3.5249,3.3007,3.1396,2.9748,2.8818,2.8399,2.8532,2.8362,2.8251,0.0,0.0,0.0,0.0,0.0,0.0,0.0,0.0,0.0,0.0,0.0,1.5423,1.5838,1.7121,1.8313,1.9299,1.9589,1.9187,1.7946,1.791,1.7097,1.5127,1.405,1.3458,1.3292,1.6902,2.0191,2.3054,2.5286,2.6398,2.6457,2.6483,2.6508,2.6508,2.6508,2.5804,2.4591,2.4361,2.3273,2.1595,2.0566,0.0,0.0,0.0,0.0,0.0,0.0,0.0,0.0,0.0,0.0,0.0,0.0,0.0,0.0,0.0,0.0,0.0,0.0,0.0,0.0,0.0,0.0,0.0,0.0,0.0,0.0,0.0,0.0,0.0,0.0,0.0,0.0,0.0,0.0,0.0,0.0,0.0,0.0,2.8433,2.9261,0.0,0.0,0.0,0.0,3.016,2.9913,3.0077,3.0981,3.2295,3.3272,3.3864,3.5356,3.6167,3.6205,3.6318,3.6368,3.6393,3.6393,3.6393,3.6393,3.6393,3.6976,3.8017,3.8073,3.8749,3.9671,3.7889,3.6809,3.6092,3.4418,3.2764,3.129,3.1299,3.0819,3.0189,0.0,0.0,0.0,1.3615,1.3634,1.3712,1.3912,1.374,1.378,1.4303,1.5359,1.6267,1.6838,1.8696,2.0135,2.067,2.1443,2.1414,2.0286,1.9297,1.8073,1.6532,1.5177,1.558,1.7959,2.0657,2.3289,2.5807,2.6954,2.7352,2.7018,2.7018,2.6826,2.6508,2.6508,2.6264,2.5854,2.5213,2.4423,2.3508,2.2421,2.1159,0.0,0.0,0.0,0.0,0.0,0.0,0.0,0.0,0.0,0.0,0.0,0.0,0.0,0.0,0.0,0.0,0.0,0.0,0.0,0.0,0.0,0.0,0.0,0.0,0.0,0.0,0.0,0.0,0.0,0.0,0.0,0.0,0.0,0.0,0.0,0.0,0.0,3.0499,3.1275,0.0,3.0218,3.0988,3.1564,3.1534,3.2771,3.353,3.3486,3.4629,3.5392,3.5605,3.6467,3.6909,3.6909,3.7248,3.7424,3.7424,3.7424,3.7424,3.7449,3.8277,3.8879,3.9356,4.0956,4.1876,4.2284,4.243,4.0998,3.8584,3.7213,3.6288,3.569,3.5321,3.4756,3.4282,0.0,0.0,0.0,1.4022,1.4168,1.4351,1.4492,1.4407,1.4731,1.5822,1.7044,1.8173,1.9155,2.1134,2.2435,2.2554,2.3239,2.309,2.1727,2.042,1.9019,1.7469,1.6731,1.805,2.166,2.3333,2.5261,2.7578,2.7921,2.7921,2.7578,2.7578,2.7286,2.6776,2.6776,2.6675,2.6466,2.5877,2.5364,2.4845,2.3879,2.2544,2.1058,0.0,0.0,0.0,0.0,0.0,0.0,0.0,0.0,0.0,0.0,0.0,0.0,0.0,0.0,0.0,0.0,0.0,0.0,0.0,0.0,0.0,0.0,0.0,0.0,0.0,0.0,0.0,0.0,0.0,0.0,0.0,0.0,0.0,0.0,0.0,3.2824,3.1878,3.2715,3.3017,3.2111,3.305,3.3684,3.3571,3.4985,3.5757,3.5545,3.6253,3.6758,3.6934,3.7098,3.7299,3.7475,3.7638,3.7814,3.8002,3.8002,3.8002,3.8052,3.9313,4.0118,4.0622,4.2708,4.3809,4.4235,4.4983,4.3906,4.1593,4.0366,3.9543,3.8902,3.8079,3.7191,3.6539,0.0,0.0,1.4656,1.4799,1.4989,1.5204,1.5474,1.5579,1.6294,1.8185,1.9726,2.1205,2.2754,2.4226,2.5033,2.4831,2.4808,2.4004,2.2065,2.116,1.9863,1.7951,1.8741,2.072,2.3987,2.4616,2.5971,2.8113,2.8138,2.8138,2.8113,2.8113,2.7846,2.7311,2.7311,2.7018,2.6524,2.6524,2.6181,2.5619,2.4967,2.3811,2.2391,0.0,0.0,0.0,0.0,0.0,0.0,0.0,0.0,0.0,0.0,0.0,0.0,0.0,0.0,0.0,0.0,0.0,0.0,0.0,0.0,0.0,0.0,0.0,0.0,0.0,0.0,0.0,0.0,0.0,0.0,0.0,0.0,0.0,3.4031,3.4047,3.3725,3.253,3.3566,3.4241,3.3907,3.4711,3.559,3.6363,3.6443,3.6695,3.7198,3.7223,3.7449,3.7965,3.75,3.75,3.799,3.755,3.7563,3.809,3.809,3.8115,3.8227,3.9477,4.0703,4.1955,4.3237,4.4406,4.5434,4.5434,4.5434,4.529,4.3927,4.2361,4.0752,3.9478,3.8006,3.6838,1.476,1.4869,1.4966,1.5023,1.5215,1.5463,1.5675,1.5896,1.6761,1.8783,2.0503,2.1975,2.3133,2.4792,2.5561,2.4864,2.4808,2.4293,2.3072,2.1727,2.0531,1.951,2.2197,2.4126,2.5078,2.6864,2.8069,2.8671,2.9126,2.9126,2.8671,2.8671,2.838,2.7871,2.7871,2.7578,2.7085,2.7085,2.7104,2.711,2.6928,2.6076,2.4981,0.0,0.0,0.0,0.0,0.0,0.0,0.0,0.0,0.0,0.0,0.0,0.0,0.0,0.0,0.0,0.0,0.0,0.0,0.0,0.0,0.0,0.0,0.0,0.0,0.0,0.0,0.0,0.0,0.0,0.0,0.0,0.0,3.7154,3.569,3.5525,3.5314,3.4678,3.533,3.5784,3.5695,3.6257,3.6753,3.6946,3.7349,3.7613,3.7764,3.7789,3.7663,3.7424,3.809,3.8303,3.8002,3.9069,3.9659,3.981,3.981,4.0555,4.1965,4.2834,4.4188,4.5899,4.7191,4.7904,4.8199,4.8199,4.8199,4.788,4.4752,4.326,4.2741,4.1952,4.135,4.1172,1.4575,1.4801,1.5028,1.5148,1.5306,1.553,1.592,1.6159,1.7432,2.0535,2.1896,2.3414,2.5638,2.6472,2.6666,2.6084,2.5367,2.4497,2.3401,2.2154,2.1948,2.3098,2.5016,2.6331,2.692,2.8477,2.9292,2.9292,2.9628,2.9628,2.9292,2.9292,2.8991,2.8439,2.8439,2.8138,2.7656,2.8049,2.8144,2.8104,2.8861,2.8191,2.6778,2.7081,2.6616,2.5703,2.4904,2.4636,2.4633,2.4528,0.0,0.0,0.0,0.0,0.0,0.0,0.0,0.0,0.0,0.0,0.0,0.0,0.0,0.0,0.0,0.0,0.0,0.0,0.0,0.0,0.0,0.0,0.0,0.0,3.9447,3.8556,3.7137,3.6944,3.6862,3.6636,3.7563,3.8017,3.751,3.7962,3.8117,3.7586,3.8314,3.9013,3.9526,4.0066,4.0075,3.9485,4.0636,4.0702,3.9528,4.1304,4.2183,4.2184,4.2471,4.3181,4.4313,4.5282,4.6336,4.7478,4.8759,4.9288,4.9288,4.9007,4.8887,0.0,0.0,0.0,0.0,0.0,4.3205,4.3986,1.4308,1.459,1.4869,1.5116,1.5276,1.5536,1.6047,1.6455,1.8259,2.266,2.3533,2.5131,2.8756,2.854,2.8001,2.7716,2.6189,2.4705,2.3438,2.2927,2.4118,2.73,2.7307,2.7826,2.9157,2.9704,2.999,2.999,2.9905,2.9889,2.9889,2.9839,2.9518,2.8998,2.8998,2.8771,2.8426,2.9256,2.9353,2.9057,3.0672,3.0046,2.8131,2.7803,2.7321,2.6703,2.6027,2.5808,2.5799,2.5396,0.0,0.0,0.0,0.0,0.0,0.0,0.0,0.0,0.0,0.0,0.0,0.0,0.0,0.0,0.0,0.0,0.0,0.0,0.0,0.0,0.0,0.0,0.0,0.0,4.0533,3.9259,3.8514,3.847,3.8425,3.8236,3.9814,4.0415,3.9127,3.9803,3.9783,3.8512,3.9734,4.1005,4.2053,0.0,0.0,0.0,0.0,4.37,4.1838,4.3664,4.4532,4.45,4.517,4.5585,4.5853,4.6995,4.7623,4.7898,4.9013,4.9516,4.9468,4.8876,4.8637,4.8537,4.7711,4.6691,4.5517,4.3896,4.4408,4.593,1.3962,1.4394,1.4631,1.4374,1.5089,1.5707,1.5779,1.6918,1.9141,2.2936,2.4451,2.5973,2.8034,2.8579,2.85,2.7751,2.6378,2.5167,2.4309,2.6332,2.7602,2.7713,2.9091,3.0205,3.0909,3.1035,3.1095,3.1095,3.0648,3.0447,3.0447,3.0005,2.9739,2.9628,2.9628,2.9741,2.9956,3.0154,3.0723,3.1513,3.1859,3.1133,2.9902,3.0455,3.0593,3.0362,2.9602,2.9318,2.9143,2.7847,2.6913,2.6247,2.5843,2.5404,0.0,0.0,0.0,0.0,0.0,0.0,0.0,0.0,0.0,0.0,0.0,0.0,0.0,0.0,0.0,0.0,0.0,0.0,0.0,4.3651,4.0809,3.885,4.0104,4.0692,4.0477,3.9065,4.0491,4.1112,3.9841,4.1639,4.237,4.1074,4.3106,4.452,4.4756,4.4989,4.4847,4.4233,4.44,4.4111,4.3226,4.3963,4.4339,4.4354,0.0,0.0,4.7684,4.799,4.899,5.0483,5.0735,5.0828,5.0828,5.0679,5.0649,5.0416,4.8201,4.7172,4.6912,4.6556,4.7344,4.8555,1.3259,1.3816,1.4269,1.4285,1.5111,1.5952,1.6545,1.7678,1.9712,2.324,2.4277,2.5515,2.7675,2.735,2.6826,2.6386,2.5891,2.5731,2.6083,2.8276,2.9909,3.0726,3.0898,3.126,3.1788,3.1547,3.1396,3.1396,3.1135,3.0849,3.0588,3.0322,3.0055,2.9808,3.0276,3.0615,3.0862,3.1799,3.239,3.2679,3.3168,3.2764,3.1941,3.2348,3.2512,3.2385,3.1545,3.1258,3.1076,2.9899,2.8906,2.8126,2.7912,2.7684,2.7481,0.0,0.0,0.0,0.0,0.0,0.0,0.0,0.0,0.0,0.0,0.0,0.0,0.0,0.0,4.3189,0.0,0.0,4.2851,4.4257,4.2163,4.0681,4.165,4.2828,4.3183,4.1985,4.3458,4.4184,4.3252,4.4586,4.4825,4.3221,4.5175,4.6461,4.6461,4.7351,4.7427,4.6485,4.7363,4.7112,4.5511,4.7,4.7577,4.7266,4.7935,4.8774,4.9709,4.9757,5.0295,5.1206,5.1206,5.1206,5.1176,5.0847,5.0529,5.0133,4.8816,4.8476,4.8783,4.9123,4.9452,4.9793,1.302,1.3693,1.4283,1.446,1.54,1.6523,1.775,1.866,2.0371,2.3584,2.3968,2.4843,2.7263,2.5936,2.4782,2.4437,2.58,2.696,2.7618,2.9874,3.195,3.3657,3.2444,3.1974,3.2505,3.1989,3.1723,3.1723,3.1622,3.1326,3.0899,3.0688,3.048,3.0253,3.09,3.1398,3.1856,3.3368,3.3829,3.362,3.438,3.436,3.3873,3.3873,3.3732,3.3408,3.2695,3.2394,3.2204,3.1475,3.0623,2.9911,3.0,3.0054,3.0103,3.0205,3.1411,0.0,0.0,0.0,0.0,0.0,0.0,0.0,0.0,0.0,4.1861,4.1938,4.2415,4.3435,4.5369,4.4347,4.3562,4.4709,4.3507,4.2693,4.3424,4.487,4.5788,4.5549,4.6796,4.7396,4.6668,4.7317,4.7069,4.5356,4.6926,4.8009,4.8126,4.9572,4.9927,4.8882,5.0265,5.0016,4.7963,4.9868,5.0559,5.0039,5.0697,5.0996,5.0996,5.1146,5.1206,5.1206,5.1206,5.1206,5.1146,5.0637,5.011,4.9666,4.9666,4.9972,5.0416,5.0709,5.0637,5.0446,1.4306,1.509,1.5502,1.4642,1.6206,1.7913,1.8949,1.9982,2.156,2.4012,2.4399,2.495,2.6306,2.5329,2.3974,2.2461,2.7336,2.9644,2.7644,3.2051,3.4473,3.3908,3.3269,3.3154,3.3696,3.318,3.2914,3.2914,3.2365,3.2079,3.2003,3.105,3.1006,3.1732,3.1358,3.2119,3.3705,3.3902,3.4497,3.5224,3.5359,3.534,3.528,3.528,3.4532,3.3477,3.3392,3.305,3.2564,3.2206,3.1711,3.1227,3.0946,3.0958,3.0956,3.0441,3.1573,3.3045,3.3412,3.5096,3.7238,3.9473,3.9455,3.9721,0.0,0.0,4.3565,4.5256,4.5716,4.6253,4.7694,4.5108,4.3555,4.5973,4.3854,4.2873,4.5689,4.6714,4.7573,4.8655,4.894,4.8616,4.7397,4.8362,4.8742,4.7945,4.911,5.0142,5.0749,5.0956,5.1027,5.0868,5.0508,5.0179,4.9903,4.9646,4.9456,4.9396,5.0021,5.0327,5.0327,5.0936,5.1206,5.1206,5.1206,5.1206,5.1176,5.1116,5.1068,5.0978,5.0978,5.1038,5.0966,4.9894,5.0193,5.0996,1.5378,1.6295,1.708,1.7152,1.7946,1.8827,1.9602,2.0668,2.2066,2.3809,2.4082,2.447,2.5429,2.4389,2.3204,2.2141,2.735,2.9996,2.8347,3.3971,3.6741,3.5353,3.4829,3.4643,3.4822,3.3675,3.309,3.309,3.2853,3.2863,3.3121,3.2665,3.2833,3.3515,3.3431,3.3861,3.4603,3.4802,3.5116,3.5511,3.5511,3.5511,3.5511,3.5511,3.516,3.457,3.3869,3.351,0.0,3.3142,3.2629,3.2156,3.262,3.2446,3.2231,3.2751,3.4318,3.6087,3.7086,3.8133,3.8956,3.9326,4.0076,4.1182,4.282,4.3741,4.4439,4.4989,4.4515,4.4422,4.5726,4.47,4.4372,0.0,4.6212,4.6295,4.8362,4.856,4.898,5.0244,5.0062,4.9628,4.9073,4.9864,5.0123,4.9451,5.0626,5.1146,5.0626,5.0996,5.1206,5.1206,5.0936,5.0775,5.0775,5.0529,5.0391,5.0391,5.0667,5.0775,5.0787,5.1056,5.1206,5.1206,5.1206,5.1206,5.1206,5.1206,5.1206,5.1206,5.1206,5.1206,5.1187,5.105,5.1079,5.1217,1.6416,1.758,1.8709,1.9484,1.981,2.0198,2.0948,2.1788,2.2714,2.3796,2.38,2.3886,2.4307,2.3432,2.2613,2.215,2.6575,2.9428,2.9486,3.4836,3.7704,3.7037,3.6358,3.6005,3.5952,3.4643,3.3974,3.3974,3.3974,3.4131,3.4446,3.4323,3.4605,3.5209,3.5261,3.5406,3.5685,3.5903,3.602,3.602,3.5848,3.5789,3.5759,3.5571,3.5216,3.4681,3.3773,3.3442,3.3326,3.2904,3.237,3.2085,3.2813,3.2907,3.3096,3.4815,3.7352,3.9738,4.0352,4.0768,4.0754,3.9414,4.0748,4.2388,4.2346,4.3603,4.4747,4.4619,4.3848,4.3589,4.4875,4.5144,4.5723,4.7549,4.8386,4.9213,5.0338,5.0272,5.0313,5.0847,5.0506,5.0207,5.0207,5.0637,5.0817,5.0506,5.1206,5.1307,5.0518,5.0936,5.1206,5.1206,5.1206,5.1206,5.1206,5.1206,5.1206,5.1206,5.1206,5.1206,5.1206,5.1206,5.1206,5.1206,5.1206,5.1206,5.1206,5.1206,5.1206,5.1206,5.1206,5.1206,5.1265,5.1756,5.1606,5.1265,1.7476,1.895,2.0312,2.0845,2.1601,2.2482,2.3621,2.3709,2.3796,2.4213,2.3826,2.3336,2.2831,2.251,2.2269,2.2109,2.5058,2.8147,3.1019,3.4196,3.6836,3.8723,3.7693,3.7049,3.7049,3.6416,3.6113,3.6113,3.6113,3.6105,3.6107,3.5584,3.5844,3.6704,3.6209,3.6482,3.7323,3.7327,3.7336,3.7306,3.6725,3.6455,3.6395,3.5759,3.4503,3.305,3.2881,3.2546,3.198,3.0721,3.0413,3.0563,3.0582,3.1564,3.3219,3.5792,4.0023,4.3559,4.199,4.2506,4.3048,4.1272,4.2096,4.3189,4.2529,4.3389,4.4497,4.5135,4.5255,4.5603,4.695,4.7219,4.7638,4.9018,4.9751,5.0387,5.1056,5.1696,5.1636,5.0387,5.0207,5.0207,0.0,5.0207,5.0476,5.1116,5.0607,5.0536,5.1146,5.1176,5.1206,5.1206,5.1206,5.1206,5.1206,5.1206,5.1206,5.1206,5.1206,5.1206,5.1206,5.1206,5.1206,5.1206,5.1206,5.1206,5.1206,5.1206,5.1206,5.1206,5.1206,5.1206,5.1206,5.1206,5.1217,5.1206,1.8526,1.9549,2.062,2.1511,2.2436,2.3187,2.3593,2.3188,2.319,2.4179,2.3922,0.0,0.0,0.0,0.0,0.0,2.6711,2.9009,2.9529,3.4797,3.7806,3.7576,3.8407,3.8665,3.8247,3.691,3.6212,3.6212,3.6212,3.6555,3.7252,3.7073,3.7525,3.8495,3.7881,3.777,3.8033,3.7584,3.7396,3.7336,3.6746,3.6493,3.6382,3.5355,3.4144,3.2812,0.0,3.0341,2.9843,2.9299,2.9138,2.9342,3.0227,3.1244,3.3143,3.8524,4.1914,4.4073,4.4783,4.4484,4.3693,4.2728,4.3254,4.4157,4.4855,4.5324,4.5952,4.7051,4.7285,4.7476,4.8041,4.8771,4.9629,5.0652,5.1226,5.1606,5.1816,5.2067,5.1887,5.0966,5.0877,0.0,0.0,0.0,0.0,5.1176,5.1397,5.1427,5.1206,5.1206,5.1206,5.1206,5.1206,5.1206,5.1206,5.1206,5.1206,5.1206,5.1206,5.1206,5.1206,5.1206,5.1206,5.1206,5.1206,5.1206,5.1206,5.1206,5.1457,5.1846,5.1846,5.2127,5.2528,5.2528,5.2528,5.2456,1.9754,2.0582,2.1409,2.2406,2.3094,0.0,0.0,0.0,0.0,0.0,0.0,0.0,0.0,0.0,0.0,0.0,0.0,2.8592,2.9358,3.3425,3.5956,3.638,3.6941,3.7134,3.6869,3.5615,3.5039,3.5264,3.5845,3.6643,3.7616,3.8117,3.8721,3.9391,3.896,3.8751,3.8721,3.8033,3.7605,3.7315,3.6331,3.5826,3.5483,3.4054,3.2693,0.0,2.9577,2.838,2.763,2.7389,2.7526,2.8027,2.9591,3.2544,3.6231,4.0413,4.3454,4.5535,4.6018,4.5633,4.4968,4.4187,4.4875,4.5892,4.652,4.7029,4.7608,4.8468,4.8716,4.8877,4.9246,4.9976,5.0822,5.1617,5.2145,5.2467,5.2342,5.2348,5.2072,5.1277,5.1206,5.1206,0.0,0.0,0.0,5.1206,5.1606,5.1636,5.1206,5.1206,5.1206,5.1206,5.1206,5.1206,5.1206,5.1206,5.1206,5.1206,5.1206,5.1206,5.1206,5.1457,5.1546,5.1576,5.1816,5.1905,5.1905,5.1905,5.2157,5.2558,5.2558,5.2827,5.3198,5.3198,5.3198,5.3139,2.0992,2.1853,2.2609,0.0,0.0,0.0,0.0,0.0,0.0,0.0,0.0,0.0,0.0,0.0,0.0,0.0,0.0,0.0,3.0252,3.0337,3.1748,3.5115,3.3626,3.2907,3.3367,3.2883,3.2926,3.3514,3.5041,3.6204,3.6972,3.8388,3.9065,3.9065,3.9083,3.9092,3.9071,3.8448,3.7759,3.6998,3.5405,3.4455,3.3769,3.1917,3.0347,2.8968,2.8081,2.6814,2.555,2.528,2.5858,2.7048,2.8991,3.5178,4.1694,4.1387,4.4611,4.7784,4.5841,4.6128,4.6758,4.5745,4.6931,4.8188,4.7608,4.8427,4.9348,4.9329,4.9531,4.9891,0.0,0.0,5.1319,5.1964,5.2597,5.2928,5.2674,5.2645,5.2256,0.0,0.0,0.0,0.0,0.0,0.0,5.1206,0.0,5.1206,5.1206,5.1206,5.1206,5.1206,5.1206,5.1206,5.1206,5.1236,5.1236,5.1236,5.1307,5.1307,5.1325,5.1977,5.2247,5.2276,5.2917,5.3198,5.3198,5.3198,5.3216,5.3246,5.3246,5.3288,5.3306,5.3306,5.3306,5.3306,0.0,0.0,0.0,0.0,0.0,0.0,0.0,0.0,0.0,0.0,0.0,0.0,0.0,0.0,0.0,0.0,0.0,0.0,2.7455,2.9666,3.1269,3.2053,3.2626,3.2984,3.3107,3.225,3.1927,3.2197,3.2745,3.3177,3.3491,3.4218,3.4566,3.4574,3.4874,3.5059,3.5146,3.5093,3.4408,3.335,3.3133,3.267,3.1958,3.0668,2.9698,2.8976,2.8593,2.7218,2.5834,2.726,2.9195,3.1236,3.301,3.6349,4.0025,4.219,4.4322,4.6221,4.7567,4.7589,4.7407,4.8096,4.8689,4.9127,4.9411,4.974,4.9887,4.9577,5.0518,5.1063,5.0039,5.1276,5.2527,5.2856,5.3034,0.0,5.3068,5.3056,0.0,5.1337,0.0,5.1756,5.1236,5.1206,0.0,0.0,5.1206,5.1206,5.1206,5.1206,5.1206,5.1206,5.1206,5.1206,5.1206,5.1696,5.1947,5.1947,5.2456,5.2677,5.2707,5.2857,5.2947,5.2947,5.3139,5.3198,5.3198,5.3198,5.3486,5.3952,5.3952,5.4251,5.4683,5.4683,5.4683,5.4683,0.0,0.0,0.0,0.0,0.0,0.0,0.0,0.0,0.0,0.0,0.0,0.0,0.0,0.0,0.0,0.0,0.0,0.0,0.0,2.8304,2.9325,2.9236,2.9459,2.9617,2.9724,2.8745,2.8588,2.9302,2.9694,3.0321,3.1106,3.185,3.2271,3.2384,3.2384,3.2432,3.2505,3.2354,3.1699,0.0,0.0,3.0452,2.9868,2.8997,2.8604,2.8451,2.7886,2.7269,2.7081,2.9645,3.1259,3.2548,3.4423,3.7079,3.9977,4.2177,4.4822,4.7279,4.8447,4.8678,4.8764,4.9494,4.9924,5.0096,4.9985,5.0005,4.9869,4.9136,5.0008,5.0558,4.9385,5.1047,5.2553,0.0,0.0,0.0,5.296,5.2666,5.2168,0.0,5.1546,0.0,5.1247,5.1206,5.1325,0.0,5.1367,5.1206,5.1206,5.1206,5.1325,5.1636,5.1636,5.1798,5.2067,5.2456,5.2648,5.2648,5.3007,5.3198,5.3228,5.3516,5.3635,5.3665,0.0,5.4084,5.4084,5.4084,5.4294,5.464,5.464,5.488,5.5251,5.5521,5.5641,5.5641,0.0,0.0,0.0,0.0,0.0,0.0,0.0,0.0,0.0,0.0,2.3348,0.0,0.0,0.0,0.0,0.0,0.0,0.0,0.0,0.0,2.6896,2.6794,2.5678,2.5136,2.526,2.4412,2.4563,2.5823,2.6379,2.7404,2.877,2.9785,3.0361,3.0495,3.0206,3.006,3.0056,2.9629,2.9125,2.8589,2.8412,2.8094,2.7692,0.0,2.7402,2.7637,2.6866,2.7429,2.8936,3.1677,3.2725,3.3194,3.5022,3.801,4.106,4.2004,4.5647,4.9284,4.889,4.9465,5.0237,5.0327,5.0787,5.0928,4.9944,4.9824,4.963,4.8426,4.8881,4.9277,4.8635,5.0421,5.1867,5.1478,0.0,5.2784,5.2699,5.2019,5.1444,5.1241,5.1206,5.1236,5.1325,5.1325,5.1606,5.2276,5.1786,5.1457,5.1457,5.1457,5.1726,5.2306,5.2336,5.2618,5.3186,5.3276,5.3336,5.3336,5.3426,5.3456,5.3498,5.4072,5.4329,5.4359,5.5042,0.0,5.5222,5.5371,5.5401,5.5341,5.5431,5.5461,5.5521,5.6102,5.6312,5.6312,0.0,0.0,0.0,0.0,0.0,0.0,0.0,0.0,0.0,0.0,2.4177,2.3589,0.0,0.0,0.0,0.0,0.0,0.0,0.0,0.0,0.0,2.5154,2.4681,2.4339,2.409,2.3493,2.3421,2.388,2.3899,2.3869,2.3843,2.4588,2.4678,2.4287,2.4866,2.5177,2.5315,2.5535,2.5373,2.4968,2.5692,2.5894,2.5872,2.6576,0.0,0.0,2.7393,2.8885,3.0749,3.1295,3.4383,3.808,3.8515,4.0559,4.2841,4.3027,4.5792,4.8892,4.9497,4.9917,5.0327,5.0877,5.1116,5.1056,5.041,5.0282,4.9866,4.8359,4.8804,4.9186,4.8135,4.9563,5.1126,5.1928,5.1944,5.214,5.2966,5.2048,5.1234,0.0,5.1206,5.1427,5.1977,5.2037,0.0,0.0,5.2917,5.2857,5.2857,5.2857,5.2917,5.3007,5.3049,5.3067,5.3198,5.3743,5.4042,5.403,5.4593,5.4862,5.4862,5.4982,5.5042,5.5059,5.5743,0.0,5.5281,5.6359,5.6479,5.6072,5.6568,5.6778,5.6778,5.6898,5.6958,5.6958,0.0,0.0,0.0,0.0,0.0,0.0,0.0,2.477,2.5274,2.6476,2.629,2.5945,2.5669,2.5413,2.5581,0.0,0.0,0.0,0.0,0.0,0.0,0.0,0.0,0.0,2.3956,2.3173,0.0,0.0,0.0,2.2438,2.261,2.2752,2.2637,2.2342,2.252,2.2644,2.2726,2.3366,2.3529,2.3523,2.4711,2.5532,2.612,2.6849,0.0,0.0,2.9694,3.3367,3.7334,3.5197,3.8482,4.3471,4.3499,4.4369,4.5653,4.7005,4.8629,4.9838,4.931,4.942,4.9774,5.0067,5.0167,4.997,4.9276,4.9411,4.9202,4.7305,4.807,4.8846,4.7999,4.944,5.0819,5.0978,5.1231,5.1556,5.2079,5.1606,5.1206,5.1206,5.1517,5.1846,5.2187,5.2528,5.3007,5.3653,5.3713,5.3575,5.3216,5.3545,5.3713,5.3713,5.4054,5.4234,5.4234,5.4551,5.473,5.473,5.5029,5.5192,5.5222,5.5551,5.573,5.576,5.6389,0.0,5.6239,5.6855,5.6928,5.6688,5.6987,5.7094,5.7124,5.7483,5.762,5.762,0.0,0.0,0.0,0.0,0.0,0.0,2.5332,2.572,2.6403,2.7705,2.8248,2.8198,2.7395,2.6707,2.6412,0.0,0.0,0.0,0.0,0.0,0.0,0.0,0.0,0.0,0.0,0.0,0.0,0.0,2.206,0.0,0.0,0.0,0.0,0.0,2.1645,2.1559,2.1649,2.2286,2.2801,0.0,0.0,2.5879,0.0,0.0,0.0,0.0,0.0,3.6824,4.1877,3.9254,4.1489,4.5268,4.4891,4.5537,4.6828,4.8861,4.9736,4.978,4.852,4.8677,4.9165,4.9073,4.9335,4.9403,4.8468,4.8646,4.8505,4.6541,4.7372,4.8293,4.7829,4.9161,5.0264,5.0078,5.063,5.1156,5.1367,5.1427,5.1427,5.1427,5.1887,0.0,5.2606,5.3126,0.0,5.4359,5.4418,5.4192,5.3665,5.4132,5.4418,5.4418,5.491,5.5192,5.5192,5.5341,5.5401,5.5431,5.5551,5.5611,5.5628,5.6149,5.6402,5.6432,5.7047,0.0,0.0,5.7393,5.7453,5.7334,5.7483,5.7526,5.7603,5.8128,5.8294,5.8294,0.0,0.0,0.0,0.0,0.0,0.0,2.5531,2.5693,2.6533,2.9063,2.8923,2.8612,2.8618,2.7612,2.649,0.0,0.0,0.0,0.0,0.0,0.0,0.0,0.0,0.0,0.0,0.0,0.0,0.0,0.0,0.0,0.0,0.0,0.0,0.0,0.0,2.2087,2.2227,2.2434,0.0,0.0,0.0,0.0,0.0,0.0,0.0,0.0,0.0,3.5718,3.8371,4.0497,4.0255,3.8743,3.7088,3.9833,4.369,4.373,4.5006,4.6512,4.708,4.8187,4.9094,4.8674,4.9793,5.0734,4.9688,4.9137,4.8499,4.7253,4.7317,4.7531,4.7243,4.7905,4.897,5.0328,5.0608,5.1005,5.1971,5.2127,5.2127,5.2127,0.0,0.0,5.388,5.4059,5.4401,5.5059,5.5089,5.5072,5.5012,5.5059,5.5089,5.5089,5.5162,5.5192,5.5192,5.5803,5.6102,5.6102,5.6658,5.6928,5.6928,5.6987,5.7017,5.7034,5.7709,0.0,0.0,5.8411,5.8547,5.8055,5.868,5.8919,5.8919,5.9009,5.8996,5.8996,0.0,0.0,0.0,0.0,0.0,0.0,2.482,2.5541,2.6683,2.873,2.9466,2.9545,2.8942,2.7997,2.7156,2.6455,0.0,0.0,0.0,0.0,0.0,0.0,0.0,0.0,0.0,0.0,0.0,0.0,0.0,0.0,0.0,0.0,0.0,0.0,0.0,0.0,2.1564,2.2023,0.0,0.0,0.0,0.0,0.0,0.0,0.0,0.0,0.0,0.0,3.7477,3.7332,3.6948,3.6539,3.6339,3.806,4.0567,4.2527,4.485,4.6778,4.7038,4.8125,4.9161,4.8967,4.9121,4.9291,4.915,4.8614,4.7828,4.6715,4.6594,4.6749,4.6994,4.6875,4.7612,5.0243,5.0196,5.0236,5.1478,5.2012,5.2092,5.1665,5.2306,5.3186,0.0,0.0,5.491,5.5192,5.5192,5.5371,5.5773,5.5431,5.5371,5.5803,5.5803,5.597,5.6359,5.6598,5.6748,5.6748,5.6987,5.7094,5.7094,5.75,5.7709,5.7739,5.8397,0.0,0.0,5.889,5.8949,5.8726,5.9009,5.9099,5.9099,5.9099,5.9099,5.9099,0.0,0.0,0.0,0.0,0.0,2.3358,2.4671,2.5623,2.6811,2.8607,2.9287,2.9338,2.8688,2.7499,2.6747,2.6729,2.623,0.0,0.0,0.0,0.0,0.0,0.0,0.0,0.0,0.0,0.0,2.2373,2.2281,0.0,0.0,0.0,0.0,0.0,0.0,0.0,0.0,0.0,0.0,0.0,0.0,0.0,0.0,0.0,0.0,0.0,0.0,0.0,0.0,0.0,0.0,3.4859,3.5294,3.6352,3.8041,4.1141,4.3979,4.631,4.7259,4.8349,4.9296,4.9691,4.9163,4.8608,4.8766,4.796,4.6922,4.5987,4.5806,4.5873,4.6214,4.612,4.6776,4.9296,4.9627,4.9898,5.0855,5.1844,5.2231,5.1563,5.2599,5.3574,5.4156,5.482,5.5192,5.5192,5.5371,5.57,5.6162,5.591,5.597,5.6462,5.6462,5.6658,5.7094,5.7304,5.7393,5.7393,5.7603,5.7693,5.7723,5.8188,5.8397,5.8427,5.8876,0.0,0.0,5.9099,5.9099,5.9099,5.9099,5.9099,5.9099,5.9099,5.9099,5.9099,0.0,0.0,0.0,0.0,0.0,0.0,2.5483,2.5977,2.689,2.9106,2.8121,2.7411,2.7854,2.5894,2.4829,2.5544,2.5733,0.0,0.0,0.0,0.0,0.0,0.0,0.0,0.0,0.0,2.1946,2.1597,2.0998,2.1329,2.246,2.2006,0.0,0.0,0.0,0.0,0.0,0.0,0.0,0.0,0.0,0.0,3.3576,0.0,0.0,0.0,0.0,0.0,0.0,0.0,0.0,0.0,0.0,3.3932,3.6379,3.8659,4.1246,4.4077,4.7542,4.8823,4.9504,5.0858,5.0368,4.9447,4.8912,4.7303,4.5767,4.5204,4.5066,4.4919,4.467,4.5695,4.6736,4.7263,4.8949,5.0197,5.0191,5.1777,5.2702,5.224,5.309,5.3837,5.4158,5.482,5.5192,5.5192,5.5803,0.0,5.6192,5.6748,5.7064,5.7107,5.7107,5.7107,5.7094,5.7769,5.8085,5.8085,5.8756,5.9069,5.9069,5.9099,5.9099,5.9099,0.0,0.0,0.0,5.9099,5.9099,5.9099,5.9099,5.9099,5.9099,5.9099,5.9099,5.9099,0.0,0.0,0.0,0.0,0.0,0.0,0.0,2.4442,2.5364,2.6325,2.6675,2.6704,2.6296,2.5658,2.5219,2.5124,2.4774,0.0,0.0,0.0,0.0,0.0,0.0,0.0,0.0,0.0,2.2605,2.2349,2.2581,2.2544,2.2302,2.2198,2.1923,2.1531,2.1616,0.0,0.0,0.0,0.0,0.0,0.0,3.0378,3.1608,0.0,0.0,0.0,0.0,0.0,0.0,0.0,0.0,0.0,0.0,0.0,0.0,3.5873,3.904,4.2272,4.3531,4.506,4.6388,4.6692,4.6671,4.6681,4.7138,4.6192,4.5172,4.4933,4.4477,4.4127,4.4196,4.4277,4.54,4.862,4.938,5.019,5.1879,5.312,5.3548,5.2774,5.3899,5.476,5.4858,5.5491,5.588,5.588,5.6449,5.7017,5.747,5.7679,5.7799,5.7799,5.7799,5.8008,5.8471,5.868,5.8786,5.8786,5.9009,5.9099,5.9099,5.9099,5.9099,0.0,0.0,0.0,0.0,5.9099,5.9099,5.9099,5.9099,5.9099,5.9099,5.9099,5.9099,5.9099,0.0,0.0,0.0,0.0,0.0,0.0,0.0,2.3806,2.4641,2.48,2.5427,2.5729,2.5352,2.4934,2.4683,2.4681,2.4189,0.0,0.0,0.0,0.0,0.0,0.0,0.0,0.0,2.2691,2.291,2.2586,2.3177,2.3388,2.3245,2.292,2.2224,2.1292,2.1717,0.0,0.0,0.0,0.0,0.0,2.9074,2.9945,3.0753,0.0,0.0,0.0,0.0,0.0,0.0,0.0,0.0,0.0,0.0,0.0,0.0,0.0,3.5988,3.9306,4.093,4.3096,4.4936,4.513,4.5217,4.5414,4.6021,4.5273,4.4496,4.4692,4.4237,4.3835,4.3938,4.4288,4.5344,4.7727,4.8907,5.0076,5.1709,5.3005,5.3699,5.3546,5.4309,5.4985,5.5413,5.5696,5.5961,5.6298,5.6784,5.7282,5.7686,5.8181,5.8487,5.8487,5.8487,5.8667,5.9099,5.9099,5.9099,5.9099,5.9099,5.9099,5.9099,5.9099,5.9099,0.0,0.0,0.0,0.0,5.9099,5.9099,5.9099,5.9099,5.9099,5.9099,5.9099,5.9099,5.9099,0.0,0.0,0.0,0.0,0.0,0.0,0.0,2.3758,2.441,2.4232,2.4278,2.4452,2.4728,2.3871,2.3551,2.4206,0.0,0.0,0.0,0.0,0.0,0.0,0.0,0.0,0.0,2.2672,2.2916,2.2419,2.2943,2.3859,2.5152,2.4127,2.3164,2.2351,2.3298,2.3699,0.0,0.0,0.0,0.0,2.9362,2.9961,0.0,0.0,0.0,0.0,0.0,0.0,0.0,0.0,0.0,0.0,0.0,0.0,0.0,0.0,0.0,0.0,0.0,4.2266,4.4486,4.5266,4.5208,4.5047,4.5332,4.4489,0.0,4.4391,4.42,4.39,4.3881,4.5256,4.6142,4.5338,4.7816,4.9952,5.0354,5.1937,5.3466,5.4589,5.4473,5.4785,5.5878,5.5619,5.5712,5.6517,5.6991,5.7252,5.7252,5.8413,5.9099,5.9099,5.9099,5.9099,5.9099,5.9099,5.9099,5.9099,5.9099,5.9099,5.9099,5.9099,5.9099,0.0,0.0,0.0,0.0,5.9099,5.9099,5.9099,5.9099,5.9099,5.9099,5.9099,5.9099,5.9099,0.0,0.0,0.0,0.0,0.0,0.0,0.0,0.0,0.0,0.0,2.259,2.2751,2.2563,2.3403,2.3931,0.0,0.0,0.0,0.0,0.0,0.0,0.0,0.0,0.0,0.0,2.2411,2.274,2.2707,2.2824,2.4223,2.6727,2.5642,2.4468,2.3349,2.3663,2.4321,0.0,0.0,0.0,0.0,3.0441,3.0003,0.0,0.0,0.0,0.0,2.9664,2.9658,0.0,0.0,0.0,0.0,0.0,0.0,0.0,0.0,3.2532,3.3491,3.5398,0.0,4.0151,4.0075,4.094,4.2125,0.0,4.3384,4.3432,4.3595,4.329,4.3159,4.3664,4.4038,4.4961,4.6973,4.8339,4.9854,5.1962,5.3494,5.4794,5.5714,5.5763,5.6021,5.6753,5.7042,5.7256,5.7491,5.8187,5.8632,5.8632,5.8939,5.9099,5.9099,5.9099,5.9099,5.9099,5.9099,5.9099,5.9099,5.9099,5.9099,5.9099,5.9099,5.9099,0.0,0.0,0.0,5.9099,5.9099,5.9099,5.9099,5.9099,5.9099,5.9099,5.9099,5.9099,5.9099,0.0,0.0,0.0,0.0,0.0,0.0,0.0,0.0,0.0,0.0,0.0,2.2252,2.2134,2.3441,0.0,0.0,0.0,0.0,0.0,0.0,0.0,0.0,0.0,0.0,2.1674,2.2728,2.2803,2.1842,2.4257,2.5727,2.6236,2.6168,2.518,2.3423,2.3466,2.4094,0.0,0.0,0.0,2.8535,3.0321,0.0,0.0,0.0,0.0,0.0,2.9618,2.9646,0.0,2.9705,2.9937,3.0241,0.0,0.0,0.0,0.0,3.1636,3.2029,3.3902,3.6143,3.801,3.8371,3.9629,4.0997,4.1893,4.2713,4.3237,4.2971,4.2773,4.291,4.3914,4.4931,4.6123,4.763,4.9392,5.1366,5.3574,5.531,5.6396,5.6506,5.6634,5.6894,5.7367,5.7464,5.7736,5.8347,5.8819,5.9099,5.9099,5.9099,5.9099,5.9099,5.9883,5.991,5.9099,5.9099,5.9099,5.9099,5.9696,6.0162,6.0519,6.0799,6.0918,0.0,0.0,0.0,5.9983,5.9697,5.9548,5.9548,5.9548,5.9368,5.9099,5.9099,5.9099,5.9099,0.0,0.0,0.0,0.0,0.0,0.0,0.0,0.0,0.0,0.0,0.0,0.0,0.0,0.0,0.0,0.0,0.0,0.0,0.0,0.0,0.0,0.0,0.0,2.1683,2.1384,2.3144,2.3078,2.1076,2.6119,2.7557,2.5568,2.6492,2.5701,2.3491,2.3513,2.3884,0.0,0.0,2.787,2.7962,2.954,0.0,0.0,0.0,0.0,0.0,0.0,0.0,0.0,2.9387,2.9815,3.0369,3.0023,0.0,0.0,0.0,0.0,0.0,3.3703,3.5434,3.693,3.8664,3.9906,4.0739,4.0891,4.207,4.298,4.2515,4.2654,4.318,4.4268,4.6477,4.8162,4.8169,5.0534,5.3078,5.4983,5.6782,5.766,5.7044,5.7145,5.7465,5.7939,5.7623,5.7874,5.9012,5.9099,5.9099,5.9099,5.9099,5.9207,5.9493,6.0935,6.1046,5.9696,5.9696,5.9696,5.9709,6.0913,6.1812,6.2507,6.3084,6.3385,6.3352,0.0,0.0,6.1663,6.1115,6.0886,6.0886,6.0886,6.0509,5.9998,5.968,5.957,5.9529,0.0,0.0,0.0,0.0,0.0,0.0,0.0,0.0,0.0,0.0,0.0,0.0,0.0,0.0,0.0,0.0,0.0,0.0,0.0,0.0,0.0,0.0,0.0,2.1338,2.082,2.2811,2.3512,2.2814,2.6688,2.8409,2.8035,2.7702,2.6743,2.5319,2.5419,2.543,2.5498,2.6951,2.7707,2.7928,2.8555,0.0,0.0,0.0,0.0,0.0,0.0,0.0,0.0,2.8173,2.8419,2.8968,2.9688,0.0,0.0,0.0,0.0,0.0,3.3719,3.4577,3.5687,3.9466,4.0556,4.0345,3.8997,4.0552,4.2262,4.2178,4.3349,4.4278,4.3976,4.6609,4.914,5.0094,5.0887,5.2623,5.606,5.6753,5.7024,5.7271,5.7192,5.7607,5.8789,5.8836,5.8865,5.9085,5.9099,5.9099,5.9099,5.9099,5.979,6.125,6.1564,6.1934,6.2409,6.2409,6.2409,6.2421,6.3238,6.368,6.382,6.454,6.488,6.4853,0.0,6.4568,6.457,6.4443,6.4424,6.4424,6.4424,6.4361,6.4064,6.2356,6.1729,6.1453,0.0,0.0,0.0,0.0,0.0,0.0,0.0,0.0,0.0,0.0,0.0,0.0,0.0,0.0,0.0,0.0,0.0,0.0,0.0,0.0,0.0,0.0,0.0,0.0,2.1837,2.3491,2.4836,2.5837,2.8565,2.9444,2.8569,2.708,2.6469,2.6483,2.4701,2.4243,2.4828,2.5395,2.605,2.6739,0.0,0.0,0.0,0.0,0.0,0.0,0.0,0.0,0.0,0.0,2.8059,2.8717,2.9346,0.0,0.0,0.0,0.0,0.0,3.2858,3.5392,3.9271,4.6679,4.4818,4.098,4.0213,3.969,4.0024,4.2365,4.4824,4.6258,4.5364,4.7619,5.0576,5.3552,5.3483,5.3711,5.5669,5.7654,5.8725,5.8172,5.8254,5.8546,5.9066,5.9099,5.9099,5.9099,5.9099,5.9099,5.9099,5.999,6.0883,6.1653,6.2815,6.3819,6.4598,6.5302,6.498,6.3609,6.5039,6.5938,6.6352,6.7015,6.7339,6.7314,0.0,6.6242,6.6248,6.5876,6.576,6.576,6.576,6.5504,6.5102,6.4158,6.3836,6.3685,0.0,0.0,0.0,0.0,0.0,0.0,0.0,0.0,0.0,0.0,0.0,0.0,0.0,0.0,0.0,0.0,0.0,0.0,0.0,0.0,0.0,0.0,0.0,0.0,2.3573,2.4319,2.5886,2.8225,2.9635,2.9819,2.8826,2.6945,2.6377,2.6854,2.4237,2.3558,2.4395,2.4434,2.4841,2.5605,0.0,0.0,0.0,0.0,0.0,0.0,0.0,0.0,0.0,0.0,0.0,0.0,0.0,0.0,0.0,3.0447,3.0537,3.0807,3.2035,3.5919,4.1401,4.8891,4.7773,4.4803,4.4782,4.2951,4.2223,4.5566,4.7779,4.8774,4.7486,4.9465,5.2573,5.6405,5.5993,5.539,5.6011,5.8576,6.0006,5.8909,5.9101,5.9264,5.9123,5.9099,5.9099,5.9099,5.9099,5.9099,5.9099,6.0971,6.2107,6.2279,6.4309,6.583,6.6731,6.7867,6.7358,6.5286,6.6991,6.8125,6.8691,6.9323,6.9648,6.9625,6.8545,6.8125,6.8137,6.7609,6.7394,6.7394,6.7394,6.6768,6.5909,6.5909,6.5596,6.5208,0.0,0.0,0.0,0.0,0.0,0.0,0.0,0.0,0.0,0.0,0.0,0.0,0.0,0.0,0.0,0.0,0.0,0.0,0.0,0.0,0.0,0.0,0.0,0.0,2.5819,2.4982,2.5836,2.8557,2.8397,2.8763,2.9588,2.8765,2.7528,2.5997,2.5733,2.5514,0.0,0.0,2.5384,2.5321,2.5425,0.0,0.0,0.0,0.0,0.0,0.0,0.0,0.0,0.0,0.0,0.0,0.0,0.0,3.0296,3.0319,3.0311,3.0554,3.1652,3.498,3.8082,3.7732,4.6003,5.423,5.4232,5.4058,5.3982,5.43,5.3248,5.1768,5.0157,5.2566,5.5408,5.7178,5.7144,5.7372,5.8638,5.9044,5.9171,5.909,5.9107,5.9137,5.9099,5.9099,5.9099,5.9099,5.9099,5.9099,5.9099,6.1647,6.3343,6.3923,6.5896,6.7564,6.887,6.9655,6.9611,6.8737,6.9567,7.0017,7.0084,7.0793,7.1143,7.1131,7.1041,7.0985,7.1007,7.094,7.094,7.094,7.094,6.9717,6.7972,6.7972,6.6805,6.5208,0.0,0.0,0.0,0.0,0.0,0.0,0.0,0.0,0.0,0.0,0.0,0.0,0.0,0.0,0.0,0.0,0.0,0.0,0.0,0.0,2.3611,0.0,0.0,2.5537,2.6998,2.7338,2.8275,2.9912,2.9391,2.9398,2.9787,2.8773,2.7241,2.5413,0.0,0.0,0.0,0.0,0.0,2.51,2.5095,2.5132,0.0,0.0,0.0,0.0,0.0,0.0,0.0,0.0,2.7526,2.8369,2.8889,2.9638,3.0326,3.0455,3.0402,3.049,3.1414,3.4874,3.8332,3.8666,4.2554,4.6264,4.6101,5.0794,5.5207,5.519,5.4557,5.3629,5.2482,5.4105,5.5987,5.707,5.7872,5.8507,5.9034,5.9101,5.9087,5.9099,5.9099,5.9099,5.9099,5.9099,5.9099,5.9099,5.9099,5.9279,5.9711,6.2294,6.4053,6.4712,6.7072,6.8819,6.9755,7.0071,7.0297,7.0455,7.077,7.0861,7.0906,7.1165,7.13,7.13,7.13,7.13,7.13,7.13,7.13,7.13,7.13,7.0827,7.0149,7.0149,6.9661,6.8978,0.0,0.0,0.0,0.0,0.0,0.0,0.0,0.0,0.0,0.0,0.0,0.0,0.0,0.0,0.0,0.0,0.0,0.0,0.0,2.3251,2.3366,2.4361,2.4924,2.5899,2.7389,2.8473,2.9685,3.1045,3.0246,2.981,2.9681,2.862,2.7386,0.0,0.0,0.0,0.0,0.0,0.0,0.0,2.5429,2.5512,0.0,0.0,0.0,0.0,0.0,0.0,0.0,0.0,2.7774,2.8825,2.9337,2.9916,3.0402,3.0425,3.0911,3.1521,3.2084,3.5396,3.9025,4.0217,4.1488,4.2458,4.2411,4.9042,5.5109,5.4842,5.4813,5.4704,5.4274,5.5141,5.6174,5.7084,5.8114,5.8844,5.9068,5.9087,5.9099,5.9099,5.9099,5.9099,5.9099,5.9099,5.9099,5.9099,5.9308,5.9795,6.0705,6.3323,6.5183,6.6035,6.8512,7.0026,7.0534,7.0534,7.0804,7.13,7.13,7.13,7.13,7.13,7.13,7.13,7.13,7.13,7.13,7.13,7.13,7.13,7.13,7.13,7.13,7.13,7.13,7.13,0.0,0.0,0.0,0.0,0.0,0.0,0.0,0.0,0.0,0.0,0.0,0.0,0.0,0.0,0.0,0.0,0.0,0.0,2.3088,2.2733,2.302,2.4141,2.4318,2.5195,2.6925,2.7885,2.9492,3.1777,3.0569,2.975,2.9277,2.8454,0.0,0.0,0.0,0.0,0.0,0.0,0.0,0.0,2.6358,2.6637,2.7115,0.0,0.0,0.0,0.0,0.0,0.0,0.0,2.8584,3.0319,3.0525,3.0631,3.0559,3.0203,3.1869,3.3791,3.3799,3.6543,3.9725,4.092,4.3567,4.5979,4.6424,5.1023,5.4925,5.4079,5.4447,5.5019,5.5425,5.5713,5.6272,5.7329,5.7838,5.8338,5.8996,5.9099,5.9099,5.9099,5.9099,5.9099,5.9099,5.9099,5.9099,5.9113,5.9725,6.0735,6.2156,6.4755,6.6839,6.8154,7.0228,7.13,7.13,7.13,7.13,7.13,7.13,7.13,7.13,7.13,7.13,7.13,7.13,7.13,7.13,7.13,7.13,7.13,7.13,7.13,7.13,7.13,7.13,7.13,0.0,0.0,0.0,0.0,0.0,0.0,0.0,0.0,0.0,0.0,0.0,0.0,0.0,0.0,0.0,0.0,0.0,0.0,2.3344,2.3467,2.3573,2.3636,2.4043,2.4491,2.5029,2.5538,2.689,2.9119,2.878,2.8438,2.8113,0.0,0.0,0.0,0.0,0.0,0.0,0.0,0.0,0.0,2.668,2.6237,2.5741,0.0,0.0,0.0,0.0,0.0,0.0,0.0,0.0,0.0,3.0313,3.1818,3.2881,3.0839,3.1935,3.369,3.3232,3.7214,4.1527,4.1607,4.6607,5.1149,4.971,5.143,5.36,5.4615,5.5365,5.5757,5.5543,5.6569,5.7449,5.7506,5.8241,5.8876,5.9056,5.9099,5.9099,5.9099,5.9099,5.9099,5.9099,5.9099,5.9694,6.1182,6.1476,6.2599,6.4888,6.6675,6.8026,6.8888,7.0473,7.13,7.13,7.13,7.13,7.13,7.13,7.13,7.13,7.13,7.13,7.13,7.13,7.13,7.13,7.13,7.13,7.13,7.13,7.13,7.13,7.13,7.13,7.13,0.0,0.0,0.0,0.0,0.0,0.0,0.0,0.0,2.4214,2.4924,2.5141,2.5421,0.0,0.0,0.0,2.472,2.4678,0.0,2.3082,2.3684,2.391,2.3531,2.4148,2.4509,2.4564,2.4862,2.5418,2.6212,2.6118,2.6306,2.6811,0.0,0.0,0.0,0.0,0.0,0.0,0.0,0.0,0.0,2.6931,2.6439,2.557,0.0,0.0,0.0,0.0,0.0,0.0,0.0,0.0,0.0,3.0096,3.1405,3.2507,3.1627,3.318,3.5372,3.6199,4.015,4.4294,4.5416,4.9419,5.3012,5.2847,5.3011,5.3632,5.5247,5.5923,5.6261,5.6479,5.7395,5.8108,5.813,5.8684,5.9099,5.9099,5.9099,5.9099,5.9099,5.9099,5.9099,5.9099,5.9861,6.0866,6.2125,6.3192,6.4729,6.6873,6.8023,6.9051,7.0019,7.0848,7.13,7.13,7.13,7.13,7.13,7.13,7.13,7.13,7.13,7.13,7.13,7.13,7.13,7.13,7.13,7.13,7.13,7.13,7.13,7.13,7.13,7.13,7.13,0.0,0.0,0.0,0.0,0.0,0.0,0.0,2.448,2.4774,2.5598,2.5693,2.572,0.0,0.0,0.0,2.4491,2.4492,2.3951,2.252,2.3546,2.405,2.3684,2.4418,2.49,2.5042,2.5215,2.4778,2.3637,2.343,2.4088,0.0,0.0,0.0,0.0,0.0,0.0,0.0,0.0,0.0,0.0,0.0,2.6888,2.6104,2.5355,0.0,0.0,0.0,0.0,0.0,0.0,0.0,0.0,2.9732,2.9941,3.0612,3.2368,3.5044,3.8127,4.1072,4.4274,4.7583,5.0792,5.1899,5.2886,5.558,5.5311,5.482,5.6042,5.6342,5.6718,5.7889,5.8145,5.8397,5.9009,5.9099,5.9099,5.9099,5.9099,5.9099,5.9099,5.9207,5.9301,5.9361,6.1204,6.2485,6.272,6.4989,6.7007,6.8394,6.9046,6.9973,7.1255,7.13,7.13,7.13,7.13,7.13,7.13,7.13,7.13,7.13,7.13,7.13,7.13,7.13,7.13,7.13,7.13,7.13,7.13,7.13,7.13,7.13,7.13,7.13,7.13,0.0,0.0,0.0,0.0,0.0,0.0,2.309,2.389,2.456,2.4958,2.5627,2.592,2.5542,2.5469,0.0,2.3819,2.4485,2.4286,2.2647,2.3652,2.3996,2.3352,2.3922,2.4377,2.4613,2.4209,2.4204,2.4596,2.49,2.5117,0.0,0.0,0.0,0.0,0.0,0.0,0.0,0.0,0.0,0.0,0.0,2.6283,2.5316,2.5596,2.5684,0.0,0.0,0.0,0.0,0.0,0.0,0.0,2.8217,2.9664,3.1648,3.189,3.5179,3.9115,4.1052,4.5268,4.9485,5.112,5.3386,5.5425,5.6068,5.6329,5.6555,5.6838,5.7334,5.7769,5.8068,5.8517,5.8936,5.9069,5.9099,5.9099,5.9099,5.9099,5.9099,5.9099,5.9966,6.0842,6.1462,6.2846,6.4587,6.674,6.7444,6.8595,7.0534,7.0781,7.0996,7.1289,7.13,7.13,7.13,7.13,7.13,7.13,7.13,7.13,7.13,7.13,7.13,7.13,7.13,7.13,7.13,7.13,7.13,7.13,7.13,7.13,7.13,7.13,7.13,7.13,0.0,0.0,0.0,0.0,0.0,0.0,0.0,0.0,2.4513,2.5227,2.5851,2.6081,2.5808,2.5775,0.0,0.0,2.4596,2.4203,2.2568,2.367,2.4346,2.4223,2.4658,2.4802,2.4593,2.4193,2.4211,2.4721,2.5333,0.0,0.0,0.0,0.0,0.0,0.0,0.0,0.0,0.0,0.0,0.0,0.0,0.0,0.0,2.5449,2.5505,2.5785,2.742,0.0,0.0,0.0,0.0,0.0,0.0,0.0,3.123,3.2403,3.5453,3.9388,4.3712,4.7398,5.0594,5.3121,5.498,5.6282,5.6581,5.7124,5.7663,5.7992,5.8068,5.8205,5.8517,5.8846,5.9099,5.9099,5.9099,5.9099,5.9099,5.9099,5.9099,5.9099,5.9968,6.0998,6.2081,6.395,6.597,6.8041,6.9138,7.016,7.1233,7.13,7.13,7.13,7.13,7.13,7.13,7.13,7.13,7.13,7.13,7.13,7.13,7.13,7.13,7.13,7.13,7.13,7.13,7.13,7.13,7.13,7.13,7.13,7.13,7.13,7.13,7.13,0.0,0.0,0.0,0.0,0.0,0.0,0.0,0.0,0.0,2.5662,2.601,2.6087,2.5926,2.5833,2.5422,0.0,0.0,0.0,2.2271,2.3387,2.4341,2.4857,2.5276,2.5316,2.4918,2.4653,2.4651,2.4916,2.5466,0.0,0.0,0.0,0.0,0.0,0.0,0.0,0.0,0.0,0.0,0.0,0.0,0.0,0.0,0.0,0.0,2.6059,2.6574,2.7368,2.8193,2.8288,0.0,0.0,0.0,0.0,3.0614,3.324,3.5978,3.953,4.5911,4.8967,5.1278,5.5329,5.6372,5.6521,5.7124,5.7799,5.8427,5.9009,5.8667,5.8457,5.9009,5.9099,5.9099,5.9099,5.9099,5.9129,5.9249,5.9279,5.9308,5.9428,6.0327,6.1468,6.2778,6.533,6.7407,6.8635,7.0319,7.13,7.13,7.13,7.1199,7.0961,7.095,7.095,7.095,7.095,7.1064,7.13,7.13,7.13,7.13,7.13,7.13,7.13,7.13,7.13,7.13,7.13,7.13,7.13,7.13,7.13,7.13,7.13,7.13,7.13,0.0,0.0,0.0,0.0,0.0,0.0,0.0,0.0,0.0,0.0,2.5753,2.5627,2.4812,2.4413,2.3777,2.2725,2.2726,2.2469,2.1742,0.0,0.0,2.3118,2.3908,2.4765,2.5722,2.5307,2.5567,2.6582,2.6121,0.0,0.0,0.0,0.0,0.0,0.0,0.0,0.0,0.0,0.0,0.0,0.0,0.0,0.0,0.0,0.0,0.0,0.0,0.0,2.7993,2.7167,2.7759,0.0,0.0,0.0,3.1406,3.3732,3.7061,4.051,4.3077,4.7213,5.1792,5.5948,5.6987,5.7154,5.7829,5.8487,5.9009,5.9085,5.9039,5.8996,5.9085,5.9099,5.9099,5.9099,5.9099,5.9308,5.9891,5.998,6.0176,6.0761,6.2963,6.4773,6.5586,6.8078,7.0007,7.0816,7.1143,7.13,7.13,7.13,7.0745,6.9537,6.9469,6.9469,6.9469,6.9469,7.0078,7.13,7.13,7.13,7.13,7.13,7.13,7.13,7.13,7.13,7.13,7.13,7.13,7.13,7.13,7.13,7.13,7.13,7.13,7.13,0.0,0.0,0.0,0.0,0.0,0.0,0.0,0.0,0.0,0.0,0.0,2.5063,2.4657,2.397,2.3225,2.2377,2.229,2.2106,2.1685,2.2318,2.2874,2.3225,2.3769,2.4562,2.5643,2.5397,2.5669,2.6503,0.0,0.0,0.0,2.6958,2.7111,0.0,0.0,0.0,0.0,0.0,0.0,0.0,0.0,0.0,0.0,0.0,0.0,0.0,0.0,0.0,0.0,0.0,2.7818,2.8474,2.835,0.0,0.0,0.0,3.5941,3.9586,4.4767,4.9058,5.293,5.6713,5.7393,5.7274,5.7949,5.8607,5.9099,5.9099,5.9398,5.9548,5.9189,5.9499,5.9782,5.9681,5.9967,6.0312,6.0625,6.1307,6.1896,6.2188,6.4279,6.6125,6.7224,6.8727,7.0102,7.121,7.13,7.13,7.13,7.0551,6.9855,6.9229,6.9205,6.9205,6.9205,6.9984,7.0699,7.13,7.13,7.13,7.13,7.13,7.13,7.13,7.13,7.13,7.13,7.13,7.13,7.13,7.13,7.13,7.13,7.13,7.13,7.13,0.0,0.0,0.0,0.0,0.0,0.0,0.0,0.0,0.0,0.0,0.0,2.4627,2.4573,0.0,0.0,0.0,2.1769,2.1467,2.1093,2.1921,2.2581,2.2998,2.3544,2.4354,2.5419,2.5498,2.5798,2.6328,0.0,0.0,2.6508,2.6533,2.6618,0.0,2.5778,0.0,0.0,0.0,0.0,0.0,0.0,2.9395,0.0,0.0,0.0,0.0,0.0,0.0,0.0,0.0,0.0,0.0,0.0,0.0,0.0,0.0,0.0,3.8688,4.5463,4.8924,5.17,5.5982,5.6764,5.6836,5.8085,5.8726,5.9099,5.9099,5.9651,6.0008,5.9458,6.0022,6.0469,6.0144,6.0655,6.129,6.1799,6.2733,6.356,6.4084,6.5791,6.7357,6.8358,6.923,7.0181,7.1233,7.0984,7.0768,7.0768,6.9454,6.8687,6.8687,6.8687,6.8846,6.9205,7.0597,7.1109,7.078,7.112,7.13,7.13,7.13,7.13,7.13,7.13,7.13,7.13,7.13,7.13,7.13,7.13,7.13,7.13,7.13,7.13,7.1255,0.0,0.0,0.0,0.0,0.0,0.0,0.0,0.0,0.0,0.0,0.0,2.4434,2.4254,2.3155,2.2139,2.1324,2.0671,2.0023,1.936,2.0079,2.0799,2.1397,2.2722,0.0,2.5286,2.5859,2.6328,0.0,0.0,0.0,2.6508,2.662,2.6897,2.7236,2.6675,2.6283,2.6005,0.0,0.0,0.0,0.0,0.0,0.0,0.0,0.0,0.0,0.0,0.0,0.0,0.0,0.0,0.0,0.0,0.0,0.0,0.0,0.0,0.0,4.2387,4.3958,4.6093,5.2521,5.4518,5.5645,5.8417,5.9056,5.9099,5.9099,5.9796,6.0316,6.0084,6.0595,6.0864,6.022,6.0655,6.1785,6.3664,6.3995,6.479,6.6741,6.8196,6.9079,6.9139,7.039,7.1233,7.1289,7.0055,6.9313,6.9313,6.8024,6.7292,6.7292,6.7292,6.7899,6.9193,7.0597,7.062,6.9325,7.0643,7.13,7.13,7.13,7.13,7.13,7.13,7.13,7.13,7.13,7.13,7.13,7.13,7.13,7.13,7.13,7.13,7.1098,0.0,0.0,0.0,0.0,0.0,0.0,0.0,0.0,0.0,0.0,0.0,0.0,0.0,0.0,0.0,0.0,2.0213,1.9785,1.9236,2.0478,2.1243,2.1306,2.3058,2.4501,2.5461,2.5957,0.0,0.0,0.0,2.6207,2.662,2.6602,2.6763,2.7053,2.5912,2.5878,2.6534,2.4448,0.0,0.0,0.0,0.0,0.0,0.0,0.0,0.0,0.0,0.0,0.0,0.0,0.0,0.0,0.0,0.0,0.0,0.0,3.7025,3.9051,4.2229,4.3595,4.5438,5.0963,5.3594,5.5177,5.665,5.8393,5.9741,5.9741,6.0324,6.0832,6.0745,6.1633,6.2154,6.1491,6.1956,6.2634,6.3353,6.4982,6.6361,6.7093,6.8392,6.9561,7.047,7.0193,6.9961,6.9961,6.9469,6.8821,6.7949,6.7458,6.6777,6.5875,6.7559,6.9145,7.0539,7.1052,7.1052,7.0551,7.1064,7.13,7.13,7.13,7.13,7.13,7.13,7.13,7.13,7.13,7.13,7.13,7.13,7.13,7.1199,7.0286,6.9961,6.9751,0.0,0.0,0.0,0.0,0.0,0.0,0.0,0.0,0.0,0.0,0.0,0.0,0.0,0.0,0.0,0.0,2.0073,1.9891,1.9649,2.0779,2.1582,2.1835,2.3458,2.474,2.559,2.6087,0.0,0.0,0.0,0.0,0.0,0.0,2.6519,2.6841,2.5425,0.0,0.0,0.0,0.0,2.5518,0.0,0.0,3.9922,0.0,0.0,0.0,0.0,0.0,0.0,0.0,0.0,0.0,0.0,0.0,0.0,0.0,0.0,0.0,4.1268,4.2528,4.4349,4.9187,5.156,5.3369,5.5851,5.7653,5.9023,5.9921,6.0625,6.109,6.109,6.2203,6.2889,6.221,6.2674,6.3422,6.4362,6.6048,6.7521,6.8454,6.937,7.0275,7.1222,7.0019,6.9205,6.9205,6.8367,0.0,6.653,6.6061,6.5808,6.5795,6.7999,6.9421,6.9902,7.0389,7.0135,6.9238,7.0158,7.0597,7.0608,7.1075,7.13,7.1267,7.0802,7.0597,7.0597,7.0597,7.0309,6.9982,7.0436,7.0309,6.9902,6.9914,6.9609,6.9064,0.0,0.0,0.0,0.0,0.0,0.0,0.0,0.0,0.0,0.0,0.0,0.0,0.0,0.0,0.0,0.0,2.025,2.0332,2.0508,2.0828,2.157,2.2849,2.3807,2.4719,2.5606,0.0,0.0,0.0,0.0,0.0,0.0,0.0,2.6155,0.0,2.5342,2.528,2.5979,0.0,2.4594,2.5843,0.0,3.9877,3.9447,0.0,0.0,0.0,4.046,3.9257,0.0,0.0,0.0,0.0,0.0,0.0,0.0,0.0,0.0,0.0,0.0,0.0,0.0,4.693,4.8322,5.0141,5.6067,5.6745,5.6851,5.9502,6.0565,6.103,6.115,6.2211,6.2884,6.2255,6.2674,6.4043,6.6686,6.7138,6.8194,7.0848,7.1222,7.1244,7.1244,6.9973,6.91,6.9064,6.6595,6.507,6.5029,6.3803,6.439,6.7164,6.8454,6.8503,6.7254,6.8552,6.7849,6.5247,6.7962,6.9265,6.9313,7.0699,7.1278,7.1143,6.9775,6.9169,6.9064,6.91,6.838,6.7317,6.8638,6.8355,6.7508,7.0193,7.0343,6.9178,0.0,0.0,0.0,0.0,0.0,2.2225,2.2115,2.2272,0.0,0.0,0.0,0.0,0.0,0.0,0.0,0.0,2.1504,2.1263,2.1015,2.131,2.1934,2.2862,2.4122,2.5105,0.0,0.0,0.0,0.0,0.0,0.0,0.0,0.0,0.0,0.0,2.5023,2.4842,2.4822,2.4015,0.0,0.0,3.4844,3.9008,0.0,0.0,0.0,0.0,0.0,4.8182,0.0,0.0,4.6205,4.1781,0.0,0.0,0.0,0.0,0.0,0.0,3.8595,0.0,0.0,0.0,0.0,0.0,5.081,5.2717,5.4892,5.8008,5.8816,5.9684,6.2106,6.2854,6.3048,6.2854,6.2988,6.3365,6.4125,6.5941,6.747,6.8244,6.9181,6.9763,6.9763,6.8552,6.733,0.0,6.5544,6.4662,6.372,6.3293,6.4799,6.854,6.7074,6.701,6.8638,6.9003,6.8821,6.8074,6.9867,7.0734,7.0745,7.1109,7.0745,6.9751,6.9361,6.8062,6.6293,6.733,6.7521,6.7228,6.7597,6.7521,6.7279,6.8057,6.8431,6.8383,0.0,0.0,2.4188,2.4213,2.3517,2.285,2.2599,2.2523,0.0,0.0,0.0,0.0,0.0,0.0,0.0,0.0,2.2679,2.249,2.2019,2.249,2.3036,2.3629,2.4682,2.5529,2.6146,0.0,0.0,0.0,0.0,0.0,0.0,0.0,0.0,0.0,0.0,0.0,0.0,0.0,0.0,0.0,3.5461,0.0,0.0,4.7835,5.1731,0.0,0.0,0.0,5.1409,5.4112,5.0343,0.0,0.0,0.0,0.0,0.0,0.0,0.0,0.0,0.0,0.0,0.0,0.0,0.0,5.0543,5.2091,5.4012,5.8457,5.9115,5.9548,6.1477,6.2076,6.2285,6.2285,6.2402,6.2854,6.3799,6.5301,6.6738,6.7887,6.8244,6.8589,6.9157,6.7458,6.5981,6.5151,6.4596,6.393,6.3151,6.3108,6.4443,6.7394,6.5941,6.5875,6.747,6.7496,6.7202,6.666,6.8057,6.872,6.8732,6.9322,6.9133,6.8343,6.7736,6.6759,6.5531,6.5773,6.5726,6.5643,6.7101,6.7301,6.6952,6.837,6.8821,6.8576,0.0,0.0,2.5067,2.5079,2.4595,2.4033,2.3492,2.3002,2.2879,0.0,0.0,0.0,0.0,0.0,0.0,0.0,0.0,2.3818,2.3232,2.3913,2.4455,2.4686,2.5345,2.5951,2.6491,2.6558,0.0,0.0,0.0,0.0,0.0,0.0,0.0,0.0,2.4759,2.5001,2.5949,2.5503,0.0,2.734,3.7308,4.1301,0.0,0.0,5.1885,0.0,5.301,5.2633,5.2191,5.7633,5.4914,0.0,0.0,0.0,0.0,0.0,3.8659,0.0,0.0,0.0,0.0,0.0,0.0,0.0,0.0,5.2454,5.3078,5.8637,5.9368,5.911,5.949,6.0194,6.0761,6.0844,6.129,6.237,6.444,6.4806,6.5779,6.8242,6.8004,6.8014,6.8887,6.6766,6.5207,6.4895,6.3761,6.3108,6.3108,6.3108,6.369,6.5073,6.4964,6.495,6.5083,6.5083,6.4499,6.3337,6.4675,6.5328,6.5382,6.664,6.7164,6.7008,6.5745,6.5514,6.5881,6.4792,6.4043,6.385,6.696,6.7408,6.673,7.0077,7.0408,6.9178,2.5362,2.5521,2.5363,2.4995,2.4956,2.4944,2.4825,2.3956,0.0,0.0,0.0,0.0,0.0,0.0,0.0,0.0,0.0,0.0,2.3741,2.4361,2.4766,2.4695,2.5682,2.631,2.6499,2.6918,2.6727,0.0,0.0,0.0,0.0,0.0,0.0,0.0,0.0,2.4862,2.5315,0.0,0.0,3.3598,3.8263,0.0,4.3871,5.1614,5.5314,5.6499,5.7523,5.7675,5.7188,0.0,5.4161,5.1695,0.0,0.0,0.0,0.0,0.0,0.0,0.0,0.0,0.0,0.0,0.0,0.0,0.0,4.6388,4.7993,5.0996,5.1887,5.2972,5.5674,5.7405,5.8655,5.9395,6.0477,6.1483,6.2263,6.3015,6.3693,6.4226,6.795,6.9743,6.7774,6.7126,6.5861,6.3667,6.3236,6.3108,6.3108,6.3108,6.369,6.5073,6.404,6.3998,6.507,6.5083,6.4978,6.4717,6.6127,6.6777,6.679,6.7061,6.6873,6.6301,6.6013,6.5652,6.5286,6.6192,6.6512,6.6475,6.7156,6.7243,6.7385,7.0349,7.0175,6.8583,2.5308,2.6056,2.6428,2.5779,2.5924,2.6081,2.5927,2.5435,0.0,0.0,0.0,0.0,0.0,0.0,0.0,0.0,0.0,0.0,0.0,2.5414,2.5773,2.5547,2.6388,2.6913,2.7049,2.731,2.7092,2.6358,0.0,0.0,0.0,0.0,0.0,0.0,0.0,0.0,0.0,0.0,3.0945,3.561,4.0261,0.0,4.8191,5.4675,5.7706,5.8527,5.8942,5.9317,5.924,5.6941,5.4846,0.0,0.0,4.8931,4.7323,0.0,4.2706,4.4142,0.0,0.0,0.0,4.3048,0.0,0.0,0.0,0.0,4.7473,5.1015,5.1899,5.2826,5.5371,5.6173,5.682,5.8006,5.9274,6.0167,6.0371,6.1963,6.3097,6.3091,6.554,6.7214,6.7187,6.5978,6.457,6.321,6.3108,6.3108,6.3108,6.3108,6.3422,6.4069,6.3435,6.3437,6.4097,6.4097,6.4097,6.4111,6.4813,6.531,6.5606,6.5606,6.5579,6.5546,6.5546,6.5536,6.5548,6.6287,6.7241,6.8245,6.8642,6.8801,6.8997,7.0775,7.0762,6.9888,2.5261,2.6505,2.737,2.648,2.6848,2.7182,2.6992,2.6967,0.0,0.0,0.0,0.0,0.0,0.0,0.0,0.0,0.0,0.0,0.0,0.0,2.789,2.6776,2.7198,2.756,2.7738,2.7644,2.7383,2.6943,0.0,0.0,0.0,0.0,0.0,0.0,0.0,0.0,0.0,0.0,0.0,3.8136,0.0,4.72,5.1152,5.6902,5.9091,5.9084,5.9102,5.9447,5.9697,5.8314,0.0,5.3655,5.4208,5.2234,0.0,0.0,0.0,0.0,0.0,0.0,0.0,0.0,0.0,4.4464,0.0,0.0,0.0,0.0,0.0,0.0,0.0,5.384,5.4143,5.585,5.7246,0.0,0.0,6.0569,0.0,6.2991,6.3094,6.3973,6.6207,6.4401,6.3118,6.3107,6.3095,6.3107,6.3092,6.3108,6.3108,6.3108,6.3108,6.3108,6.3108,6.3108,6.3108,6.3108,6.3227,6.3542,6.4006,6.4126,6.456,6.5174,6.5174,6.5577,6.6236,6.6807,6.8055,6.964,7.0024,7.0348,7.0695,7.1534,7.1632,7.1429,2.6103,2.6865,2.7154,2.622,2.703,2.791,2.8164,2.8039,0.0,0.0,0.0,0.0,0.0,0.0,0.0,0.0,0.0,0.0,3.2558,0.0,0.0,2.8097,2.7962,2.8103,2.8294,2.783,2.7532,2.7406,2.7348,0.0,0.0,0.0,0.0,0.0,3.222,0.0,0.0,0.0,4.0801,0.0,4.6579,4.68,0.0,5.6022,5.9106,5.9108,5.9094,5.9134,5.8969,0.0,5.6671,5.5593,0.0,5.3385,0.0,0.0,0.0,0.0,0.0,0.0,0.0,0.0,4.6566,0.0,0.0,0.0,0.0,0.0,0.0,0.0,0.0,0.0,0.0,0.0,0.0,0.0,5.8771,5.7521,5.796,6.255,6.3115,6.323,6.3554,6.3267,6.309,6.3117,6.3081,6.3088,6.309,6.3108,6.3108,6.3108,6.3108,6.3108,6.3108,6.3108,6.3108,6.3108,6.3632,6.3917,6.4006,6.462,6.5248,6.5877,6.5877,6.6281,6.7078,6.9691,7.0926,7.1031,6.9808,7.0144,7.1455,7.2842,7.2533,7.1578,2.588,2.7018,0.0,2.6338,2.697,2.7827,2.8332,2.9014,0.0,0.0,0.0,0.0,0.0,0.0,0.0,0.0,0.0,3.6854,0.0,0.0,0.0,0.0,2.8746,2.8736,2.8757,2.8525,2.8273,2.802,2.7722,0.0,0.0,0.0,0.0,0.0,3.4575,0.0,3.8339,0.0,0.0,0.0,0.0,0.0,0.0,5.6505,5.9422,5.9155,5.9537,5.9661,5.9654,0.0,5.7824,0.0,0.0,0.0,0.0,0.0,0.0,0.0,0.0,0.0,0.0,0.0,0.0,0.0,0.0,0.0,4.541,0.0,0.0,0.0,0.0,0.0,0.0,0.0,0.0,0.0,0.0,0.0,5.7327,0.0,0.0,0.0,6.0791,6.0285,6.0281,6.1069,6.1368,6.214,6.354,6.3273,6.3108,6.3108,6.3108,6.3108,6.3108,6.3108,6.3273,6.3632,6.3887,6.4425,6.5159,6.5458,6.5936,6.658,6.658,6.6729,6.7091,6.834,6.8854,6.8795,6.8162,6.936,7.1501,7.2122,7.1915,7.1605,2.5752,0.0,0.0,2.6332,2.6753,2.755,2.8388,2.9537,0.0,0.0,0.0,0.0,3.1564,3.289,0.0,0.0,0.0,3.9934,0.0,0.0,3.5484,0.0,0.0,0.0,0.0,2.9769,2.8977,2.8785,2.8517,2.8557,0.0,0.0,0.0,0.0,0.0,4.0078,4.313,0.0,0.0,4.8283,4.8342,4.9387,5.1496,5.7116,5.9428,5.9714,6.0206,6.0356,6.0372,6.0422,5.8597,0.0,6.0228,0.0,0.0,0.0,0.0,0.0,5.0213,0.0,0.0,0.0,0.0,0.0,0.0,0.0,0.0,0.0,0.0,0.0,0.0,0.0,0.0,0.0,0.0,0.0,0.0,0.0,0.0,0.0,0.0,0.0,0.0,5.7976,5.8333,5.9901,0.0,6.1448,6.363,6.3482,6.3273,6.3108,6.3108,6.3197,6.3333,6.3333,6.3662,6.4276,6.4455,6.5054,6.6011,6.6191,6.655,6.7014,6.7014,6.7014,6.7045,6.7427,6.7849,6.8206,6.8206,6.9759,7.1942,7.1537,7.1888,7.2744,2.6165,2.6591,0.0,2.602,2.6316,2.7129,2.8567,0.0,0.0,0.0,0.0,0.0,0.0,0.0,0.0,0.0,0.0,5.15,4.4216,0.0,4.1068,0.0,0.0,0.0,0.0,0.0,2.9451,2.9749,2.9819,3.0494,3.1747,0.0,0.0,0.0,0.0,4.2223,4.3163,4.7085,5.161,5.6021,5.4801,5.6169,5.8792,0.0,5.88,6.103,6.106,0.0,0.0,5.929,5.8703,0.0,0.0,0.0,0.0,0.0,0.0,0.0,0.0,0.0,0.0,5.6133,0.0,0.0,0.0,0.0,4.7233,0.0,0.0,0.0,0.0,0.0,0.0,0.0,0.0,0.0,0.0,0.0,0.0,0.0,0.0,0.0,0.0,0.0,0.0,0.0,6.0821,0.0,6.3043,6.3662,6.3707,6.3123,6.3108,6.3393,6.3977,6.3977,6.4291,6.4964,6.5637,6.5951,6.6026,6.667,6.6984,6.7014,6.7014,6.7014,6.7107,6.8531,6.9973,7.1251,7.1251,7.2183,7.3341,7.1915,7.3173,7.5568,0.0,0.0,0.0,2.6316,2.6644,2.7455,2.8844,2.9896,0.0,0.0,0.0,0.0,0.0,0.0,4.5594,0.0,0.0,5.0637,4.4261,4.4232,0.0,0.0,0.0,3.4057,0.0,0.0,3.138,3.0991,3.1019,3.1675,3.2881,3.2535,3.3715,0.0,0.0,4.4425,0.0,0.0,0.0,0.0,0.0,5.5342,5.824,0.0,0.0,5.9468,6.1157,6.1762,0.0,6.1647,6.0597,5.9638,6.1206,5.9526,5.7686,6.1193,6.058,0.0,0.0,0.0,5.3861,5.4885,0.0,0.0,0.0,0.0,0.0,0.0,0.0,0.0,0.0,0.0,0.0,0.0,0.0,0.0,0.0,0.0,0.0,0.0,0.0,0.0,0.0,0.0,0.0,0.0,0.0,0.0,0.0,6.3737,6.3482,6.3692,6.3303,6.3393,6.3977,6.4006,6.4575,6.5667,6.5877,6.6236,6.667,6.6894,6.7014,6.7014,6.7014,6.7014,6.7045,6.7548,6.8058,6.8472,6.8472,7.0001,7.2063,7.1564,7.2652,7.4431,2.7029,0.0,0.0,2.6464,2.7047,2.8077,0.0,0.0,0.0,0.0,3.7929,0.0,4.4812,0.0,4.8419,0.0,5.2685,5.1449,4.5311,4.6464,0.0,4.2602,3.9502,0.0,0.0,0.0,0.0,0.0,0.0,3.4072,3.5108,3.4677,3.5732,3.8048,0.0,4.4944,5.0287,0.0,5.44,0.0,0.0,5.5613,0.0,0.0,5.7814,5.8837,0.0,6.2465,6.2525,6.2944,6.2111,6.1251,6.3302,6.1317,5.9045,6.3147,6.2354,6.0184,6.021,5.8765,0.0,5.7309,5.884,0.0,5.0456,0.0,0.0,0.0,0.0,0.0,0.0,0.0,0.0,0.0,0.0,0.0,0.0,0.0,0.0,0.0,0.0,0.0,0.0,0.0,0.0,0.0,0.0,0.0,0.0,0.0,6.3602,6.3977,6.3422,6.3512,6.4366,6.4351,6.5024,6.637,6.637,6.658,6.7014,6.7014,6.7014,6.7014,6.7014,6.7014,6.7014,6.7014,6.732,6.7713,6.7198,6.9129,7.2103,7.1578,7.2665,7.4468,0.0,0.0,0.0,0.0,2.7634,0.0,0.0,0.0,3.5108,0.0,4.0756,4.3321,4.8102,5.0891,5.269,5.3474,5.5768,0.0,4.7868,4.9655,0.0,0.0,4.5867,4.694,5.1196,0.0,0.0,0.0,0.0,3.7497,3.8283,3.7452,3.7803,3.9205,4.0194,0.0,4.9624,5.1494,5.5635,6.0653,5.7688,5.7227,5.8259,5.775,5.8076,5.9171,6.2064,6.3108,6.3108,6.3108,6.3108,6.3108,6.3108,6.3108,6.3108,6.3108,6.3108,6.3098,6.3101,6.3096,6.3105,6.3083,5.9418,0.0,0.0,0.0,5.3359,0.0,0.0,0.0,0.0,0.0,0.0,0.0,0.0,0.0,0.0,0.0,0.0,0.0,0.0,0.0,0.0,0.0,0.0,0.0,0.0,0.0,0.0,0.0,6.3961,6.4036,6.3452,6.3737,6.4994,6.4994,6.5667,6.7014,6.7014,6.7014,6.7014,6.7014,6.7014,6.7014,6.7014,6.7014,6.7014,6.7014,6.7819,6.894,6.7548,6.9674,7.3328,7.2063,7.3341,7.5709,2.8643,2.9162,2.9897,0.0,3.0218,3.042,0.0,0.0,0.0,0.0,4.43,4.6963,5.4033,5.5847,5.6637,5.6842,5.7938,0.0,0.0,0.0,0.0,5.3107,4.9985,5.0035,5.3837,4.7246,0.0,4.3139,0.0,0.0,3.9526,3.8396,3.8657,4.0096,4.0855,4.3798,4.8305,4.999,5.3658,5.8305,5.8009,5.763,0.0,0.0,5.919,5.9171,6.2064,6.3108,6.3108,6.3108,6.3108,6.3108,6.3108,6.3108,6.3108,6.3108,6.3108,6.3105,6.3091,6.3115,6.3092,6.3087,6.2116,6.093,0.0,0.0,0.0,0.0,0.0,0.0,0.0,0.0,0.0,0.0,0.0,0.0,0.0,0.0,0.0,0.0,0.0,0.0,0.0,0.0,0.0,0.0,0.0,0.0,0.0,0.0,0.0,6.4695,6.4126,6.4186,6.4994,6.4994,6.5667,6.7014,6.7014,6.7014,6.7014,6.7014,6.7014,6.7014,6.7014,6.7014,6.7014,6.7014,6.7229,6.7533,6.7137,6.9027,7.2169,7.3947,7.5076,7.5709,3.0184,0.0,0.0,3.3119,0.0,0.0,3.6424,0.0,0.0,4.5376,4.6764,0.0,5.5115,5.7943,5.9415,5.9415,5.9774,0.0,0.0,0.0,0.0,5.5508,5.4894,5.5523,5.756,5.2612,0.0,4.7247,0.0,0.0,4.0382,3.9551,3.9602,4.0433,4.1372,4.3906,4.7742,5.1921,5.5283,5.7968,5.9478,0.0,0.0,6.0996,6.149,6.1727,6.3364,6.3737,6.3452,6.3183,6.3482,6.3842,6.3292,6.3116,6.3103,6.3103,6.3103,6.3103,6.3103,6.3103,6.3084,6.3099,6.3102,6.3098,6.3097,6.0462,5.8346,0.0,0.0,0.0,0.0,0.0,0.0,0.0,0.0,0.0,0.0,0.0,0.0,0.0,0.0,0.0,0.0,0.0,0.0,0.0,0.0,0.0,0.0,0.0,0.0,6.4665,6.4333,6.4536,6.5428,6.5244,6.5906,6.7433,6.7134,6.7014,6.7014,6.7014,6.7014,6.7014,6.7014,6.7014,6.7014,6.7014,6.7014,6.7122,6.8429,7.0203,7.2319,7.478,7.5709,7.5709,0.0,0.0,0.0,0.0,0.0,0.0,0.0,3.9524,0.0,4.7045,0.0,5.1366,5.4572,5.8624,6.109,6.109,0.0,5.9785,5.6711,5.9391,5.9771,5.6756,5.9597,6.1269,6.1359,5.8567,0.0,0.0,0.0,0.0,4.109,4.0662,4.0438,4.0529,4.1796,4.4311,0.0,5.4922,5.8055,5.8636,6.1263,6.2632,6.3119,6.3283,6.404,6.4994,6.4994,6.462,6.4066,6.3542,6.4096,6.4815,6.3771,6.3402,6.3387,6.3565,6.3609,6.3609,6.3609,6.3609,6.3624,6.3622,6.3355,6.3095,6.3086,6.3105,6.3848,6.6457,6.6991,6.6997,0.0,0.0,0.0,0.0,0.0,0.0,0.0,0.0,0.0,0.0,0.0,0.0,0.0,0.0,0.0,0.0,0.0,0.0,0.0,0.0,0.0,6.4509,6.4617,6.5092,6.6042,0.0,6.6334,6.7888,6.7285,6.7014,6.7014,6.7014,6.7014,6.7014,6.7014,6.7014,6.7014,6.7014,6.7107,6.7593,7.055,7.2193,7.3117,7.5002,7.5709,7.5709,0.0,0.0,0.0,0.0,0.0,4.362,4.6786,4.6705,4.7858,5.2195,5.4062,5.6211,5.9484,6.0592,6.109,6.109,6.109,0.0,0.0,0.0,0.0,6.1013,6.1588,6.2181,6.2734,5.9512,5.6449,0.0,0.0,0.0,4.2217,4.1145,4.0709,4.0852,4.2093,4.5222,4.9846,5.3699,0.0,5.8665,6.1733,6.3016,6.3223,6.4278,6.4815,6.4994,6.4994,6.4904,6.4815,6.471,6.4829,6.5024,6.5188,6.4964,6.489,6.5996,6.6311,6.6311,6.6311,6.6311,6.6325,6.6318,6.4689,6.3101,6.3115,6.3095,6.3843,6.6462,6.6996,6.7006,6.7009,0.0,0.0,0.0,0.0,0.0,0.0,0.0,0.0,0.0,0.0,0.0,0.0,0.0,0.0,0.0,0.0,0.0,0.0,0.0,0.0,0.0,6.6237,0.0,0.0,0.0,6.6929,6.742,6.7125,6.7014,6.7014,6.7014,6.7014,6.7014,6.7014,6.7014,6.7014,6.7014,6.7713,6.91,7.2068,7.3302,7.3628,7.5161,7.5709,7.5709,0.0,0.0,0.0,0.0,0.0,0.0,0.0,5.4079,5.5289,5.4606,5.5442,5.6689,5.828,6.0651,6.2121,6.2121,6.2421,6.26,6.26,6.2945,6.3124,6.3079,6.3079,0.0,6.3108,6.1793,5.8802,5.4101,0.0,0.0,4.248,4.1729,4.1203,4.1068,4.4717,4.7928,0.0,0.0,0.0,6.069,6.3476,6.4813,6.5186,6.5816,6.6026,6.6026,6.6026,6.6026,6.5936,6.5233,6.5458,6.6011,6.5757,6.5862,6.6176,6.6793,6.7004,6.7004,6.7004,6.7004,6.7005,6.7018,6.5517,6.3907,6.3249,6.3623,6.4636,6.6611,6.7005,6.6582,6.5173,6.2173,0.0,0.0,0.0,0.0,0.0,0.0,0.0,0.0,0.0,0.0,0.0,0.0,0.0,0.0,0.0,0.0,0.0,0.0,0.0,0.0,0.0,0.0,0.0,0.0,0.0,6.8182,6.7393,6.7014,6.7014,6.7014,6.7014,6.7014,6.7014,6.7014,6.7075,6.7819,6.9459,7.1632,7.3031,7.4043,7.4782,7.5448,7.5709,7.5709,0.0,3.9181,0.0,0.0,4.7731,0.0,5.4828,5.9216,6.0709,5.682,5.6988,5.7453,5.7293,6.0764,6.3108,6.3108,6.3542,6.3797,6.3797,6.4291,6.4351,6.3827,6.3797,6.3602,6.3108,6.3572,6.1046,0.0,0.0,0.0,4.3958,4.2813,4.2377,4.2756,4.7676,0.0,0.0,0.0,6.1981,6.3268,6.5367,6.652,6.7014,6.7014,6.7014,6.7014,6.7014,6.7014,6.6819,6.5787,6.6131,6.6879,6.6205,6.6444,6.7014,6.7014,6.7014,6.7014,6.7014,6.7014,6.7015,6.7004,6.6207,6.5158,6.4173,6.471,6.5712,6.6763,6.6989,6.6176,6.3491,6.1681,0.0,0.0,0.0,0.0,0.0,0.0,0.0,0.0,0.0,0.0,0.0,0.0,0.0,0.0,0.0,0.0,0.0,0.0,0.0,0.0,0.0,6.727,6.7487,0.0,6.7941,6.8626,6.7526,6.7014,6.7014,6.7014,6.7014,6.7014,6.7014,6.7183,6.7623,6.9418,7.151,7.363,7.3922,7.4724,7.5709,7.5709,7.5709,7.5709,0.0,0.0,0.0,0.0,0.0,0.0,5.4929,5.9216,6.172,6.0667,6.1652,6.2203,6.1592,6.2453,6.3108,6.3108,6.3153,6.3197,6.3197,6.3243,6.3243,6.3183,6.3197,6.3168,6.3108,6.3168,6.1987,0.0,0.0,0.0,0.0,4.4954,4.4875,4.8047,0.0,0.0,0.0,6.0685,6.2986,6.5727,6.6565,6.6939,6.7014,6.7014,6.7014,6.7014,6.7014,6.7014,6.6984,6.6864,6.6894,6.6984,6.6909,6.6939,6.7014,6.7014,6.7014,6.7014,6.7014,6.7014,6.7015,6.7004,6.6914,6.6794,6.6672,6.6733,6.6851,6.6989,6.6988,6.6162,6.3479,6.4397,6.4588,0.0,0.0,0.0,0.0,0.0,0.0,0.0,0.0,0.0,0.0,0.0,0.0,0.0,5.9154,0.0,0.0,0.0,0.0,6.6013,0.0,6.6682,6.5744,6.7789,6.8361,6.7462,6.7155,6.7014,6.7014,6.7014,6.7014,6.7014,6.7014,6.7759,6.9216,7.2036,7.3361,7.3727,7.5003,7.558,7.5709,7.5709,7.5709,7.5709,0.0,0.0,0.0,0.0,0.0,0.0,0.0,6.1567,6.2465,6.1792,6.2525,6.3003,6.2734,6.2944,6.3108,6.3108,6.3422,6.3632,6.3632,6.4006,6.4066,6.3662,6.3632,6.3482,6.3108,6.3452,6.2495,0.0,0.0,0.0,0.0,4.8724,4.9435,5.2029,0.0,5.82,6.0777,6.3535,6.5442,6.661,6.6894,6.7014,6.7014,6.7014,6.7014,6.7014,6.7014,6.7014,6.7014,6.7014,6.7014,6.7014,6.7014,6.7014,6.7014,6.7014,6.7014,6.7014,6.7014,6.7014,6.7,6.6987,6.6987,6.6988,6.6989,6.7004,6.7166,6.7667,6.7679,6.7286,6.6207,6.5047,6.4375,6.473,0.0,0.0,0.0,0.0,0.0,0.0,0.0,0.0,0.0,0.0,0.0,0.0,0.0,0.0,0.0,0.0,0.0,6.3985,0.0,6.7076,6.593,6.7563,6.8158,6.7698,6.7212,6.7014,6.7014,6.7014,6.7472,6.8325,6.8325,6.9645,7.1947,7.3108,7.4106,7.4929,7.5484,7.5709,7.5709,7.5709,7.5709,7.5709,5.3685,0.0,5.3707,0.0,5.7712,5.8097,6.2188,6.2808,6.2644,6.2151,6.2674,6.3003,6.2824,6.2974,6.3108,6.3108,6.3482,6.3752,6.3752,6.4351,6.45,6.4006,6.4186,0.0,6.3393,6.3977,6.3408,6.1523,5.9338,0.0,0.0,5.3095,5.3955,0.0,5.9762,6.1863,6.2943,6.577,6.7014,6.7014,6.7014,6.7014,6.7014,6.7014,6.7014,6.7014,6.7014,6.7014,6.7014,6.7014,6.7014,6.7014,6.7014,6.7014,6.7014,6.7014,6.7014,6.7014,6.7014,6.7014,6.7014,6.7014,6.7014,6.7,6.7003,6.7137,6.7525,6.8357,6.8383,6.8271,6.8271,6.6357,6.5235,6.6598,0.0,0.0,0.0,0.0,0.0,0.0,0.0,0.0,0.0,0.0,0.0,0.0,0.0,0.0,0.0,0.0,0.0,0.0,0.0,0.0,6.5923,6.7306,6.7898,6.7703,6.7224,6.7014,6.7014,6.7014,6.7804,6.9216,6.9645,7.1265,7.3637,7.4056,7.4798,7.5709,7.5709,7.5709,7.5709,7.5709,7.5709,7.5709,5.8052,5.6989,5.7189,6.2163,5.9962,5.852,6.1636,6.2121,6.2121,6.2091,6.2674,6.2854,6.2181,6.2704,6.3108,6.3108,6.3108,6.3108,6.3108,6.3692,6.4006,0.0,0.0,6.4665,6.4006,6.465,6.4964,6.4934,0.0,0.0,6.108,5.7858,5.8094,6.1257,6.1834,6.3887,6.6939,6.6969,6.7014,6.7014,6.7014,6.7014,6.7014,6.7014,6.7014,6.7014,6.7014,6.7014,6.7014,6.7014,6.7014,6.7014,6.7014,6.7014,6.7014,6.7014,6.7014,6.7014,6.7014,6.7014,6.7014,6.7014,6.7014,6.7014,6.7014,6.7493,6.8197,6.8854,6.8974,6.9004,6.9004,6.8944,6.8372,6.6666,0.0,0.0,0.0,0.0,0.0,0.0,0.0,5.8036,6.4901,0.0,0.0,0.0,0.0,0.0,0.0,0.0,0.0,6.6104,6.6763,0.0,6.522,6.7065,6.7688,6.7014,6.7014,6.7014,6.7014,6.7014,6.7804,6.9288,7.0727,7.2209,7.3706,7.5112,7.5664,7.5709,7.5709,7.5709,7.5709,7.5709,7.5709,7.5709,6.159,6.1149,6.1237,6.2812,6.2117,6.1645,6.2631,6.3139,6.3408,6.3408,6.3977,6.4321,6.4111,6.3857,6.3707,0.0,6.4126,6.4411,0.0,6.459,6.468,6.468,6.4874,6.4904,6.468,6.4874,6.5203,6.5697,0.0,0.0,0.0,6.1075,6.2141,6.5203,6.5353,6.6026,6.7014,6.7014,6.7014,6.7014,6.7014,6.7014,6.7014,6.7014,6.7014,6.7014,6.7014,6.7014,6.7014,6.7014,6.7014,6.7014,6.7014,6.7014,6.7014,6.7014,6.7014,6.7014,6.7014,6.7014,6.7014,6.7014,6.7014,6.7014,6.7014,6.7882,6.8734,6.8944,6.9363,6.9678,6.9678,6.9303,6.8799,6.8254,6.8638,0.0,0.0,0.0,0.0,0.0,0.0,6.3329,0.0,6.2694,0.0,0.0,0.0,0.0,0.0,0.0,0.0,0.0,6.6556,0.0,6.522,6.6613,6.7224,6.7014,6.7014,6.7014,6.7014,6.7014,6.837,7.0745,7.1214,7.2796,7.5076,7.552,7.5709,7.5709,7.5709,7.5709,7.5709,7.5709,7.5709,7.5709,6.3572,6.3514,6.3486,6.3172,6.31,6.3087,6.3087,6.3415,6.389,6.4544,6.4993,6.5203,6.5039,6.4859,0.0,6.4411,6.477,6.4994,6.4994,6.5233,6.5398,6.5398,6.5607,6.5637,6.5398,6.5637,0.0,6.5996,6.4605,6.4141,6.456,6.4234,6.5113,6.7014,6.7014,6.7014,6.7014,6.7014,6.7014,6.7014,6.7014,6.7014,6.7014,6.7014,6.7014,6.7014,6.7014,6.7014,6.7014,6.7014,6.7014,6.7014,6.7014,6.7014,6.7014,6.7014,6.7014,6.7014,6.7014,6.7014,6.7014,6.7014,6.7014,6.7014,6.7014,6.8046,6.8958,6.8759,6.9584,7.0336,7.0336,6.9991,6.9722,6.9722,6.9722,6.9415,6.8558,0.0,0.0,0.0,0.0,0.0,0.0,6.4802,6.4803,0.0,0.0,0.0,0.0,0.0,0.0,6.5243,6.7034,0.0,6.5882,6.6613,6.7014,6.7014,6.7014,6.7305,6.7819,6.7819,6.943,7.2242,7.2242,7.3566,7.5709,7.5709,7.5709,7.5709,7.5709,7.5709,7.5709,7.5709,7.5709,7.5709,6.4067,6.4144,6.407,6.3371,6.3209,6.3238,6.3238,6.3224,6.3817,6.5443,6.5727,6.5622,6.5203,6.5697,6.5817,6.5174,0.0,0.0,6.5144,6.5727,6.6056,6.6056,6.667,6.67,6.6086,6.667,6.67,6.6056,6.67,6.7014,6.7014,6.7014,6.7014,6.7014,6.7014,6.7014,6.7014,6.7014,6.7014,6.7014,6.7014,6.7014,6.7014,6.7014,6.7014,6.7014,6.7014,6.7014,6.7014,6.7014,6.7014,6.7014,6.7014,6.7014,6.7014,6.7014,6.7014,6.7014,6.7014,6.7014,6.7014,6.7014,6.7014,6.7014,6.7014,6.7986,6.8837,6.8438,6.9624,7.0799,7.0889,7.0829,7.0799,7.0889,7.0788,6.9986,6.7867,6.8131,0.0,0.0,0.0,0.0,0.0,6.6363,6.7568,0.0,0.0,0.0,0.0,0.0,6.5527,6.7914,6.7987,6.7688,6.7014,6.7014,6.7014,6.7014,6.7091,6.7879,6.9201,6.9317,7.0907,7.3604,7.3604,7.4394,7.5709,7.5709,7.5709,7.5709,7.5709,7.5709,7.5709,7.5709,7.5709,7.5709,0.0,0.0,6.3654,6.4427,6.4547,6.4547,6.4547,6.4546,6.4694,6.5098,6.6055,6.6656,6.652,6.667,6.67,6.655,6.652,6.652,6.652,6.667,6.6759,6.6759,6.6924,6.6924,6.6775,6.6909,6.6909,6.6759,6.6909,6.7014,6.7014,6.7014,6.7014,6.7014,6.7014,6.7014,6.7014,6.7014,6.7014,6.7014,6.7014,6.7014,6.7014,6.7014,6.7014,6.7014,6.7014,6.7014,6.7014,6.7014,6.7014,6.7014,6.7014,6.7014,6.7014,6.7014,6.7014,6.7014,6.7014,6.7014,6.7014,6.7014,6.7014,6.7014,6.7014,6.7643,6.8345,6.8761,6.9152,6.9752,7.0709,7.0111,6.9782,7.0739,6.9734,6.8713,6.8307,6.8114,6.735,0.0,6.6536,6.7293,6.7139,6.779,6.7736,0.0,0.0,0.0,0.0,6.6032,6.6432,6.7959,6.7987,6.7688,6.7014,6.7014,6.7014,6.7029,6.8132,6.8869,6.9245,7.0382,7.1875,7.3604,7.3604,7.4394,7.5709,7.5709,7.5709,7.5709,7.5709,7.5709,7.5709,7.5709,7.5709,7.5709,6.4085,6.349,6.3325,6.4009,6.5128,6.5906,6.5906,6.5905,6.5903,6.5903,6.6548,6.7014,6.7014,6.7014,6.7014,6.7014,6.7014,6.7014,6.7014,6.7014,6.7014,6.7014,6.7014,6.7014,6.7014,6.7014,6.7014,6.7014,6.7014,6.7014,6.7014,6.7014,6.7014,6.7014,6.7014,6.7014,6.7014,6.7014,6.7014,6.7014,6.7014,6.7014,6.7014,6.7014,6.7014,6.7014,6.7014,6.7014,6.7014,6.7014,6.7014,6.7014,6.7014,6.7014,6.7014,6.7014,6.7014,6.7014,6.7014,6.7014,6.7014,6.7014,6.7014,6.7014,6.7014,6.7523,6.8016,6.8069,6.8566,6.9152,6.964,6.9568,6.9662,7.038,6.9468,6.8618,6.849,6.7835,6.7204,6.6776,6.747,6.8052,6.8227,6.8592,6.8334,6.7138,6.7381,0.0,6.6623,6.6579,6.702,6.7973,6.7703,6.7373,6.7014,6.7014,6.7014,6.7029,6.8487,6.9545,7.027,7.1727,7.3186,7.4542,7.4542,7.4969,7.5709,7.5709,7.5709,7.5709,7.5709,7.5709,7.5709,7.5709,7.5709,7.5709,6.5293,6.4425,6.3691,6.3691,6.5526,6.7014,6.7014,6.7014,6.7014,6.7014,6.7014,6.7014,6.7014,6.7014,6.7014,6.7014,6.7014,6.7014,6.7014,6.7014,6.7014,6.7014,6.7014,6.7014,6.7014,6.7014,6.7014,6.7014,6.7014,6.7014,6.7014,6.7014,6.7014,6.7014,6.7014,6.7014,6.7014,6.7014,6.7014,6.7014,6.7014,6.7014,6.7014,6.7014,6.7014,6.7014,6.7014,6.7014,6.7014,6.7014,6.7014,6.7014,6.7014,6.7014,6.7014,6.7014,6.7014,6.7014,6.7014,6.7014,6.7014,6.7014,6.7014,6.7014,6.7014,6.7433,6.7716,6.7229,6.7995,6.8657,6.8573,6.9178,6.9666,6.9614,6.9138,6.8551,6.7911,6.7206,6.6848,6.7089,6.7436,6.7923,6.8619,6.8794,6.8794,6.8704,6.8271,6.7958,6.7868,6.7313,6.7254,6.7838,6.7313,6.7014,6.7014,6.7229,6.732,6.7336,6.9042,7.0504,7.1767,7.3238,7.4588,7.5709,7.5709,7.5709,7.5709,7.5709,7.5709,7.5709,7.5709,7.5709,7.5709,7.5709,7.5709,7.5709,6.6263,6.6548,6.6397,6.6397,6.6713,6.7014,6.7014,6.7014,6.7014,6.7014,6.7014,6.7014,6.7014,6.7014,6.7014,6.7014,6.7014,6.7014,6.7014,6.7014,6.7014,6.7014,6.7014,6.7014,6.7014,6.7014,6.7014,6.7014,6.7014,6.7014,6.7014,6.7014,6.7014,6.7014,6.7014,6.7014,6.7014,6.7014,6.7014,6.7014,6.7014,6.7014,6.7014,6.7014,6.7014,6.7014,6.7014,6.7014,6.7014,6.7014,6.7014,6.7014,6.7014,6.7014,6.7014,6.7014,6.7014,6.7014,6.7014,6.7014,6.7014,6.7014,6.7014,6.7014,6.7014,6.7074,6.7298,6.7746,6.7552,6.7807,6.9437,6.8944,6.8206,6.7861,6.7319,6.6361,6.4839,6.5718,6.6254,6.5473,6.6912,6.7753,6.7359,6.7822,6.7912,6.7358,6.7732,6.7748,6.7194,6.7074,6.7044,6.7164,6.7044,6.7014,6.7014,6.8236,6.8869,6.8882,7.1637,7.305,7.3289,7.4736,7.5496,7.5709,7.5709,7.5709,7.5709,7.5709,7.5709,7.5709,7.5709,7.5709,7.5709,7.5709,7.5709,7.5709,6.6758,6.7014,6.7014,6.7014,6.7014,6.7014,6.7014,6.7014,6.7014,6.7014,6.7014,6.7014,6.7014,6.7014,6.7014,6.7014,6.7014,6.7014,6.7014,6.7014,6.7014,6.7014,6.7014,6.7014,6.7014,6.7014,6.7014,6.7014,6.7014,6.7014,6.7014,6.7014,6.7014,6.7014,6.7014,6.7014,6.7014,6.7014,6.7014,6.7014,6.7014,6.7014,6.7014,6.7014,6.7014,6.7014,6.7014,6.7014,6.7014,6.7014,6.7014,6.7014,6.7014,6.7014,6.7014,6.7014,6.7014,6.7014,6.7014,6.7014,6.7014,6.7014,6.7014,6.7014,6.7014,6.7014,6.7104,6.7403,6.7224,6.7268,6.8211,6.8481,6.8538,6.8497,6.7885,6.7557,6.7942,6.6992,6.6463,6.7089,6.7335,6.7343,6.7044,6.7284,6.7343,6.7014,6.7284,6.7313,6.7014,6.7014,6.7014,6.7014,6.7014,6.7014,6.7014,6.8443,6.9201,6.9245,7.2183,7.3592,7.3655,7.5064,7.5709,7.5709,7.5709,7.5709,7.5709,7.5709,7.5709,7.5709,7.5709,7.5709,7.5709,7.5709,7.5709,7.5709,6.7014,6.7014,6.7014,6.7014,6.7014,6.7014,6.7014,6.7014,6.7014,6.7014,6.7014,6.7014,6.7014,6.7014,6.7014,6.7014,6.7014,6.7014,6.7014,6.7014,6.7014,6.7014,6.7014,6.7014,6.7014,6.7014,6.7014,6.7014,6.7014,6.7014,6.7014,6.7014,6.7014,6.7014,6.7014,6.7014,6.7014,6.7014,6.7014,6.7014,6.7014,6.7014,6.7014,6.7014,6.7014,6.7014,6.7014,6.7014,6.7014,6.7014,6.7014,6.7014,6.7014,6.7014,6.7014,6.7014,6.7014,6.7014,6.7014,6.7014,6.7014,6.7014,6.7014,6.7014,6.7014,6.7014,6.7014,6.7014,6.7014,6.7044,6.7194,6.8092,6.8703,6.8497,6.819,6.8388,6.9513,6.7485,6.6543,6.8329,6.7632,6.7014,6.7014,6.7014,6.7014,6.7014,6.7014,6.7014,6.7014,6.7014,6.7152,6.7502,6.7517,6.7517,6.7517,6.9317,7.0227,7.0238,7.2842,7.4106,7.4131,7.5197,7.5709,7.5709,7.5709,7.5709,7.5709,7.5709,7.5709,7.5709,7.5709,7.5709,7.5709,7.5709,7.5709,7.5709,6.7014,6.7014,6.7014,6.7014,6.7014,6.7014,6.7014,6.7014,6.7014,6.7014,6.7014,6.7014,6.7014,6.7014,6.7014,6.7014,6.7014,6.7014,6.7014,6.7014,6.7014,6.7014,6.7014,6.7014,6.7014,6.7014,6.7014,6.7014,6.7014,6.7014,6.7014,6.7014,6.7014,6.7014,6.7014,6.7014,6.7014,6.7014,6.7014,6.7014,6.7014,6.7014,6.7014,6.7014,6.7014,6.7014,6.7014,6.7014,6.7014,6.7014,6.7014,6.7014,6.7014,6.7014,6.7014,6.7014,6.7014,6.7014,6.7014,6.7014,6.7014,6.7014,6.7014,6.7014,6.7014,6.7014,6.7014,6.7014,6.7014,6.7194,6.7808,6.8017,6.7561,6.5961,6.6645,6.6621,6.4472,6.4954,6.5957,6.7031,6.7059,6.7014,6.7014,6.7014,6.7014,6.7014,6.7014,6.7014,6.7014,6.7014,6.7638,6.8984,6.9027,6.9027,6.9027,7.1867,7.3271,7.3289,7.481,7.5544,7.5544,7.564,7.5709,7.5709,7.5709,7.5709,7.5709,7.5709,7.5709,7.5709,7.5709,7.5709,7.5709,7.5709,7.5709,7.5709,6.7014,6.7014,6.7014,6.7014,6.7014,6.7014,6.7014,6.7014,6.7014,6.7014,6.7014,6.7014,6.7014,6.7014,6.7014,6.7014,6.7014,6.7014,6.7014,6.7014,6.7014,6.7014,6.7014,6.7014,6.7014,6.7014,6.7014,6.7014,6.7014,6.7014,6.7014,6.7014,6.7014,6.7014,6.7014,6.7014,6.7014,6.7014,6.7012,6.6992,6.6997,6.6996,6.6992,6.6997,6.7014,6.7014,6.7014,6.7014,6.7014,6.7014,6.7014,6.7014,6.7014,6.7014,6.7014,6.7014,6.7014,6.7014,6.7014,6.7014,6.7014,6.7014,6.7014,6.7014,6.7014,6.7014,6.7014,6.7014,6.7014,6.7074,6.7343,6.7703,6.7831,6.7352,6.7545,6.7668,6.7417,6.6817,6.7185,6.9196,6.8479,6.8005,6.8561,6.8378,6.8226,6.8226,6.7852,6.7613,6.7613,6.8076,6.9042,7.0536,7.1429,7.1469,7.056,7.2586,7.3592,7.363,7.5039,7.5709,7.5709,7.5709,7.5709,7.5709,7.5709,7.5709,7.5709,7.5709,7.5709,7.5709,7.5709,7.5709,7.5709,7.5709,7.5709,7.5709,6.7014,6.7014,6.7014,6.7014,6.7014,6.7014,6.7014,6.7014,6.7014,6.7014,6.7014,6.7014,6.7014,6.7014,6.7014,6.7014,6.7014,6.7014,6.7014,6.7194,6.7224,6.7014,6.7014,6.7104,6.7313,6.7313,6.7433,6.7643,6.7643,6.7643,6.7643,6.7643,6.7643,6.7643,6.7643,6.7536,6.74,6.74,6.7502,6.7663,6.8065,6.7973,6.7588,6.7144,6.7009,6.7007,6.6997,6.7013,6.6981,6.7013,6.7014,6.7014,6.7014,6.7014,6.7014,6.7014,6.7014,6.7014,6.7014,6.7014,6.7014,6.7014,6.7014,6.7014,6.7014,6.7014,6.7014,6.7014,6.7014,6.7014,6.7014,6.7373,6.7814,6.8198,6.8165,6.8373,6.9139,6.8317,6.8339,7.0257,6.943,6.8877,6.9387,6.9157,6.9194,6.9711,6.9303,6.9245,6.9745,7.0274,7.1158,7.2391,7.3417,7.3552,7.277,7.3757,7.4256,7.4269,7.5234,7.5709,7.5709,7.5709,7.5709,7.5709,7.5709,7.5709,7.5709,7.5709,7.5709,7.5709,7.5709,7.5709,7.5709,7.5709,7.5709,7.5709,6.7014,6.7014,6.7014,6.7014,6.7014,6.7014,6.7014,6.7014,6.7014,6.7014,6.7014,6.7014,6.7014,6.7014,6.7014,6.7014,6.7014,6.7014,6.7014,6.7643,6.7703,6.7029,6.7014,6.7313,6.7987,6.8017,6.8331,6.9004,6.9004,6.9004,6.9004,6.9004,6.9004,6.9004,6.9004,6.8744,6.8301,6.8301,6.8591,6.9141,7.0383,7.0122,6.8852,6.7527,6.7037,6.6981,6.7023,6.7024,6.7002,6.7012,6.6999,6.6999,6.6999,6.6999,6.6999,6.7014,6.7014,6.7014,6.7014,6.7014,6.7014,6.7014,6.7014,6.7014,6.7014,6.7014,6.7014,6.7014,6.7014,6.7014,6.7014,6.7014,6.7224,6.7898,6.8169,6.8302,6.8303,6.8698,6.9157,6.9554,6.9616,6.9447,6.9049,6.9004,6.9649,7.1203,7.1306,7.1998,7.3542,7.3626,7.3954,7.4699,7.4738,7.5046,7.5697,7.5709,7.5709,7.5709,7.5709,7.5709,7.5709,7.5709,7.5709,7.5709,7.5709,7.5709,7.5709,7.5709,7.5709,7.5709,7.5709,7.5709,7.5709,7.5709,7.5709,7.5709,6.7014,6.7014,6.7014,6.7014,6.7014,6.7014,6.7014,6.7014,6.7014,6.7014,6.7014,6.7014,6.7014,6.7014,6.7014,6.7014,6.7014,6.7194,6.7673,6.8331,6.8615,6.8405,6.8405,6.8495,6.872,6.872,6.8794,6.9004,6.9004,6.9004,6.9004,6.9004,6.9004,6.9004,6.9004,6.9065,6.9202,6.9202,6.9641,7.0385,7.0748,7.0685,7.0279,6.9878,6.858,6.7236,6.9074,6.8571,6.7001,6.699,6.6992,6.6992,6.6992,6.6992,6.7128,6.7735,6.7903,6.7994,6.8314,6.8162,6.7755,6.7148,6.7014,6.7014,6.7014,6.7014,6.7134,6.7583,6.7703,6.7852,6.8331,6.8405,6.8465,6.8675,6.8766,6.8887,6.9172,6.9095,6.9382,7.0401,7.0123,6.9995,7.029,7.032,7.0963,7.2519,7.325,7.4068,7.5083,7.5131,7.5733,7.6965,7.7015,7.6852,7.6555,7.598,7.5709,7.5709,7.5709,7.5709,7.5709,7.5709,7.5709,7.5709,7.5709,7.5709,7.5709,7.5709,7.5709,7.5709,7.5709,7.5709,7.5709,7.5709,7.5709,7.5709,6.7014,6.7014,6.7014,6.7014,6.7014,6.7014,6.7014,6.7014,6.7014,6.7014,6.7014,6.7104,6.7373,6.7403,6.7493,6.7792,6.7777,6.7956,6.8361,6.9004,6.9393,6.9393,6.9632,6.9632,6.9393,6.9393,6.9512,6.9752,6.9752,6.9752,6.9752,6.9752,6.9752,6.9752,6.9752,6.9905,7.0105,7.0105,7.0407,7.0891,7.0902,7.09,7.0907,7.0909,6.9911,6.8756,7.0349,6.9858,6.8552,6.8543,6.8545,6.8545,6.8545,6.8545,6.8652,6.9157,6.9065,6.8896,6.9157,6.8912,6.8443,6.7925,6.7929,6.799,6.7822,6.7777,6.7912,6.8301,6.8391,6.8511,6.8914,6.9004,6.9093,6.9333,6.9393,6.9544,7.0045,6.9905,7.0055,7.0799,7.0567,7.0516,7.0859,7.0889,7.1793,7.3988,7.579,7.7045,7.7516,7.7522,7.7827,7.8425,7.845,7.8077,7.7333,7.6555,7.6014,7.5709,7.5709,7.5709,7.5709,7.5709,7.5709,7.5709,7.5709,7.5709,7.5709,7.5709,7.5709,7.5709,7.5709,7.5709,7.5709,7.5709,7.5709,7.5709,6.7014,6.7014,6.7014,6.7014,6.7014,6.7014,6.7014,6.7014,6.7014,6.7074,6.7104,6.7343,6.8017,6.8107,6.8331,6.8944,6.9064,6.9093,6.9093,6.9708,7.0067,7.0067,7.062,7.0649,7.0097,7.0067,7.0366,7.0889,7.0889,7.0889,7.0889,7.0889,7.0889,7.0889,7.0889,7.0889,7.0889,7.0889,7.0889,7.0889,7.0889,7.0889,7.0905,7.0907,7.0889,7.0894,7.0895,7.091,7.0886,7.0884,7.0918,7.0918,7.0918,7.0918,7.0918,7.0918,7.0349,6.9705,6.9705,6.9444,6.9183,6.9183,6.9444,6.9583,6.9095,6.9004,6.9004,6.9064,6.9093,6.9123,6.9153,6.9183,6.9363,6.9977,7.0067,7.0277,7.0829,7.0889,7.0889,7.0889,7.0889,7.0889,7.0889,7.1134,7.2581,7.5579,7.8518,8.0209,8.0209,8.0209,7.9904,7.9215,7.9181,7.8855,7.8124,7.7435,7.6657,7.5811,7.5743,7.5709,7.5709,7.5709,7.5709,7.5709,7.5709,7.5709,7.5709,7.5709,7.5709,7.5709,7.5709,7.5709,7.5709,7.5709,7.5709,7.5709,6.7014,6.7014,6.7014,6.7014,6.7014,6.7014,6.7014,6.7014,6.7194,6.7703,6.7762,6.8032,6.8704,6.8764,6.8824,6.9004,6.9498,6.9798,6.9798,7.035,7.0709,7.0709,7.0829,7.0829,7.0709,7.0709,7.0769,7.0889,7.0889,7.0889,7.0889,7.0889,7.0889,7.0889,7.0889,7.0889,7.0889,7.0889,7.0889,7.0889,7.0889,7.0889,7.0889,7.0894,7.0908,7.0905,7.0899,7.0899,7.0896,7.0885,7.0901,7.0901,7.0901,7.0901,7.0901,7.0901,7.0763,7.0608,7.0608,7.0546,7.05,7.05,7.0546,7.0339,6.9259,6.9004,6.9153,6.9678,6.9798,6.9917,7.041,7.05,7.053,7.0679,7.0709,7.0739,7.0889,7.0889,7.0889,7.0889,7.0889,7.0889,7.0889,7.3138,7.5377,7.7248,7.9137,8.0209,8.0209,8.0209,8.0141,7.9972,7.9972,7.96,7.8877,7.8708,7.7976,7.6623,7.6014,7.5709,7.5709,7.5709,7.5709,7.5709,7.5709,7.5709,7.5709,7.5709,7.5709,7.5709,7.5709,7.5709,7.5709,7.5709,7.5709,7.5709,6.7403,6.7463,6.7583,6.7897,6.7956,6.7956,6.7956,6.7956,6.8092,6.8421,6.8481,6.8704,6.9347,6.9453,6.9572,6.9871,7.0231,7.0426,7.0426,7.0709,7.0889,7.0889,7.0889,7.0889,7.0889,7.0889,7.0889,7.0889,7.0889,7.0889,7.0889,7.0889,7.0889,7.0889,7.0889,7.0889,7.0889,7.0889,7.0889,7.0889,7.0889,7.0889,7.0889,7.0889,7.0889,7.0889,7.0889,7.0889,7.0889,7.0889,7.0889,7.0889,7.0889,7.0889,7.0889,7.0889,7.0889,7.0889,7.0889,7.0889,7.0889,7.0889,7.0889,7.0739,7.0051,6.9901,7.0021,7.0366,7.0426,7.053,7.0829,7.0889,7.0889,7.0889,7.0889,7.0889,7.0889,7.0889,7.0889,7.0889,7.0889,7.1212,7.1982,7.4866,7.7027,7.7841,7.934,8.0209,8.0209,8.0209,8.0209,8.0209,8.0209,8.0006,7.9621,7.9283,7.8708,7.7942,7.7176,7.6589,7.6284,7.6284,7.6048,7.5709,7.5709,7.5709,7.5709,7.5709,7.5709,7.5709,7.5709,7.5709,7.5709,7.5709,7.5709,7.5709,6.8062,6.8167,6.8331,6.8884,6.9004,6.9004,6.9004,6.9004,6.9034,6.9153,6.9183,6.9393,7.0005,7.0111,7.0366,7.0859,7.0889,7.0889,7.0889,7.1164,7.1166,7.0905,7.1164,7.1196,7.0919,7.0889,7.0889,7.0889,7.0889,7.0889,7.0889,7.0889,7.0889,7.0889,7.0889,7.0889,7.0889,7.0889,7.0889,7.0889,7.0889,7.0889,7.0889,7.0889,7.0889,7.0889,7.0889,7.0889,7.0889,7.0889,7.0889,7.0889,7.0889,7.0889,7.0889,7.0889,7.0889,7.0889,7.0889,7.0889,7.0889,7.0889,7.0889,7.0889,7.0889,7.0889,7.0889,7.0889,7.0889,7.0889,7.0889,7.0889,7.0889,7.0889,7.0889,7.0889,7.0889,7.0889,7.1002,7.1263,7.1521,7.2315,7.3914,7.6393,7.8003,7.8278,7.9469,8.0209,8.0209,8.0209,8.0209,8.0209,8.0209,8.0209,8.0209,7.9587,7.9283,7.9283,7.8653,7.7921,7.7063,7.6961,7.6589,7.6082,7.5946,7.598,7.6082,7.5946,7.5912,7.5879,7.5743,7.5709,7.5709,7.5709,7.5709,7.5709,6.8854,6.8854,6.8884,6.8974,6.9004,6.9004,6.9004,6.9004,6.9213,6.9798,6.9858,7.0081,7.0709,7.0769,7.0799,7.0889,7.0889,7.0889,7.0889,7.2142,7.2299,7.0954,7.222,7.233,7.0921,7.0889,7.0889,7.0889,7.0889,7.0889,7.0889,7.0889,7.0889,7.0889,7.0889,7.0889,7.0889,7.0889,7.0889,7.0889,7.0889,7.0889,7.0889,7.0889,7.0889,7.0889,7.0889,7.0889,7.0889,7.0889,7.0889,7.0889,7.0889,7.0889,7.0889,7.0889,7.0889,7.0889,7.0889,7.0889,7.0889,7.0889,7.0889,7.0889,7.0889,7.0889,7.0889,7.0889,7.0889,7.0889,7.0889,7.0889,7.0889,7.0889,7.0889,7.0889,7.0889,7.0889,7.1423,7.2798,7.4155,7.5579,7.7124,7.7665,7.8438,7.9785,8.0074,8.0209,8.0209,8.0209,8.0209,8.0209,8.0209,8.0209,8.0209,8.0107,8.004,8.004,7.9938,7.9172,7.7819,7.7198,7.7198,7.765,7.6995,7.7096,7.765,7.6995,7.6758,7.6657,7.598,7.5709,7.5709,7.5709,7.5709,7.5709,6.9498,6.9558,6.9662,6.9991,7.0051,7.0051,7.0051,7.0051,7.0171,7.047,7.05,7.059,7.0859,7.0889,7.1247,7.2111,7.2174,7.255,7.3459,7.4153,7.3838,7.2252,7.2907,7.2565,7.0921,7.0889,7.0889,7.0889,7.0889,7.0889,7.0889,7.0889,7.0889,7.0889,7.0889,7.0889,7.0889,7.0889,7.0889,7.0889,7.0889,7.0889,7.0889,7.0889,7.0889,7.0889,7.0889,7.0889,7.0889,7.0889,7.0889,7.0889,7.0889,7.0889,7.0889,7.0889,7.0889,7.0889,7.0889,7.0889,7.0889,7.0889,7.0889,7.0889,7.0889,7.0889,7.0889,7.0889,7.0889,7.0889,7.0889,7.0889,7.0889,7.0889,7.0889,7.0889,7.0889,7.0889,7.1487,7.3061,7.5406,7.7152,7.7828,7.8684,7.9469,8.0137,8.0209,8.0209,8.0209,8.0209,8.0209,8.0209,8.0209,8.0209,8.0209,8.0209,8.0209,8.0209,8.0209,7.9634,7.8585,7.8268,7.8077,7.7988,7.765,7.7718,7.7954,7.7198,7.6893,7.6826,7.6014,7.5709,7.5709,7.5709,7.5709,7.5709]}]]